<?xml version="1.0" encoding="UTF-8" standalone="yes"?>
<gpx
 xmlns="http://www.topografix.com/GPX/1/1"
 creator="OziExplorer Version 3956f - http://www.oziexplorer.com"
 version="1.1"
 xmlns:xsi="http://www.w3.org/2001/XMLSchema-instance"
 xsi:schemaLocation="http://www.topografix.com/GPX/1/1 http://www.topografix.com/GPX/1/1/gpx.xsd">
<metadata>
 <time>2025-12-03T11:55:21Z</time>
 <bounds minlat="31.147650" minlon="35.194560" maxlat="31.247960" maxlon="35.370010"/>
</metadata>
<wpt lat="31.2353300" lon="35.2605800">
 <time>2025-12-03T13:51:53.680Z</time>
 <name>HanionLailaMorag</name>
 <sym>Flag, Red</sym>
</wpt>
<wpt lat="31.2232900" lon="35.3051900">
 <time>2025-12-03T13:51:53.709Z</time>
 <name>Tatspit</name>
 <sym>Flag, Red</sym>
</wpt>
<wpt lat="31.2230000" lon="35.3055700">
 <time>2025-12-03T13:51:53.710Z</time>
 <name>Tatspit</name>
 <sym>Flag, Red</sym>
</wpt>
<wpt lat="31.2290000" lon="35.3382800">
 <time>2025-12-03T13:51:53.711Z</time>
 <name>SinglKKL</name>
 <sym>Flag, Red</sym>
</wpt>
<wpt lat="31.2315300" lon="35.3466300">
 <time>2025-12-03T13:51:53.712Z</time>
 <name>Tatspit</name>
 <sym>Flag, Red</sym>
</wpt>
<wpt lat="31.2082500" lon="35.3505200">
 <time>2025-12-03T13:51:53.714Z</time>
 <name>Tatspit</name>
 <sym>Flag, Red</sym>
</wpt>
<wpt lat="31.2073000" lon="35.3505700">
 <time>2025-12-03T13:51:53.715Z</time>
 <name>Tatspit</name>
 <sym>Flag, Red</sym>
</wpt>
<wpt lat="31.1939800" lon="35.3415500">
 <time>2025-12-03T13:51:53.716Z</time>
 <name>Tatspit</name>
 <sym>Flag, Red</sym>
</wpt>
<wpt lat="31.1515100" lon="35.3464100">
 <time>2025-12-03T13:51:53.718Z</time>
 <name>MezadZohar</name>
 <sym>Flag, Red</sym>
</wpt>
<wpt lat="31.1506800" lon="35.3466300">
 <time>2025-12-03T13:51:53.720Z</time>
 <name>Jipovka</name>
 <sym>Flag, Red</sym>
</wpt>
<wpt lat="31.1482400" lon="35.3700100">
 <time>2025-12-03T13:51:53.721Z</time>
 <name>Finish</name>
 <sym>Flag, Blue</sym>
</wpt>
<wpt lat="31.2350500" lon="35.2565500">
 <time>2025-12-03T13:51:53.722Z</time>
 <name>Jipovka</name>
 <sym>Flag, Red</sym>
</wpt>
<wpt lat="31.2347400" lon="35.3445500">
 <time>2025-12-03T13:51:53.723Z</time>
 <name>TatspitYair</name>
 <sym>Flag, Red</sym>
</wpt>
<wpt lat="31.1948730" lon="35.3406660">
 <time>2025-12-03T13:51:53.725Z</time>
 <name>VodopadBokek</name>
 <sym>Flag, Red</sym>
</wpt>
<wpt lat="31.2478060" lon="35.1991340">
 <time>2025-12-03T13:51:53.726Z</time>
 <name>Start</name>
 <sym>Bike Trail</sym>
</wpt>
<trk>
 <name>AradMoragZohar_sinKKL_ 45км.400м</name>
 <desc>AradMoragZohar_sinKKL_ 45км.400м</desc>
<trkseg>
<trkpt lat="31.2477300" lon="35.1992400">
<ele>553.339966</ele>
<time>2025-12-03T13:51:53.726Z</time>
</trkpt>
<trkpt lat="31.2478900" lon="35.1992100">
<ele>553.309998</ele>
<time>2025-12-03T13:51:53.726Z</time>
</trkpt>
<trkpt lat="31.2478600" lon="35.1989300">
<ele>554.239990</ele>
<time>2025-12-03T13:51:53.726Z</time>
</trkpt>
<trkpt lat="31.2478600" lon="35.1988100">
<ele>554.610046</ele>
<time>2025-12-03T13:51:53.726Z</time>
</trkpt>
<trkpt lat="31.2479000" lon="35.1987200">
<ele>554.460022</ele>
<time>2025-12-03T13:51:53.726Z</time>
</trkpt>
<trkpt lat="31.2479100" lon="35.1987100">
<ele>554.390015</ele>
<time>2025-12-03T13:51:53.726Z</time>
</trkpt>
<trkpt lat="31.2479600" lon="35.1986300">
<ele>554.010010</ele>
<time>2025-12-03T13:51:53.726Z</time>
</trkpt>
<trkpt lat="31.2479300" lon="35.1984000">
<ele>554.090027</ele>
<time>2025-12-03T13:51:53.726Z</time>
</trkpt>
<trkpt lat="31.2479000" lon="35.1982300">
<ele>554.119995</ele>
<time>2025-12-03T13:51:53.726Z</time>
</trkpt>
<trkpt lat="31.2478700" lon="35.1982100">
<ele>554.000000</ele>
<time>2025-12-03T13:51:53.726Z</time>
</trkpt>
<trkpt lat="31.2478400" lon="35.1981900">
<ele>553.830017</ele>
<time>2025-12-03T13:51:53.726Z</time>
</trkpt>
<trkpt lat="31.2478200" lon="35.1981600">
<ele>553.660034</ele>
<time>2025-12-03T13:51:53.726Z</time>
</trkpt>
<trkpt lat="31.2478000" lon="35.1980900">
<ele>553.329956</ele>
<time>2025-12-03T13:51:53.726Z</time>
</trkpt>
<trkpt lat="31.2477200" lon="35.1974800">
<ele>552.779968</ele>
<time>2025-12-03T13:51:53.726Z</time>
</trkpt>
<trkpt lat="31.2472700" lon="35.1975700">
<ele>551.220032</ele>
<time>2025-12-03T13:51:53.726Z</time>
</trkpt>
<trkpt lat="31.2471400" lon="35.1975800">
<ele>551.039978</ele>
<time>2025-12-03T13:51:53.726Z</time>
</trkpt>
<trkpt lat="31.2470400" lon="35.1975500">
<ele>551.299988</ele>
<time>2025-12-03T13:51:53.726Z</time>
</trkpt>
<trkpt lat="31.2469900" lon="35.1975200">
<ele>551.659973</ele>
<time>2025-12-03T13:51:53.726Z</time>
</trkpt>
<trkpt lat="31.2469100" lon="35.1975100">
<ele>552.020020</ele>
<time>2025-12-03T13:51:53.726Z</time>
</trkpt>
<trkpt lat="31.2468700" lon="35.1975200">
<ele>552.089966</ele>
<time>2025-12-03T13:51:53.726Z</time>
</trkpt>
<trkpt lat="31.2468100" lon="35.1975800">
<ele>551.900024</ele>
<time>2025-12-03T13:51:53.726Z</time>
</trkpt>
<trkpt lat="31.2467400" lon="35.1976200">
<ele>552.080017</ele>
<time>2025-12-03T13:51:53.726Z</time>
</trkpt>
<trkpt lat="31.2466300" lon="35.1976400">
<ele>552.760010</ele>
<time>2025-12-03T13:51:53.726Z</time>
</trkpt>
<trkpt lat="31.2464200" lon="35.1976300">
<ele>554.309998</ele>
<time>2025-12-03T13:51:53.726Z</time>
</trkpt>
<trkpt lat="31.2460400" lon="35.1975300">
<ele>558.099976</ele>
<time>2025-12-03T13:51:53.726Z</time>
</trkpt>
<trkpt lat="31.2448700" lon="35.1971700">
<ele>572.109985</ele>
<time>2025-12-03T13:51:53.726Z</time>
</trkpt>
<trkpt lat="31.2448700" lon="35.1971700">
<ele>572.109985</ele>
<time>2025-12-03T13:51:53.726Z</time>
</trkpt>
<trkpt lat="31.2448700" lon="35.1971700">
<ele>572.109985</ele>
<time>2025-12-03T13:51:53.726Z</time>
</trkpt>
<trkpt lat="31.2432700" lon="35.1966900">
<ele>567.339966</ele>
<time>2025-12-03T13:51:53.726Z</time>
</trkpt>
<trkpt lat="31.2418300" lon="35.1962300">
<ele>563.190002</ele>
<time>2025-12-03T13:51:53.726Z</time>
</trkpt>
<trkpt lat="31.2366600" lon="35.1946500">
<ele>579.529968</ele>
<time>2025-12-03T13:51:53.726Z</time>
</trkpt>
<trkpt lat="31.2365200" lon="35.1946100">
<ele>579.910034</ele>
<time>2025-12-03T13:51:53.726Z</time>
</trkpt>
<trkpt lat="31.2359400" lon="35.1945600">
<ele>576.380005</ele>
<time>2025-12-03T13:51:53.726Z</time>
</trkpt>
<trkpt lat="31.2354400" lon="35.1946200">
<ele>569.179993</ele>
<time>2025-12-03T13:51:53.726Z</time>
</trkpt>
<trkpt lat="31.2350400" lon="35.1947300">
<ele>567.979980</ele>
<time>2025-12-03T13:51:53.726Z</time>
</trkpt>
<trkpt lat="31.2346800" lon="35.1949000">
<ele>567.640015</ele>
<time>2025-12-03T13:51:53.726Z</time>
</trkpt>
<trkpt lat="31.2345000" lon="35.1950100">
<ele>569.609985</ele>
<time>2025-12-03T13:51:53.726Z</time>
</trkpt>
<trkpt lat="31.2342000" lon="35.1952300">
<ele>571.059998</ele>
<time>2025-12-03T13:51:53.726Z</time>
</trkpt>
<trkpt lat="31.2339100" lon="35.1954900">
<ele>571.640015</ele>
<time>2025-12-03T13:51:53.726Z</time>
</trkpt>
<trkpt lat="31.2336400" lon="35.1957900">
<ele>574.000000</ele>
<time>2025-12-03T13:51:53.726Z</time>
</trkpt>
<trkpt lat="31.2333000" lon="35.1962200">
<ele>576.380005</ele>
<time>2025-12-03T13:51:53.726Z</time>
</trkpt>
<trkpt lat="31.2330500" lon="35.1966200">
<ele>576.419983</ele>
<time>2025-12-03T13:51:53.726Z</time>
</trkpt>
<trkpt lat="31.2329200" lon="35.1969400">
<ele>578.479980</ele>
<time>2025-12-03T13:51:53.726Z</time>
</trkpt>
<trkpt lat="31.2329200" lon="35.1969400">
<ele>578.479980</ele>
<time>2025-12-03T13:51:53.726Z</time>
</trkpt>
<trkpt lat="31.2328400" lon="35.1971300">
<ele>579.380005</ele>
<time>2025-12-03T13:51:53.726Z</time>
</trkpt>
<trkpt lat="31.2327100" lon="35.1972200">
<ele>579.979980</ele>
<time>2025-12-03T13:51:53.726Z</time>
</trkpt>
<trkpt lat="31.2325800" lon="35.1972200">
<ele>579.979980</ele>
<time>2025-12-03T13:51:53.726Z</time>
</trkpt>
<trkpt lat="31.2324100" lon="35.1971400">
<ele>579.399963</ele>
<time>2025-12-03T13:51:53.726Z</time>
</trkpt>
<trkpt lat="31.2323300" lon="35.1970000">
<ele>579.070007</ele>
<time>2025-12-03T13:51:53.726Z</time>
</trkpt>
<trkpt lat="31.2323400" lon="35.1966800">
<ele>577.369995</ele>
<time>2025-12-03T13:51:53.726Z</time>
</trkpt>
<trkpt lat="31.2323200" lon="35.1965800">
<ele>577.479980</ele>
<time>2025-12-03T13:51:53.726Z</time>
</trkpt>
<trkpt lat="31.2322700" lon="35.1965300">
<ele>578.229980</ele>
<time>2025-12-03T13:51:53.726Z</time>
</trkpt>
<trkpt lat="31.2321700" lon="35.1964900">
<ele>580.109985</ele>
<time>2025-12-03T13:51:53.726Z</time>
</trkpt>
<trkpt lat="31.2319200" lon="35.1965400">
<ele>584.440002</ele>
<time>2025-12-03T13:51:53.726Z</time>
</trkpt>
<trkpt lat="31.2317200" lon="35.1966500">
<ele>582.570007</ele>
<time>2025-12-03T13:51:53.726Z</time>
</trkpt>
<trkpt lat="31.2315600" lon="35.1967700">
<ele>580.720032</ele>
<time>2025-12-03T13:51:53.726Z</time>
</trkpt>
<trkpt lat="31.2312800" lon="35.1970200">
<ele>582.650024</ele>
<time>2025-12-03T13:51:53.726Z</time>
</trkpt>
<trkpt lat="31.2309700" lon="35.1974700">
<ele>592.750000</ele>
<time>2025-12-03T13:51:53.726Z</time>
</trkpt>
<trkpt lat="31.2309700" lon="35.1974700">
<ele>592.750000</ele>
<time>2025-12-03T13:51:53.726Z</time>
</trkpt>
<trkpt lat="31.2307500" lon="35.1978000">
<ele>593.739990</ele>
<time>2025-12-03T13:51:53.726Z</time>
</trkpt>
<trkpt lat="31.2305900" lon="35.1979000">
<ele>591.440002</ele>
<time>2025-12-03T13:51:53.726Z</time>
</trkpt>
<trkpt lat="31.2303900" lon="35.1979500">
<ele>591.000000</ele>
<time>2025-12-03T13:51:53.726Z</time>
</trkpt>
<trkpt lat="31.2302700" lon="35.1980800">
<ele>591.109985</ele>
<time>2025-12-03T13:51:53.726Z</time>
</trkpt>
<trkpt lat="31.2301900" lon="35.1982300">
<ele>591.150024</ele>
<time>2025-12-03T13:51:53.726Z</time>
</trkpt>
<trkpt lat="31.2300000" lon="35.1986400">
<ele>589.209961</ele>
<time>2025-12-03T13:51:53.726Z</time>
</trkpt>
<trkpt lat="31.2297500" lon="35.1990600">
<ele>590.429993</ele>
<time>2025-12-03T13:51:53.726Z</time>
</trkpt>
<trkpt lat="31.2296700" lon="35.1993500">
<ele>592.920044</ele>
<time>2025-12-03T13:51:53.726Z</time>
</trkpt>
<trkpt lat="31.2296300" lon="35.1997400">
<ele>595.000000</ele>
<time>2025-12-03T13:51:53.726Z</time>
</trkpt>
<trkpt lat="31.2295600" lon="35.2000100">
<ele>595.049988</ele>
<time>2025-12-03T13:51:53.726Z</time>
</trkpt>
<trkpt lat="31.2294300" lon="35.2004200">
<ele>598.460022</ele>
<time>2025-12-03T13:51:53.726Z</time>
</trkpt>
<trkpt lat="31.2294000" lon="35.2005500">
<ele>598.820007</ele>
<time>2025-12-03T13:51:53.726Z</time>
</trkpt>
<trkpt lat="31.2294000" lon="35.2005500">
<ele>598.820007</ele>
<time>2025-12-03T13:51:53.726Z</time>
</trkpt>
<trkpt lat="31.2294000" lon="35.2005500">
<ele>598.820007</ele>
<time>2025-12-03T13:51:53.726Z</time>
</trkpt>
<trkpt lat="31.2293200" lon="35.2009600">
<ele>596.799988</ele>
<time>2025-12-03T13:51:53.726Z</time>
</trkpt>
<trkpt lat="31.2291900" lon="35.2013900">
<ele>593.809998</ele>
<time>2025-12-03T13:51:53.726Z</time>
</trkpt>
<trkpt lat="31.2290100" lon="35.2017500">
<ele>589.549988</ele>
<time>2025-12-03T13:51:53.726Z</time>
</trkpt>
<trkpt lat="31.2286200" lon="35.2022800">
<ele>585.390015</ele>
<time>2025-12-03T13:51:53.726Z</time>
</trkpt>
<trkpt lat="31.2285400" lon="35.2024300">
<ele>584.640015</ele>
<time>2025-12-03T13:51:53.726Z</time>
</trkpt>
<trkpt lat="31.2284800" lon="35.2026300">
<ele>584.530029</ele>
<time>2025-12-03T13:51:53.726Z</time>
</trkpt>
<trkpt lat="31.2284000" lon="35.2033500">
<ele>589.339966</ele>
<time>2025-12-03T13:51:53.726Z</time>
</trkpt>
<trkpt lat="31.2283000" lon="35.2036600">
<ele>590.429993</ele>
<time>2025-12-03T13:51:53.726Z</time>
</trkpt>
<trkpt lat="31.2277900" lon="35.2046100">
<ele>597.440002</ele>
<time>2025-12-03T13:51:53.726Z</time>
</trkpt>
<trkpt lat="31.2274900" lon="35.2053000">
<ele>601.750000</ele>
<time>2025-12-03T13:51:53.726Z</time>
</trkpt>
<trkpt lat="31.2268900" lon="35.2063500">
<ele>602.099976</ele>
<time>2025-12-03T13:51:53.726Z</time>
</trkpt>
<trkpt lat="31.2266800" lon="35.2068800">
<ele>606.400024</ele>
<time>2025-12-03T13:51:53.726Z</time>
</trkpt>
<trkpt lat="31.2264600" lon="35.2073200">
<ele>603.179993</ele>
<time>2025-12-03T13:51:53.726Z</time>
</trkpt>
<trkpt lat="31.2264100" lon="35.2077100">
<ele>607.139954</ele>
<time>2025-12-03T13:51:53.726Z</time>
</trkpt>
<trkpt lat="31.2263300" lon="35.2078600">
<ele>607.470032</ele>
<time>2025-12-03T13:51:53.726Z</time>
</trkpt>
<trkpt lat="31.2261400" lon="35.2079900">
<ele>604.700012</ele>
<time>2025-12-03T13:51:53.726Z</time>
</trkpt>
<trkpt lat="31.2260500" lon="35.2080900">
<ele>603.739990</ele>
<time>2025-12-03T13:51:53.726Z</time>
</trkpt>
<trkpt lat="31.2257000" lon="35.2085500">
<ele>601.239990</ele>
<time>2025-12-03T13:51:53.726Z</time>
</trkpt>
<trkpt lat="31.2255100" lon="35.2089100">
<ele>601.279968</ele>
<time>2025-12-03T13:51:53.726Z</time>
</trkpt>
<trkpt lat="31.2251100" lon="35.2094200">
<ele>605.010010</ele>
<time>2025-12-03T13:51:53.726Z</time>
</trkpt>
<trkpt lat="31.2249900" lon="35.2097300">
<ele>608.080017</ele>
<time>2025-12-03T13:51:53.726Z</time>
</trkpt>
<trkpt lat="31.2248700" lon="35.2098400">
<ele>609.070007</ele>
<time>2025-12-03T13:51:53.726Z</time>
</trkpt>
<trkpt lat="31.2248000" lon="35.2099900">
<ele>610.200012</ele>
<time>2025-12-03T13:51:53.726Z</time>
</trkpt>
<trkpt lat="31.2247500" lon="35.2103400">
<ele>613.450012</ele>
<time>2025-12-03T13:51:53.726Z</time>
</trkpt>
<trkpt lat="31.2247400" lon="35.2113100">
<ele>623.360046</ele>
<time>2025-12-03T13:51:53.726Z</time>
</trkpt>
<trkpt lat="31.2247900" lon="35.2116900">
<ele>629.799988</ele>
<time>2025-12-03T13:51:53.726Z</time>
</trkpt>
<trkpt lat="31.2248500" lon="35.2118300">
<ele>630.700012</ele>
<time>2025-12-03T13:51:53.726Z</time>
</trkpt>
<trkpt lat="31.2249100" lon="35.2119300">
<ele>631.339966</ele>
<time>2025-12-03T13:51:53.726Z</time>
</trkpt>
<trkpt lat="31.2249800" lon="35.2120000">
<ele>631.080017</ele>
<time>2025-12-03T13:51:53.726Z</time>
</trkpt>
<trkpt lat="31.2252300" lon="35.2121300">
<ele>629.609985</ele>
<time>2025-12-03T13:51:53.726Z</time>
</trkpt>
<trkpt lat="31.2253100" lon="35.2121800">
<ele>629.250000</ele>
<time>2025-12-03T13:51:53.726Z</time>
</trkpt>
<trkpt lat="31.2254200" lon="35.2122900">
<ele>629.119995</ele>
<time>2025-12-03T13:51:53.726Z</time>
</trkpt>
<trkpt lat="31.2255000" lon="35.2124200">
<ele>629.570007</ele>
<time>2025-12-03T13:51:53.726Z</time>
</trkpt>
<trkpt lat="31.2257900" lon="35.2130000">
<ele>631.430054</ele>
<time>2025-12-03T13:51:53.726Z</time>
</trkpt>
<trkpt lat="31.2259700" lon="35.2132800">
<ele>629.330017</ele>
<time>2025-12-03T13:51:53.726Z</time>
</trkpt>
<trkpt lat="31.2263600" lon="35.2138200">
<ele>636.069946</ele>
<time>2025-12-03T13:51:53.726Z</time>
</trkpt>
<trkpt lat="31.2267800" lon="35.2143700">
<ele>631.709961</ele>
<time>2025-12-03T13:51:53.726Z</time>
</trkpt>
<trkpt lat="31.2268600" lon="35.2145400">
<ele>629.200012</ele>
<time>2025-12-03T13:51:53.726Z</time>
</trkpt>
<trkpt lat="31.2269100" lon="35.2147100">
<ele>628.029968</ele>
<time>2025-12-03T13:51:53.726Z</time>
</trkpt>
<trkpt lat="31.2271100" lon="35.2155500">
<ele>619.420044</ele>
<time>2025-12-03T13:51:53.726Z</time>
</trkpt>
<trkpt lat="31.2276500" lon="35.2168800">
<ele>611.820007</ele>
<time>2025-12-03T13:51:53.726Z</time>
</trkpt>
<trkpt lat="31.2276900" lon="35.2172000">
<ele>611.599976</ele>
<time>2025-12-03T13:51:53.726Z</time>
</trkpt>
<trkpt lat="31.2278000" lon="35.2175300">
<ele>609.549988</ele>
<time>2025-12-03T13:51:53.726Z</time>
</trkpt>
<trkpt lat="31.2279900" lon="35.2178700">
<ele>606.650024</ele>
<time>2025-12-03T13:51:53.726Z</time>
</trkpt>
<trkpt lat="31.2280300" lon="35.2179600">
<ele>606.719971</ele>
<time>2025-12-03T13:51:53.726Z</time>
</trkpt>
<trkpt lat="31.2280300" lon="35.2179600">
<ele>606.719971</ele>
<time>2025-12-03T13:51:53.726Z</time>
</trkpt>
<trkpt lat="31.2283000" lon="35.2185900">
<ele>605.510010</ele>
<time>2025-12-03T13:51:53.726Z</time>
</trkpt>
<trkpt lat="31.2283900" lon="35.2189200">
<ele>602.710022</ele>
<time>2025-12-03T13:51:53.726Z</time>
</trkpt>
<trkpt lat="31.2284400" lon="35.2192500">
<ele>599.869995</ele>
<time>2025-12-03T13:51:53.726Z</time>
</trkpt>
<trkpt lat="31.2284400" lon="35.2196400">
<ele>598.200012</ele>
<time>2025-12-03T13:51:53.726Z</time>
</trkpt>
<trkpt lat="31.2283800" lon="35.2197900">
<ele>598.530029</ele>
<time>2025-12-03T13:51:53.726Z</time>
</trkpt>
<trkpt lat="31.2281900" lon="35.2201900">
<ele>598.469971</ele>
<time>2025-12-03T13:51:53.726Z</time>
</trkpt>
<trkpt lat="31.2280200" lon="35.2206900">
<ele>600.859985</ele>
<time>2025-12-03T13:51:53.726Z</time>
</trkpt>
<trkpt lat="31.2279500" lon="35.2207800">
<ele>601.090027</ele>
<time>2025-12-03T13:51:53.726Z</time>
</trkpt>
<trkpt lat="31.2272900" lon="35.2213000">
<ele>605.609985</ele>
<time>2025-12-03T13:51:53.726Z</time>
</trkpt>
<trkpt lat="31.2270600" lon="35.2213900">
<ele>608.160034</ele>
<time>2025-12-03T13:51:53.726Z</time>
</trkpt>
<trkpt lat="31.2269000" lon="35.2215300">
<ele>608.919983</ele>
<time>2025-12-03T13:51:53.726Z</time>
</trkpt>
<trkpt lat="31.2268400" lon="35.2216600">
<ele>608.989990</ele>
<time>2025-12-03T13:51:53.726Z</time>
</trkpt>
<trkpt lat="31.2266800" lon="35.2223100">
<ele>606.090027</ele>
<time>2025-12-03T13:51:53.726Z</time>
</trkpt>
<trkpt lat="31.2264800" lon="35.2233900">
<ele>605.940002</ele>
<time>2025-12-03T13:51:53.726Z</time>
</trkpt>
<trkpt lat="31.2265300" lon="35.2236700">
<ele>605.489990</ele>
<time>2025-12-03T13:51:53.726Z</time>
</trkpt>
<trkpt lat="31.2266600" lon="35.2238500">
<ele>606.029968</ele>
<time>2025-12-03T13:51:53.726Z</time>
</trkpt>
<trkpt lat="31.2268500" lon="35.2240700">
<ele>609.739990</ele>
<time>2025-12-03T13:51:53.726Z</time>
</trkpt>
<trkpt lat="31.2269000" lon="35.2241700">
<ele>610.900024</ele>
<time>2025-12-03T13:51:53.726Z</time>
</trkpt>
<trkpt lat="31.2271400" lon="35.2248000">
<ele>615.549988</ele>
<time>2025-12-03T13:51:53.726Z</time>
</trkpt>
<trkpt lat="31.2272300" lon="35.2251500">
<ele>617.960022</ele>
<time>2025-12-03T13:51:53.726Z</time>
</trkpt>
<trkpt lat="31.2274200" lon="35.2256300">
<ele>615.979980</ele>
<time>2025-12-03T13:51:53.726Z</time>
</trkpt>
<trkpt lat="31.2274900" lon="35.2259200">
<ele>615.869995</ele>
<time>2025-12-03T13:51:53.726Z</time>
</trkpt>
<trkpt lat="31.2276100" lon="35.2270500">
<ele>609.070007</ele>
<time>2025-12-03T13:51:53.726Z</time>
</trkpt>
<trkpt lat="31.2276100" lon="35.2270500">
<ele>609.070007</ele>
<time>2025-12-03T13:51:53.726Z</time>
</trkpt>
<trkpt lat="31.2276300" lon="35.2272200">
<ele>608.410034</ele>
<time>2025-12-03T13:51:53.726Z</time>
</trkpt>
<trkpt lat="31.2277100" lon="35.2274400">
<ele>611.049988</ele>
<time>2025-12-03T13:51:53.726Z</time>
</trkpt>
<trkpt lat="31.2278100" lon="35.2276200">
<ele>612.849976</ele>
<time>2025-12-03T13:51:53.726Z</time>
</trkpt>
<trkpt lat="31.2279000" lon="35.2277800">
<ele>613.419983</ele>
<time>2025-12-03T13:51:53.726Z</time>
</trkpt>
<trkpt lat="31.2279600" lon="35.2277700">
<ele>613.580017</ele>
<time>2025-12-03T13:51:53.726Z</time>
</trkpt>
<trkpt lat="31.2280300" lon="35.2277900">
<ele>613.779968</ele>
<time>2025-12-03T13:51:53.726Z</time>
</trkpt>
<trkpt lat="31.2282100" lon="35.2279400">
<ele>608.679993</ele>
<time>2025-12-03T13:51:53.726Z</time>
</trkpt>
<trkpt lat="31.2284400" lon="35.2280800">
<ele>602.010010</ele>
<time>2025-12-03T13:51:53.726Z</time>
</trkpt>
<trkpt lat="31.2284500" lon="35.2280900">
<ele>601.640015</ele>
<time>2025-12-03T13:51:53.726Z</time>
</trkpt>
<trkpt lat="31.2284500" lon="35.2280900">
<ele>601.640015</ele>
<time>2025-12-03T13:51:53.726Z</time>
</trkpt>
<trkpt lat="31.2284600" lon="35.2280900">
<ele>601.380005</ele>
<time>2025-12-03T13:51:53.726Z</time>
</trkpt>
<trkpt lat="31.2282100" lon="35.2279400">
<ele>608.679993</ele>
<time>2025-12-03T13:51:53.726Z</time>
</trkpt>
<trkpt lat="31.2280300" lon="35.2277900">
<ele>613.779968</ele>
<time>2025-12-03T13:51:53.726Z</time>
</trkpt>
<trkpt lat="31.2279600" lon="35.2277700">
<ele>613.580017</ele>
<time>2025-12-03T13:51:53.726Z</time>
</trkpt>
<trkpt lat="31.2279000" lon="35.2277800">
<ele>613.419983</ele>
<time>2025-12-03T13:51:53.726Z</time>
</trkpt>
<trkpt lat="31.2279100" lon="35.2279100">
<ele>612.299988</ele>
<time>2025-12-03T13:51:53.726Z</time>
</trkpt>
<trkpt lat="31.2278300" lon="35.2283300">
<ele>610.010010</ele>
<time>2025-12-03T13:51:53.726Z</time>
</trkpt>
<trkpt lat="31.2277100" lon="35.2286800">
<ele>609.320007</ele>
<time>2025-12-03T13:51:53.726Z</time>
</trkpt>
<trkpt lat="31.2276200" lon="35.2288000">
<ele>608.460022</ele>
<time>2025-12-03T13:51:53.726Z</time>
</trkpt>
<trkpt lat="31.2275000" lon="35.2288800">
<ele>608.030029</ele>
<time>2025-12-03T13:51:53.726Z</time>
</trkpt>
<trkpt lat="31.2256200" lon="35.2297700">
<ele>600.179993</ele>
<time>2025-12-03T13:51:53.726Z</time>
</trkpt>
<trkpt lat="31.2253200" lon="35.2299500">
<ele>609.690002</ele>
<time>2025-12-03T13:51:53.726Z</time>
</trkpt>
<trkpt lat="31.2251500" lon="35.2301200">
<ele>609.140015</ele>
<time>2025-12-03T13:51:53.726Z</time>
</trkpt>
<trkpt lat="31.2251500" lon="35.2301200">
<ele>609.140015</ele>
<time>2025-12-03T13:51:53.726Z</time>
</trkpt>
<trkpt lat="31.2253200" lon="35.2299500">
<ele>609.690002</ele>
<time>2025-12-03T13:51:53.726Z</time>
</trkpt>
<trkpt lat="31.2256200" lon="35.2297700">
<ele>600.179993</ele>
<time>2025-12-03T13:51:53.726Z</time>
</trkpt>
<trkpt lat="31.2275000" lon="35.2288800">
<ele>608.030029</ele>
<time>2025-12-03T13:51:53.726Z</time>
</trkpt>
<trkpt lat="31.2276200" lon="35.2288000">
<ele>608.460022</ele>
<time>2025-12-03T13:51:53.726Z</time>
</trkpt>
<trkpt lat="31.2277100" lon="35.2286800">
<ele>609.320007</ele>
<time>2025-12-03T13:51:53.726Z</time>
</trkpt>
<trkpt lat="31.2278300" lon="35.2283300">
<ele>610.010010</ele>
<time>2025-12-03T13:51:53.726Z</time>
</trkpt>
<trkpt lat="31.2279100" lon="35.2279100">
<ele>612.299988</ele>
<time>2025-12-03T13:51:53.726Z</time>
</trkpt>
<trkpt lat="31.2279000" lon="35.2277800">
<ele>613.419983</ele>
<time>2025-12-03T13:51:53.726Z</time>
</trkpt>
<trkpt lat="31.2279600" lon="35.2277700">
<ele>613.580017</ele>
<time>2025-12-03T13:51:53.726Z</time>
</trkpt>
<trkpt lat="31.2280300" lon="35.2277900">
<ele>613.779968</ele>
<time>2025-12-03T13:51:53.726Z</time>
</trkpt>
<trkpt lat="31.2282100" lon="35.2279400">
<ele>608.679993</ele>
<time>2025-12-03T13:51:53.726Z</time>
</trkpt>
<trkpt lat="31.2284600" lon="35.2280900">
<ele>601.380005</ele>
<time>2025-12-03T13:51:53.726Z</time>
</trkpt>
<trkpt lat="31.2284500" lon="35.2280900">
<ele>601.640015</ele>
<time>2025-12-03T13:51:53.726Z</time>
</trkpt>
<trkpt lat="31.2284500" lon="35.2280900">
<ele>601.640015</ele>
<time>2025-12-03T13:51:53.726Z</time>
</trkpt>
<trkpt lat="31.2286900" lon="35.2283200">
<ele>592.719971</ele>
<time>2025-12-03T13:51:53.726Z</time>
</trkpt>
<trkpt lat="31.2288000" lon="35.2283600">
<ele>590.119995</ele>
<time>2025-12-03T13:51:53.726Z</time>
</trkpt>
<trkpt lat="31.2289400" lon="35.2283600">
<ele>587.250000</ele>
<time>2025-12-03T13:51:53.726Z</time>
</trkpt>
<trkpt lat="31.2294500" lon="35.2282900">
<ele>579.149963</ele>
<time>2025-12-03T13:51:53.726Z</time>
</trkpt>
<trkpt lat="31.2296600" lon="35.2283300">
<ele>583.039978</ele>
<time>2025-12-03T13:51:53.726Z</time>
</trkpt>
<trkpt lat="31.2298700" lon="35.2284300">
<ele>581.940002</ele>
<time>2025-12-03T13:51:53.726Z</time>
</trkpt>
<trkpt lat="31.2300700" lon="35.2286100">
<ele>580.260010</ele>
<time>2025-12-03T13:51:53.726Z</time>
</trkpt>
<trkpt lat="31.2303400" lon="35.2288900">
<ele>571.630005</ele>
<time>2025-12-03T13:51:53.726Z</time>
</trkpt>
<trkpt lat="31.2305400" lon="35.2290700">
<ele>569.160034</ele>
<time>2025-12-03T13:51:53.726Z</time>
</trkpt>
<trkpt lat="31.2306400" lon="35.2292100">
<ele>567.110046</ele>
<time>2025-12-03T13:51:53.726Z</time>
</trkpt>
<trkpt lat="31.2307900" lon="35.2295800">
<ele>563.030029</ele>
<time>2025-12-03T13:51:53.726Z</time>
</trkpt>
<trkpt lat="31.2309100" lon="35.2297400">
<ele>561.989990</ele>
<time>2025-12-03T13:51:53.726Z</time>
</trkpt>
<trkpt lat="31.2312400" lon="35.2299300">
<ele>561.909973</ele>
<time>2025-12-03T13:51:53.726Z</time>
</trkpt>
<trkpt lat="31.2313300" lon="35.2301000">
<ele>561.489990</ele>
<time>2025-12-03T13:51:53.726Z</time>
</trkpt>
<trkpt lat="31.2314500" lon="35.2303200">
<ele>560.630005</ele>
<time>2025-12-03T13:51:53.726Z</time>
</trkpt>
<trkpt lat="31.2316100" lon="35.2307300">
<ele>556.210022</ele>
<time>2025-12-03T13:51:53.726Z</time>
</trkpt>
<trkpt lat="31.2317200" lon="35.2309500">
<ele>557.640015</ele>
<time>2025-12-03T13:51:53.726Z</time>
</trkpt>
<trkpt lat="31.2317400" lon="35.2310800">
<ele>558.630005</ele>
<time>2025-12-03T13:51:53.726Z</time>
</trkpt>
<trkpt lat="31.2317800" lon="35.2315800">
<ele>558.130005</ele>
<time>2025-12-03T13:51:53.726Z</time>
</trkpt>
<trkpt lat="31.2321200" lon="35.2328600">
<ele>541.710022</ele>
<time>2025-12-03T13:51:53.726Z</time>
</trkpt>
<trkpt lat="31.2321600" lon="35.2330300">
<ele>541.750000</ele>
<time>2025-12-03T13:51:53.726Z</time>
</trkpt>
<trkpt lat="31.2321600" lon="35.2333100">
<ele>543.609985</ele>
<time>2025-12-03T13:51:53.726Z</time>
</trkpt>
<trkpt lat="31.2321300" lon="35.2336000">
<ele>546.229980</ele>
<time>2025-12-03T13:51:53.726Z</time>
</trkpt>
<trkpt lat="31.2319000" lon="35.2344700">
<ele>544.290039</ele>
<time>2025-12-03T13:51:53.726Z</time>
</trkpt>
<trkpt lat="31.2318400" lon="35.2347700">
<ele>544.010010</ele>
<time>2025-12-03T13:51:53.726Z</time>
</trkpt>
<trkpt lat="31.2317600" lon="35.2353900">
<ele>539.339966</ele>
<time>2025-12-03T13:51:53.726Z</time>
</trkpt>
<trkpt lat="31.2317700" lon="35.2356700">
<ele>536.630005</ele>
<time>2025-12-03T13:51:53.726Z</time>
</trkpt>
<trkpt lat="31.2318500" lon="35.2358900">
<ele>536.690002</ele>
<time>2025-12-03T13:51:53.726Z</time>
</trkpt>
<trkpt lat="31.2318500" lon="35.2358900">
<ele>536.690002</ele>
<time>2025-12-03T13:51:53.726Z</time>
</trkpt>
<trkpt lat="31.2318500" lon="35.2358900">
<ele>536.690002</ele>
<time>2025-12-03T13:51:53.726Z</time>
</trkpt>
<trkpt lat="31.2319100" lon="35.2360700">
<ele>537.299988</ele>
<time>2025-12-03T13:51:53.726Z</time>
</trkpt>
<trkpt lat="31.2319400" lon="35.2362900">
<ele>536.589966</ele>
<time>2025-12-03T13:51:53.726Z</time>
</trkpt>
<trkpt lat="31.2319200" lon="35.2365100">
<ele>532.760010</ele>
<time>2025-12-03T13:51:53.726Z</time>
</trkpt>
<trkpt lat="31.2318900" lon="35.2367200">
<ele>528.320007</ele>
<time>2025-12-03T13:51:53.726Z</time>
</trkpt>
<trkpt lat="31.2318400" lon="35.2368200">
<ele>526.500000</ele>
<time>2025-12-03T13:51:53.726Z</time>
</trkpt>
<trkpt lat="31.2315500" lon="35.2371400">
<ele>522.239990</ele>
<time>2025-12-03T13:51:53.726Z</time>
</trkpt>
<trkpt lat="31.2315500" lon="35.2371400">
<ele>522.239990</ele>
<time>2025-12-03T13:51:53.726Z</time>
</trkpt>
<trkpt lat="31.2318400" lon="35.2368200">
<ele>526.500000</ele>
<time>2025-12-03T13:51:53.726Z</time>
</trkpt>
<trkpt lat="31.2318900" lon="35.2367200">
<ele>528.320007</ele>
<time>2025-12-03T13:51:53.726Z</time>
</trkpt>
<trkpt lat="31.2319200" lon="35.2365100">
<ele>532.760010</ele>
<time>2025-12-03T13:51:53.726Z</time>
</trkpt>
<trkpt lat="31.2319400" lon="35.2362900">
<ele>536.589966</ele>
<time>2025-12-03T13:51:53.726Z</time>
</trkpt>
<trkpt lat="31.2319100" lon="35.2360700">
<ele>537.299988</ele>
<time>2025-12-03T13:51:53.726Z</time>
</trkpt>
<trkpt lat="31.2318400" lon="35.2358600">
<ele>536.609985</ele>
<time>2025-12-03T13:51:53.726Z</time>
</trkpt>
<trkpt lat="31.2319300" lon="35.2360200">
<ele>537.979980</ele>
<time>2025-12-03T13:51:53.726Z</time>
</trkpt>
<trkpt lat="31.2319900" lon="35.2361100">
<ele>537.019958</ele>
<time>2025-12-03T13:51:53.726Z</time>
</trkpt>
<trkpt lat="31.2321200" lon="35.2363800">
<ele>531.660034</ele>
<time>2025-12-03T13:51:53.726Z</time>
</trkpt>
<trkpt lat="31.2322000" lon="35.2366100">
<ele>527.710022</ele>
<time>2025-12-03T13:51:53.726Z</time>
</trkpt>
<trkpt lat="31.2322300" lon="35.2367700">
<ele>527.170044</ele>
<time>2025-12-03T13:51:53.726Z</time>
</trkpt>
<trkpt lat="31.2322500" lon="35.2369200">
<ele>527.290039</ele>
<time>2025-12-03T13:51:53.726Z</time>
</trkpt>
<trkpt lat="31.2322500" lon="35.2370800">
<ele>530.330017</ele>
<time>2025-12-03T13:51:53.726Z</time>
</trkpt>
<trkpt lat="31.2322300" lon="35.2372200">
<ele>533.779968</ele>
<time>2025-12-03T13:51:53.726Z</time>
</trkpt>
<trkpt lat="31.2321600" lon="35.2373700">
<ele>536.119995</ele>
<time>2025-12-03T13:51:53.726Z</time>
</trkpt>
<trkpt lat="31.2321100" lon="35.2375200">
<ele>538.799988</ele>
<time>2025-12-03T13:51:53.726Z</time>
</trkpt>
<trkpt lat="31.2321200" lon="35.2375800">
<ele>539.419983</ele>
<time>2025-12-03T13:51:53.726Z</time>
</trkpt>
<trkpt lat="31.2321400" lon="35.2376300">
<ele>539.919983</ele>
<time>2025-12-03T13:51:53.726Z</time>
</trkpt>
<trkpt lat="31.2321900" lon="35.2376900">
<ele>540.409973</ele>
<time>2025-12-03T13:51:53.726Z</time>
</trkpt>
<trkpt lat="31.2322100" lon="35.2378800">
<ele>541.030029</ele>
<time>2025-12-03T13:51:53.726Z</time>
</trkpt>
<trkpt lat="31.2322100" lon="35.2378800">
<ele>541.030029</ele>
<time>2025-12-03T13:51:53.726Z</time>
</trkpt>
<trkpt lat="31.2321900" lon="35.2376900">
<ele>540.409973</ele>
<time>2025-12-03T13:51:53.726Z</time>
</trkpt>
<trkpt lat="31.2321400" lon="35.2376300">
<ele>539.919983</ele>
<time>2025-12-03T13:51:53.726Z</time>
</trkpt>
<trkpt lat="31.2321200" lon="35.2375800">
<ele>539.419983</ele>
<time>2025-12-03T13:51:53.726Z</time>
</trkpt>
<trkpt lat="31.2321100" lon="35.2375200">
<ele>538.799988</ele>
<time>2025-12-03T13:51:53.726Z</time>
</trkpt>
<trkpt lat="31.2321600" lon="35.2373700">
<ele>536.119995</ele>
<time>2025-12-03T13:51:53.726Z</time>
</trkpt>
<trkpt lat="31.2322300" lon="35.2372200">
<ele>533.779968</ele>
<time>2025-12-03T13:51:53.726Z</time>
</trkpt>
<trkpt lat="31.2322500" lon="35.2370800">
<ele>530.330017</ele>
<time>2025-12-03T13:51:53.726Z</time>
</trkpt>
<trkpt lat="31.2322500" lon="35.2369200">
<ele>527.290039</ele>
<time>2025-12-03T13:51:53.726Z</time>
</trkpt>
<trkpt lat="31.2322300" lon="35.2367700">
<ele>527.170044</ele>
<time>2025-12-03T13:51:53.726Z</time>
</trkpt>
<trkpt lat="31.2322000" lon="35.2366100">
<ele>527.710022</ele>
<time>2025-12-03T13:51:53.726Z</time>
</trkpt>
<trkpt lat="31.2321200" lon="35.2363800">
<ele>531.660034</ele>
<time>2025-12-03T13:51:53.726Z</time>
</trkpt>
<trkpt lat="31.2319900" lon="35.2361100">
<ele>537.019958</ele>
<time>2025-12-03T13:51:53.726Z</time>
</trkpt>
<trkpt lat="31.2319300" lon="35.2360200">
<ele>537.979980</ele>
<time>2025-12-03T13:51:53.726Z</time>
</trkpt>
<trkpt lat="31.2318400" lon="35.2358600">
<ele>536.609985</ele>
<time>2025-12-03T13:51:53.726Z</time>
</trkpt>
<trkpt lat="31.2319100" lon="35.2360700">
<ele>537.299988</ele>
<time>2025-12-03T13:51:53.726Z</time>
</trkpt>
<trkpt lat="31.2319400" lon="35.2362900">
<ele>536.589966</ele>
<time>2025-12-03T13:51:53.726Z</time>
</trkpt>
<trkpt lat="31.2319200" lon="35.2365100">
<ele>532.760010</ele>
<time>2025-12-03T13:51:53.726Z</time>
</trkpt>
<trkpt lat="31.2318900" lon="35.2367200">
<ele>528.320007</ele>
<time>2025-12-03T13:51:53.726Z</time>
</trkpt>
<trkpt lat="31.2318400" lon="35.2368200">
<ele>526.500000</ele>
<time>2025-12-03T13:51:53.726Z</time>
</trkpt>
<trkpt lat="31.2315500" lon="35.2371400">
<ele>522.239990</ele>
<time>2025-12-03T13:51:53.726Z</time>
</trkpt>
<trkpt lat="31.2315500" lon="35.2371400">
<ele>522.239990</ele>
<time>2025-12-03T13:51:53.726Z</time>
</trkpt>
<trkpt lat="31.2318400" lon="35.2368200">
<ele>526.500000</ele>
<time>2025-12-03T13:51:53.726Z</time>
</trkpt>
<trkpt lat="31.2318900" lon="35.2367200">
<ele>528.320007</ele>
<time>2025-12-03T13:51:53.726Z</time>
</trkpt>
<trkpt lat="31.2319200" lon="35.2365100">
<ele>532.760010</ele>
<time>2025-12-03T13:51:53.726Z</time>
</trkpt>
<trkpt lat="31.2319400" lon="35.2362900">
<ele>536.589966</ele>
<time>2025-12-03T13:51:53.726Z</time>
</trkpt>
<trkpt lat="31.2319100" lon="35.2360700">
<ele>537.299988</ele>
<time>2025-12-03T13:51:53.726Z</time>
</trkpt>
<trkpt lat="31.2318500" lon="35.2358900">
<ele>536.690002</ele>
<time>2025-12-03T13:51:53.726Z</time>
</trkpt>
<trkpt lat="31.2318500" lon="35.2358900">
<ele>536.690002</ele>
<time>2025-12-03T13:51:53.726Z</time>
</trkpt>
<trkpt lat="31.2318500" lon="35.2358900">
<ele>536.690002</ele>
<time>2025-12-03T13:51:53.726Z</time>
</trkpt>
<trkpt lat="31.2319100" lon="35.2360700">
<ele>537.299988</ele>
<time>2025-12-03T13:51:53.726Z</time>
</trkpt>
<trkpt lat="31.2319400" lon="35.2362900">
<ele>536.589966</ele>
<time>2025-12-03T13:51:53.726Z</time>
</trkpt>
<trkpt lat="31.2319200" lon="35.2365100">
<ele>532.760010</ele>
<time>2025-12-03T13:51:53.726Z</time>
</trkpt>
<trkpt lat="31.2318900" lon="35.2367200">
<ele>528.320007</ele>
<time>2025-12-03T13:51:53.726Z</time>
</trkpt>
<trkpt lat="31.2318400" lon="35.2368200">
<ele>526.500000</ele>
<time>2025-12-03T13:51:53.726Z</time>
</trkpt>
<trkpt lat="31.2312800" lon="35.2374500">
<ele>519.789978</ele>
<time>2025-12-03T13:51:53.726Z</time>
</trkpt>
<trkpt lat="31.2309200" lon="35.2379400">
<ele>514.400024</ele>
<time>2025-12-03T13:51:53.726Z</time>
</trkpt>
<trkpt lat="31.2308200" lon="35.2381700">
<ele>512.929993</ele>
<time>2025-12-03T13:51:53.726Z</time>
</trkpt>
<trkpt lat="31.2307700" lon="35.2384600">
<ele>511.179993</ele>
<time>2025-12-03T13:51:53.726Z</time>
</trkpt>
<trkpt lat="31.2308000" lon="35.2386600">
<ele>509.100006</ele>
<time>2025-12-03T13:51:53.726Z</time>
</trkpt>
<trkpt lat="31.2309000" lon="35.2388300">
<ele>507.569977</ele>
<time>2025-12-03T13:51:53.726Z</time>
</trkpt>
<trkpt lat="31.2312300" lon="35.2393200">
<ele>502.599976</ele>
<time>2025-12-03T13:51:53.726Z</time>
</trkpt>
<trkpt lat="31.2314000" lon="35.2394900">
<ele>500.500031</ele>
<time>2025-12-03T13:51:53.726Z</time>
</trkpt>
<trkpt lat="31.2314600" lon="35.2396200">
<ele>498.940002</ele>
<time>2025-12-03T13:51:53.726Z</time>
</trkpt>
<trkpt lat="31.2315200" lon="35.2399400">
<ele>493.929993</ele>
<time>2025-12-03T13:51:53.726Z</time>
</trkpt>
<trkpt lat="31.2315700" lon="35.2400500">
<ele>492.759979</ele>
<time>2025-12-03T13:51:53.726Z</time>
</trkpt>
<trkpt lat="31.2316500" lon="35.2402100">
<ele>492.230011</ele>
<time>2025-12-03T13:51:53.726Z</time>
</trkpt>
<trkpt lat="31.2319300" lon="35.2406600">
<ele>486.100006</ele>
<time>2025-12-03T13:51:53.726Z</time>
</trkpt>
<trkpt lat="31.2320100" lon="35.2407600">
<ele>482.730011</ele>
<time>2025-12-03T13:51:53.726Z</time>
</trkpt>
<trkpt lat="31.2321000" lon="35.2408400">
<ele>478.929993</ele>
<time>2025-12-03T13:51:53.726Z</time>
</trkpt>
<trkpt lat="31.2322500" lon="35.2409200">
<ele>474.229980</ele>
<time>2025-12-03T13:51:53.726Z</time>
</trkpt>
<trkpt lat="31.2325800" lon="35.2410300">
<ele>472.299988</ele>
<time>2025-12-03T13:51:53.726Z</time>
</trkpt>
<trkpt lat="31.2326400" lon="35.2410800">
<ele>471.990021</ele>
<time>2025-12-03T13:51:53.726Z</time>
</trkpt>
<trkpt lat="31.2326800" lon="35.2411700">
<ele>471.139984</ele>
<time>2025-12-03T13:51:53.726Z</time>
</trkpt>
<trkpt lat="31.2326900" lon="35.2412500">
<ele>470.289978</ele>
<time>2025-12-03T13:51:53.726Z</time>
</trkpt>
<trkpt lat="31.2326600" lon="35.2413400">
<ele>469.729980</ele>
<time>2025-12-03T13:51:53.726Z</time>
</trkpt>
<trkpt lat="31.2324800" lon="35.2415400">
<ele>469.179993</ele>
<time>2025-12-03T13:51:53.726Z</time>
</trkpt>
<trkpt lat="31.2322800" lon="35.2418200">
<ele>464.179993</ele>
<time>2025-12-03T13:51:53.726Z</time>
</trkpt>
<trkpt lat="31.2320800" lon="35.2421800">
<ele>460.949982</ele>
<time>2025-12-03T13:51:53.726Z</time>
</trkpt>
<trkpt lat="31.2319800" lon="35.2422900">
<ele>459.170013</ele>
<time>2025-12-03T13:51:53.726Z</time>
</trkpt>
<trkpt lat="31.2318500" lon="35.2423700">
<ele>455.890015</ele>
<time>2025-12-03T13:51:53.726Z</time>
</trkpt>
<trkpt lat="31.2317000" lon="35.2424000">
<ele>451.390015</ele>
<time>2025-12-03T13:51:53.726Z</time>
</trkpt>
<trkpt lat="31.2312300" lon="35.2424800">
<ele>441.739990</ele>
<time>2025-12-03T13:51:53.726Z</time>
</trkpt>
<trkpt lat="31.2311100" lon="35.2425100">
<ele>438.940002</ele>
<time>2025-12-03T13:51:53.726Z</time>
</trkpt>
<trkpt lat="31.2310400" lon="35.2425700">
<ele>437.529968</ele>
<time>2025-12-03T13:51:53.726Z</time>
</trkpt>
<trkpt lat="31.2309900" lon="35.2426800">
<ele>436.450012</ele>
<time>2025-12-03T13:51:53.726Z</time>
</trkpt>
<trkpt lat="31.2309800" lon="35.2428300">
<ele>435.750000</ele>
<time>2025-12-03T13:51:53.726Z</time>
</trkpt>
<trkpt lat="31.2310100" lon="35.2432100">
<ele>433.910004</ele>
<time>2025-12-03T13:51:53.726Z</time>
</trkpt>
<trkpt lat="31.2310100" lon="35.2441400">
<ele>421.139984</ele>
<time>2025-12-03T13:51:53.726Z</time>
</trkpt>
<trkpt lat="31.2310700" lon="35.2443600">
<ele>418.529999</ele>
<time>2025-12-03T13:51:53.726Z</time>
</trkpt>
<trkpt lat="31.2311900" lon="35.2446100">
<ele>414.459991</ele>
<time>2025-12-03T13:51:53.726Z</time>
</trkpt>
<trkpt lat="31.2312700" lon="35.2447300">
<ele>410.540009</ele>
<time>2025-12-03T13:51:53.726Z</time>
</trkpt>
<trkpt lat="31.2313700" lon="35.2448200">
<ele>407.160004</ele>
<time>2025-12-03T13:51:53.726Z</time>
</trkpt>
<trkpt lat="31.2314400" lon="35.2448500">
<ele>404.550018</ele>
<time>2025-12-03T13:51:53.726Z</time>
</trkpt>
<trkpt lat="31.2318400" lon="35.2449200">
<ele>396.760010</ele>
<time>2025-12-03T13:51:53.726Z</time>
</trkpt>
<trkpt lat="31.2319200" lon="35.2449100">
<ele>396.940002</ele>
<time>2025-12-03T13:51:53.726Z</time>
</trkpt>
<trkpt lat="31.2320400" lon="35.2448100">
<ele>398.160004</ele>
<time>2025-12-03T13:51:53.726Z</time>
</trkpt>
<trkpt lat="31.2321500" lon="35.2447800">
<ele>398.530029</ele>
<time>2025-12-03T13:51:53.726Z</time>
</trkpt>
<trkpt lat="31.2322400" lon="35.2448200">
<ele>398.170013</ele>
<time>2025-12-03T13:51:53.726Z</time>
</trkpt>
<trkpt lat="31.2325600" lon="35.2454000">
<ele>387.579987</ele>
<time>2025-12-03T13:51:53.726Z</time>
</trkpt>
<trkpt lat="31.2327200" lon="35.2455100">
<ele>384.970001</ele>
<time>2025-12-03T13:51:53.726Z</time>
</trkpt>
<trkpt lat="31.2328100" lon="35.2455100">
<ele>384.940002</ele>
<time>2025-12-03T13:51:53.726Z</time>
</trkpt>
<trkpt lat="31.2328900" lon="35.2455600">
<ele>383.140015</ele>
<time>2025-12-03T13:51:53.726Z</time>
</trkpt>
<trkpt lat="31.2329200" lon="35.2456500">
<ele>381.960022</ele>
<time>2025-12-03T13:51:53.726Z</time>
</trkpt>
<trkpt lat="31.2329100" lon="35.2457800">
<ele>380.590027</ele>
<time>2025-12-03T13:51:53.726Z</time>
</trkpt>
<trkpt lat="31.2328200" lon="35.2459700">
<ele>378.299988</ele>
<time>2025-12-03T13:51:53.726Z</time>
</trkpt>
<trkpt lat="31.2327500" lon="35.2460900">
<ele>377.009979</ele>
<time>2025-12-03T13:51:53.726Z</time>
</trkpt>
<trkpt lat="31.2326700" lon="35.2461700">
<ele>376.180023</ele>
<time>2025-12-03T13:51:53.726Z</time>
</trkpt>
<trkpt lat="31.2325600" lon="35.2462300">
<ele>375.679993</ele>
<time>2025-12-03T13:51:53.726Z</time>
</trkpt>
<trkpt lat="31.2317900" lon="35.2463500">
<ele>352.700012</ele>
<time>2025-12-03T13:51:53.726Z</time>
</trkpt>
<trkpt lat="31.2312100" lon="35.2463200">
<ele>348.529968</ele>
<time>2025-12-03T13:51:53.726Z</time>
</trkpt>
<trkpt lat="31.2305100" lon="35.2464900">
<ele>342.529999</ele>
<time>2025-12-03T13:51:53.726Z</time>
</trkpt>
<trkpt lat="31.2297600" lon="35.2465700">
<ele>350.610016</ele>
<time>2025-12-03T13:51:53.726Z</time>
</trkpt>
<trkpt lat="31.2295200" lon="35.2466400">
<ele>351.919983</ele>
<time>2025-12-03T13:51:53.726Z</time>
</trkpt>
<trkpt lat="31.2293900" lon="35.2467500">
<ele>351.980011</ele>
<time>2025-12-03T13:51:53.726Z</time>
</trkpt>
<trkpt lat="31.2291100" lon="35.2470800">
<ele>353.570007</ele>
<time>2025-12-03T13:51:53.726Z</time>
</trkpt>
<trkpt lat="31.2287600" lon="35.2472800">
<ele>346.619995</ele>
<time>2025-12-03T13:51:53.726Z</time>
</trkpt>
<trkpt lat="31.2285700" lon="35.2475000">
<ele>341.299988</ele>
<time>2025-12-03T13:51:53.726Z</time>
</trkpt>
<trkpt lat="31.2284800" lon="35.2476400">
<ele>341.679993</ele>
<time>2025-12-03T13:51:53.726Z</time>
</trkpt>
<trkpt lat="31.2284500" lon="35.2477500">
<ele>341.779999</ele>
<time>2025-12-03T13:51:53.726Z</time>
</trkpt>
<trkpt lat="31.2284600" lon="35.2478400">
<ele>341.959991</ele>
<time>2025-12-03T13:51:53.726Z</time>
</trkpt>
<trkpt lat="31.2286100" lon="35.2482800">
<ele>345.230011</ele>
<time>2025-12-03T13:51:53.726Z</time>
</trkpt>
<trkpt lat="31.2287100" lon="35.2484200">
<ele>342.100006</ele>
<time>2025-12-03T13:51:53.726Z</time>
</trkpt>
<trkpt lat="31.2289900" lon="35.2487100">
<ele>331.759979</ele>
<time>2025-12-03T13:51:53.726Z</time>
</trkpt>
<trkpt lat="31.2290700" lon="35.2488600">
<ele>327.910004</ele>
<time>2025-12-03T13:51:53.726Z</time>
</trkpt>
<trkpt lat="31.2291000" lon="35.2489900">
<ele>325.230011</ele>
<time>2025-12-03T13:51:53.726Z</time>
</trkpt>
<trkpt lat="31.2291100" lon="35.2491300">
<ele>322.649994</ele>
<time>2025-12-03T13:51:53.726Z</time>
</trkpt>
<trkpt lat="31.2291100" lon="35.2492800">
<ele>321.519989</ele>
<time>2025-12-03T13:51:53.726Z</time>
</trkpt>
<trkpt lat="31.2290900" lon="35.2493800">
<ele>321.109985</ele>
<time>2025-12-03T13:51:53.726Z</time>
</trkpt>
<trkpt lat="31.2290200" lon="35.2495600">
<ele>318.070007</ele>
<time>2025-12-03T13:51:53.726Z</time>
</trkpt>
<trkpt lat="31.2288500" lon="35.2498700">
<ele>318.349976</ele>
<time>2025-12-03T13:51:53.726Z</time>
</trkpt>
<trkpt lat="31.2287800" lon="35.2499300">
<ele>319.079987</ele>
<time>2025-12-03T13:51:53.726Z</time>
</trkpt>
<trkpt lat="31.2287200" lon="35.2501400">
<ele>320.130005</ele>
<time>2025-12-03T13:51:53.726Z</time>
</trkpt>
<trkpt lat="31.2287000" lon="35.2506300">
<ele>325.669983</ele>
<time>2025-12-03T13:51:53.726Z</time>
</trkpt>
<trkpt lat="31.2287800" lon="35.2510600">
<ele>324.330017</ele>
<time>2025-12-03T13:51:53.726Z</time>
</trkpt>
<trkpt lat="31.2288700" lon="35.2514800">
<ele>320.299988</ele>
<time>2025-12-03T13:51:53.726Z</time>
</trkpt>
<trkpt lat="31.2288600" lon="35.2516900">
<ele>320.140015</ele>
<time>2025-12-03T13:51:53.726Z</time>
</trkpt>
<trkpt lat="31.2287700" lon="35.2520400">
<ele>318.200012</ele>
<time>2025-12-03T13:51:53.726Z</time>
</trkpt>
<trkpt lat="31.2287600" lon="35.2526300">
<ele>313.139984</ele>
<time>2025-12-03T13:51:53.726Z</time>
</trkpt>
<trkpt lat="31.2286600" lon="35.2532100">
<ele>311.809998</ele>
<time>2025-12-03T13:51:53.726Z</time>
</trkpt>
<trkpt lat="31.2286600" lon="35.2533600">
<ele>310.899994</ele>
<time>2025-12-03T13:51:53.726Z</time>
</trkpt>
<trkpt lat="31.2286800" lon="35.2534500">
<ele>310.579987</ele>
<time>2025-12-03T13:51:53.726Z</time>
</trkpt>
<trkpt lat="31.2289000" lon="35.2535600">
<ele>310.269989</ele>
<time>2025-12-03T13:51:53.726Z</time>
</trkpt>
<trkpt lat="31.2291500" lon="35.2536100">
<ele>311.890015</ele>
<time>2025-12-03T13:51:53.726Z</time>
</trkpt>
<trkpt lat="31.2293400" lon="35.2536900">
<ele>312.799988</ele>
<time>2025-12-03T13:51:53.726Z</time>
</trkpt>
<trkpt lat="31.2295000" lon="35.2538100">
<ele>314.230011</ele>
<time>2025-12-03T13:51:53.726Z</time>
</trkpt>
<trkpt lat="31.2303800" lon="35.2549300">
<ele>314.880005</ele>
<time>2025-12-03T13:51:53.726Z</time>
</trkpt>
<trkpt lat="31.2312800" lon="35.2557900">
<ele>311.950012</ele>
<time>2025-12-03T13:51:53.726Z</time>
</trkpt>
<trkpt lat="31.2315400" lon="35.2559500">
<ele>310.979980</ele>
<time>2025-12-03T13:51:53.726Z</time>
</trkpt>
<trkpt lat="31.2332300" lon="35.2576200">
<ele>304.929993</ele>
<time>2025-12-03T13:51:53.726Z</time>
</trkpt>
<trkpt lat="31.2333600" lon="35.2576800">
<ele>306.860016</ele>
<time>2025-12-03T13:51:53.726Z</time>
</trkpt>
<trkpt lat="31.2335700" lon="35.2577100">
<ele>304.369995</ele>
<time>2025-12-03T13:51:53.726Z</time>
</trkpt>
<trkpt lat="31.2339400" lon="35.2577100">
<ele>296.860016</ele>
<time>2025-12-03T13:51:53.726Z</time>
</trkpt>
<trkpt lat="31.2342600" lon="35.2574900">
<ele>293.660004</ele>
<time>2025-12-03T13:51:53.726Z</time>
</trkpt>
<trkpt lat="31.2350400" lon="35.2565500">
<ele>303.500000</ele>
<time>2025-12-03T13:51:53.726Z</time>
</trkpt>
<trkpt lat="31.2349700" lon="35.2567500">
<ele>302.570007</ele>
<time>2025-12-03T13:51:53.726Z</time>
</trkpt>
<trkpt lat="31.2349700" lon="35.2567500">
<ele>302.570007</ele>
<time>2025-12-03T13:51:53.726Z</time>
</trkpt>
<trkpt lat="31.2349700" lon="35.2567500">
<ele>302.570007</ele>
<time>2025-12-03T13:51:53.726Z</time>
</trkpt>
<trkpt lat="31.2349000" lon="35.2569500">
<ele>301.589996</ele>
<time>2025-12-03T13:51:53.726Z</time>
</trkpt>
<trkpt lat="31.2347800" lon="35.2572900">
<ele>300.740021</ele>
<time>2025-12-03T13:51:53.726Z</time>
</trkpt>
<trkpt lat="31.2347800" lon="35.2572900">
<ele>300.740021</ele>
<time>2025-12-03T13:51:53.726Z</time>
</trkpt>
<trkpt lat="31.2346900" lon="35.2575500">
<ele>300.399994</ele>
<time>2025-12-03T13:51:53.726Z</time>
</trkpt>
<trkpt lat="31.2346600" lon="35.2580700">
<ele>297.679993</ele>
<time>2025-12-03T13:51:53.726Z</time>
</trkpt>
<trkpt lat="31.2347400" lon="35.2582900">
<ele>296.339996</ele>
<time>2025-12-03T13:51:53.726Z</time>
</trkpt>
<trkpt lat="31.2348100" lon="35.2583800">
<ele>295.829987</ele>
<time>2025-12-03T13:51:53.726Z</time>
</trkpt>
<trkpt lat="31.2348600" lon="35.2585800">
<ele>295.110016</ele>
<time>2025-12-03T13:51:53.726Z</time>
</trkpt>
<trkpt lat="31.2348700" lon="35.2586500">
<ele>294.869995</ele>
<time>2025-12-03T13:51:53.726Z</time>
</trkpt>
<trkpt lat="31.2348800" lon="35.2586400">
<ele>294.910004</ele>
<time>2025-12-03T13:51:53.726Z</time>
</trkpt>
<trkpt lat="31.2348700" lon="35.2586500">
<ele>294.869995</ele>
<time>2025-12-03T13:51:53.726Z</time>
</trkpt>
<trkpt lat="31.2349200" lon="35.2590100">
<ele>294.420013</ele>
<time>2025-12-03T13:51:53.726Z</time>
</trkpt>
<trkpt lat="31.2349600" lon="35.2593000">
<ele>294.300018</ele>
<time>2025-12-03T13:51:53.726Z</time>
</trkpt>
<trkpt lat="31.2351200" lon="35.2598900">
<ele>290.790009</ele>
<time>2025-12-03T13:51:53.726Z</time>
</trkpt>
<trkpt lat="31.2351200" lon="35.2601800">
<ele>291.220001</ele>
<time>2025-12-03T13:51:53.726Z</time>
</trkpt>
<trkpt lat="31.2351700" lon="35.2603700">
<ele>292.769989</ele>
<time>2025-12-03T13:51:53.726Z</time>
</trkpt>
<trkpt lat="31.2352700" lon="35.2605400">
<ele>293.940002</ele>
<time>2025-12-03T13:51:53.726Z</time>
</trkpt>
<trkpt lat="31.2353900" lon="35.2606700">
<ele>295.799988</ele>
<time>2025-12-03T13:51:53.726Z</time>
</trkpt>
<trkpt lat="31.2355300" lon="35.2608500">
<ele>296.229980</ele>
<time>2025-12-03T13:51:53.726Z</time>
</trkpt>
<trkpt lat="31.2356200" lon="35.2609900">
<ele>293.680023</ele>
<time>2025-12-03T13:51:53.726Z</time>
</trkpt>
<trkpt lat="31.2357000" lon="35.2611900">
<ele>290.850006</ele>
<time>2025-12-03T13:51:53.726Z</time>
</trkpt>
<trkpt lat="31.2358200" lon="35.2615700">
<ele>289.529999</ele>
<time>2025-12-03T13:51:53.726Z</time>
</trkpt>
<trkpt lat="31.2359200" lon="35.2619800">
<ele>291.279999</ele>
<time>2025-12-03T13:51:53.726Z</time>
</trkpt>
<trkpt lat="31.2360800" lon="35.2625400">
<ele>289.579987</ele>
<time>2025-12-03T13:51:53.726Z</time>
</trkpt>
<trkpt lat="31.2362400" lon="35.2629600">
<ele>289.079987</ele>
<time>2025-12-03T13:51:53.726Z</time>
</trkpt>
<trkpt lat="31.2363400" lon="35.2632500">
<ele>289.350006</ele>
<time>2025-12-03T13:51:53.726Z</time>
</trkpt>
<trkpt lat="31.2366700" lon="35.2639300">
<ele>290.779999</ele>
<time>2025-12-03T13:51:53.726Z</time>
</trkpt>
<trkpt lat="31.2368100" lon="35.2641700">
<ele>286.869995</ele>
<time>2025-12-03T13:51:53.726Z</time>
</trkpt>
<trkpt lat="31.2368900" lon="35.2643700">
<ele>283.570007</ele>
<time>2025-12-03T13:51:53.726Z</time>
</trkpt>
<trkpt lat="31.2369300" lon="35.2645100">
<ele>281.520020</ele>
<time>2025-12-03T13:51:53.726Z</time>
</trkpt>
<trkpt lat="31.2369800" lon="35.2648300">
<ele>278.480011</ele>
<time>2025-12-03T13:51:53.726Z</time>
</trkpt>
<trkpt lat="31.2370100" lon="35.2652000">
<ele>276.869995</ele>
<time>2025-12-03T13:51:53.726Z</time>
</trkpt>
<trkpt lat="31.2370900" lon="35.2655200">
<ele>274.709991</ele>
<time>2025-12-03T13:51:53.726Z</time>
</trkpt>
<trkpt lat="31.2372400" lon="35.2657700">
<ele>275.740021</ele>
<time>2025-12-03T13:51:53.726Z</time>
</trkpt>
<trkpt lat="31.2374100" lon="35.2659600">
<ele>275.480011</ele>
<time>2025-12-03T13:51:53.726Z</time>
</trkpt>
<trkpt lat="31.2375200" lon="35.2662800">
<ele>275.809998</ele>
<time>2025-12-03T13:51:53.726Z</time>
</trkpt>
<trkpt lat="31.2376000" lon="35.2665200">
<ele>274.200012</ele>
<time>2025-12-03T13:51:53.726Z</time>
</trkpt>
<trkpt lat="31.2376000" lon="35.2667700">
<ele>274.630005</ele>
<time>2025-12-03T13:51:53.726Z</time>
</trkpt>
<trkpt lat="31.2375900" lon="35.2670100">
<ele>275.790009</ele>
<time>2025-12-03T13:51:53.726Z</time>
</trkpt>
<trkpt lat="31.2376000" lon="35.2671800">
<ele>277.119995</ele>
<time>2025-12-03T13:51:53.726Z</time>
</trkpt>
<trkpt lat="31.2376200" lon="35.2678000">
<ele>279.489990</ele>
<time>2025-12-03T13:51:53.726Z</time>
</trkpt>
<trkpt lat="31.2375900" lon="35.2679000">
<ele>279.989990</ele>
<time>2025-12-03T13:51:53.726Z</time>
</trkpt>
<trkpt lat="31.2375400" lon="35.2679900">
<ele>280.070007</ele>
<time>2025-12-03T13:51:53.726Z</time>
</trkpt>
<trkpt lat="31.2372800" lon="35.2683400">
<ele>279.049988</ele>
<time>2025-12-03T13:51:53.726Z</time>
</trkpt>
<trkpt lat="31.2370800" lon="35.2686600">
<ele>273.899994</ele>
<time>2025-12-03T13:51:53.726Z</time>
</trkpt>
<trkpt lat="31.2369700" lon="35.2689400">
<ele>265.910004</ele>
<time>2025-12-03T13:51:53.726Z</time>
</trkpt>
<trkpt lat="31.2364700" lon="35.2696800">
<ele>266.570007</ele>
<time>2025-12-03T13:51:53.726Z</time>
</trkpt>
<trkpt lat="31.2362700" lon="35.2698800">
<ele>266.470001</ele>
<time>2025-12-03T13:51:53.726Z</time>
</trkpt>
<trkpt lat="31.2361600" lon="35.2700700">
<ele>267.029999</ele>
<time>2025-12-03T13:51:53.726Z</time>
</trkpt>
<trkpt lat="31.2359500" lon="35.2703500">
<ele>267.989990</ele>
<time>2025-12-03T13:51:53.726Z</time>
</trkpt>
<trkpt lat="31.2353200" lon="35.2709000">
<ele>270.720001</ele>
<time>2025-12-03T13:51:53.726Z</time>
</trkpt>
<trkpt lat="31.2351500" lon="35.2711100">
<ele>271.610016</ele>
<time>2025-12-03T13:51:53.726Z</time>
</trkpt>
<trkpt lat="31.2350000" lon="35.2714100">
<ele>274.079987</ele>
<time>2025-12-03T13:51:53.726Z</time>
</trkpt>
<trkpt lat="31.2349000" lon="35.2716700">
<ele>271.779999</ele>
<time>2025-12-03T13:51:53.726Z</time>
</trkpt>
<trkpt lat="31.2348800" lon="35.2717900">
<ele>271.940002</ele>
<time>2025-12-03T13:51:53.726Z</time>
</trkpt>
<trkpt lat="31.2348900" lon="35.2719100">
<ele>273.010010</ele>
<time>2025-12-03T13:51:53.726Z</time>
</trkpt>
<trkpt lat="31.2349700" lon="35.2721800">
<ele>275.519989</ele>
<time>2025-12-03T13:51:53.726Z</time>
</trkpt>
<trkpt lat="31.2350600" lon="35.2726400">
<ele>275.190002</ele>
<time>2025-12-03T13:51:53.726Z</time>
</trkpt>
<trkpt lat="31.2352400" lon="35.2731400">
<ele>275.229980</ele>
<time>2025-12-03T13:51:53.726Z</time>
</trkpt>
<trkpt lat="31.2352700" lon="35.2733900">
<ele>274.559998</ele>
<time>2025-12-03T13:51:53.726Z</time>
</trkpt>
<trkpt lat="31.2352400" lon="35.2737700">
<ele>278.380005</ele>
<time>2025-12-03T13:51:53.726Z</time>
</trkpt>
<trkpt lat="31.2351600" lon="35.2741400">
<ele>282.559998</ele>
<time>2025-12-03T13:51:53.726Z</time>
</trkpt>
<trkpt lat="31.2350800" lon="35.2743800">
<ele>280.350006</ele>
<time>2025-12-03T13:51:53.726Z</time>
</trkpt>
<trkpt lat="31.2349800" lon="35.2746100">
<ele>276.649994</ele>
<time>2025-12-03T13:51:53.726Z</time>
</trkpt>
<trkpt lat="31.2349100" lon="35.2747300">
<ele>274.930023</ele>
<time>2025-12-03T13:51:53.726Z</time>
</trkpt>
<trkpt lat="31.2349200" lon="35.2747400">
<ele>274.899994</ele>
<time>2025-12-03T13:51:53.726Z</time>
</trkpt>
<trkpt lat="31.2349100" lon="35.2747300">
<ele>274.930023</ele>
<time>2025-12-03T13:51:53.726Z</time>
</trkpt>
<trkpt lat="31.2348100" lon="35.2749200">
<ele>271.589996</ele>
<time>2025-12-03T13:51:53.726Z</time>
</trkpt>
<trkpt lat="31.2346600" lon="35.2750300">
<ele>270.459991</ele>
<time>2025-12-03T13:51:53.726Z</time>
</trkpt>
<trkpt lat="31.2346000" lon="35.2751000">
<ele>270.320007</ele>
<time>2025-12-03T13:51:53.726Z</time>
</trkpt>
<trkpt lat="31.2344900" lon="35.2753000">
<ele>269.020020</ele>
<time>2025-12-03T13:51:53.726Z</time>
</trkpt>
<trkpt lat="31.2340500" lon="35.2756900">
<ele>264.880005</ele>
<time>2025-12-03T13:51:53.726Z</time>
</trkpt>
<trkpt lat="31.2338100" lon="35.2759600">
<ele>261.529999</ele>
<time>2025-12-03T13:51:53.726Z</time>
</trkpt>
<trkpt lat="31.2337400" lon="35.2761300">
<ele>260.559998</ele>
<time>2025-12-03T13:51:53.726Z</time>
</trkpt>
<trkpt lat="31.2336400" lon="35.2762300">
<ele>260.600006</ele>
<time>2025-12-03T13:51:53.726Z</time>
</trkpt>
<trkpt lat="31.2334300" lon="35.2764100">
<ele>262.089996</ele>
<time>2025-12-03T13:51:53.726Z</time>
</trkpt>
<trkpt lat="31.2331000" lon="35.2767600">
<ele>264.829987</ele>
<time>2025-12-03T13:51:53.726Z</time>
</trkpt>
<trkpt lat="31.2326700" lon="35.2772900">
<ele>259.040009</ele>
<time>2025-12-03T13:51:53.726Z</time>
</trkpt>
<trkpt lat="31.2325700" lon="35.2774900">
<ele>257.600006</ele>
<time>2025-12-03T13:51:53.726Z</time>
</trkpt>
<trkpt lat="31.2325100" lon="35.2776300">
<ele>256.990021</ele>
<time>2025-12-03T13:51:53.726Z</time>
</trkpt>
<trkpt lat="31.2323800" lon="35.2781400">
<ele>252.830002</ele>
<time>2025-12-03T13:51:53.726Z</time>
</trkpt>
<trkpt lat="31.2322800" lon="35.2783600">
<ele>250.550003</ele>
<time>2025-12-03T13:51:53.726Z</time>
</trkpt>
<trkpt lat="31.2322000" lon="35.2784700">
<ele>251.110001</ele>
<time>2025-12-03T13:51:53.726Z</time>
</trkpt>
<trkpt lat="31.2318900" lon="35.2788600">
<ele>251.429993</ele>
<time>2025-12-03T13:51:53.726Z</time>
</trkpt>
<trkpt lat="31.2317100" lon="35.2790000">
<ele>252.940002</ele>
<time>2025-12-03T13:51:53.726Z</time>
</trkpt>
<trkpt lat="31.2314500" lon="35.2793000">
<ele>251.770004</ele>
<time>2025-12-03T13:51:53.726Z</time>
</trkpt>
<trkpt lat="31.2313200" lon="35.2793800">
<ele>250.700012</ele>
<time>2025-12-03T13:51:53.726Z</time>
</trkpt>
<trkpt lat="31.2311900" lon="35.2794100">
<ele>250.369995</ele>
<time>2025-12-03T13:51:53.726Z</time>
</trkpt>
<trkpt lat="31.2310200" lon="35.2793800">
<ele>250.619995</ele>
<time>2025-12-03T13:51:53.726Z</time>
</trkpt>
<trkpt lat="31.2308400" lon="35.2793900">
<ele>250.400009</ele>
<time>2025-12-03T13:51:53.726Z</time>
</trkpt>
<trkpt lat="31.2306500" lon="35.2793500">
<ele>250.899994</ele>
<time>2025-12-03T13:51:53.726Z</time>
</trkpt>
<trkpt lat="31.2305900" lon="35.2793400">
<ele>251.080002</ele>
<time>2025-12-03T13:51:53.726Z</time>
</trkpt>
<trkpt lat="31.2305100" lon="35.2793700">
<ele>250.149994</ele>
<time>2025-12-03T13:51:53.726Z</time>
</trkpt>
<trkpt lat="31.2304600" lon="35.2794600">
<ele>248.550003</ele>
<time>2025-12-03T13:51:53.726Z</time>
</trkpt>
<trkpt lat="31.2304000" lon="35.2795800">
<ele>247.000000</ele>
<time>2025-12-03T13:51:53.726Z</time>
</trkpt>
<trkpt lat="31.2303800" lon="35.2797100">
<ele>245.909988</ele>
<time>2025-12-03T13:51:53.726Z</time>
</trkpt>
<trkpt lat="31.2303100" lon="35.2799800">
<ele>243.539993</ele>
<time>2025-12-03T13:51:53.726Z</time>
</trkpt>
<trkpt lat="31.2303300" lon="35.2802200">
<ele>242.959991</ele>
<time>2025-12-03T13:51:53.726Z</time>
</trkpt>
<trkpt lat="31.2303000" lon="35.2802900">
<ele>242.190002</ele>
<time>2025-12-03T13:51:53.726Z</time>
</trkpt>
<trkpt lat="31.2302400" lon="35.2803300">
<ele>240.649994</ele>
<time>2025-12-03T13:51:53.726Z</time>
</trkpt>
<trkpt lat="31.2300000" lon="35.2804300">
<ele>234.900009</ele>
<time>2025-12-03T13:51:53.726Z</time>
</trkpt>
<trkpt lat="31.2297700" lon="35.2806000">
<ele>234.509995</ele>
<time>2025-12-03T13:51:53.726Z</time>
</trkpt>
<trkpt lat="31.2296500" lon="35.2806100">
<ele>234.450012</ele>
<time>2025-12-03T13:51:53.726Z</time>
</trkpt>
<trkpt lat="31.2294700" lon="35.2805400">
<ele>234.199997</ele>
<time>2025-12-03T13:51:53.726Z</time>
</trkpt>
<trkpt lat="31.2293800" lon="35.2805300">
<ele>234.880005</ele>
<time>2025-12-03T13:51:53.726Z</time>
</trkpt>
<trkpt lat="31.2293400" lon="35.2805900">
<ele>235.030014</ele>
<time>2025-12-03T13:51:53.726Z</time>
</trkpt>
<trkpt lat="31.2293200" lon="35.2806400">
<ele>235.070007</ele>
<time>2025-12-03T13:51:53.726Z</time>
</trkpt>
<trkpt lat="31.2293100" lon="35.2806800">
<ele>235.020004</ele>
<time>2025-12-03T13:51:53.726Z</time>
</trkpt>
<trkpt lat="31.2293100" lon="35.2809000">
<ele>234.250000</ele>
<time>2025-12-03T13:51:53.726Z</time>
</trkpt>
<trkpt lat="31.2293000" lon="35.2810600">
<ele>233.669998</ele>
<time>2025-12-03T13:51:53.726Z</time>
</trkpt>
<trkpt lat="31.2292200" lon="35.2811500">
<ele>233.309998</ele>
<time>2025-12-03T13:51:53.726Z</time>
</trkpt>
<trkpt lat="31.2290000" lon="35.2812400">
<ele>234.710007</ele>
<time>2025-12-03T13:51:53.726Z</time>
</trkpt>
<trkpt lat="31.2288900" lon="35.2814000">
<ele>234.919998</ele>
<time>2025-12-03T13:51:53.726Z</time>
</trkpt>
<trkpt lat="31.2288800" lon="35.2814800">
<ele>234.450012</ele>
<time>2025-12-03T13:51:53.726Z</time>
</trkpt>
<trkpt lat="31.2288900" lon="35.2815700">
<ele>233.690002</ele>
<time>2025-12-03T13:51:53.726Z</time>
</trkpt>
<trkpt lat="31.2289500" lon="35.2818700">
<ele>231.370010</ele>
<time>2025-12-03T13:51:53.726Z</time>
</trkpt>
<trkpt lat="31.2289800" lon="35.2821600">
<ele>229.389999</ele>
<time>2025-12-03T13:51:53.726Z</time>
</trkpt>
<trkpt lat="31.2290900" lon="35.2823100">
<ele>227.419998</ele>
<time>2025-12-03T13:51:53.726Z</time>
</trkpt>
<trkpt lat="31.2292500" lon="35.2823800">
<ele>226.089996</ele>
<time>2025-12-03T13:51:53.726Z</time>
</trkpt>
<trkpt lat="31.2293300" lon="35.2825100">
<ele>224.840012</ele>
<time>2025-12-03T13:51:53.726Z</time>
</trkpt>
<trkpt lat="31.2293700" lon="35.2826400">
<ele>224.670013</ele>
<time>2025-12-03T13:51:53.726Z</time>
</trkpt>
<trkpt lat="31.2293300" lon="35.2828300">
<ele>225.460007</ele>
<time>2025-12-03T13:51:53.726Z</time>
</trkpt>
<trkpt lat="31.2292700" lon="35.2831400">
<ele>226.440002</ele>
<time>2025-12-03T13:51:53.726Z</time>
</trkpt>
<trkpt lat="31.2292500" lon="35.2834100">
<ele>225.559998</ele>
<time>2025-12-03T13:51:53.726Z</time>
</trkpt>
<trkpt lat="31.2291900" lon="35.2836100">
<ele>224.840012</ele>
<time>2025-12-03T13:51:53.726Z</time>
</trkpt>
<trkpt lat="31.2291700" lon="35.2838900">
<ele>222.980011</ele>
<time>2025-12-03T13:51:53.726Z</time>
</trkpt>
<trkpt lat="31.2291000" lon="35.2842400">
<ele>221.500000</ele>
<time>2025-12-03T13:51:53.726Z</time>
</trkpt>
<trkpt lat="31.2290200" lon="35.2847900">
<ele>218.729996</ele>
<time>2025-12-03T13:51:53.726Z</time>
</trkpt>
<trkpt lat="31.2289600" lon="35.2851900">
<ele>215.069992</ele>
<time>2025-12-03T13:51:53.726Z</time>
</trkpt>
<trkpt lat="31.2287000" lon="35.2859100">
<ele>213.399994</ele>
<time>2025-12-03T13:51:53.726Z</time>
</trkpt>
<trkpt lat="31.2286000" lon="35.2860700">
<ele>213.339996</ele>
<time>2025-12-03T13:51:53.726Z</time>
</trkpt>
<trkpt lat="31.2284500" lon="35.2867300">
<ele>216.059998</ele>
<time>2025-12-03T13:51:53.726Z</time>
</trkpt>
<trkpt lat="31.2282800" lon="35.2874800">
<ele>218.389999</ele>
<time>2025-12-03T13:51:53.726Z</time>
</trkpt>
<trkpt lat="31.2280700" lon="35.2876500">
<ele>216.639999</ele>
<time>2025-12-03T13:51:53.726Z</time>
</trkpt>
<trkpt lat="31.2279700" lon="35.2881800">
<ele>218.910004</ele>
<time>2025-12-03T13:51:53.726Z</time>
</trkpt>
<trkpt lat="31.2278600" lon="35.2884600">
<ele>216.699997</ele>
<time>2025-12-03T13:51:53.726Z</time>
</trkpt>
<trkpt lat="31.2278100" lon="35.2887400">
<ele>214.429993</ele>
<time>2025-12-03T13:51:53.726Z</time>
</trkpt>
<trkpt lat="31.2276500" lon="35.2890000">
<ele>212.369995</ele>
<time>2025-12-03T13:51:53.726Z</time>
</trkpt>
<trkpt lat="31.2274200" lon="35.2895300">
<ele>211.829987</ele>
<time>2025-12-03T13:51:53.726Z</time>
</trkpt>
<trkpt lat="31.2273100" lon="35.2901800">
<ele>205.910004</ele>
<time>2025-12-03T13:51:53.726Z</time>
</trkpt>
<trkpt lat="31.2270600" lon="35.2906300">
<ele>206.220001</ele>
<time>2025-12-03T13:51:53.726Z</time>
</trkpt>
<trkpt lat="31.2267300" lon="35.2909900">
<ele>204.050003</ele>
<time>2025-12-03T13:51:53.726Z</time>
</trkpt>
<trkpt lat="31.2264400" lon="35.2915100">
<ele>200.630005</ele>
<time>2025-12-03T13:51:53.726Z</time>
</trkpt>
<trkpt lat="31.2262900" lon="35.2918100">
<ele>198.049988</ele>
<time>2025-12-03T13:51:53.726Z</time>
</trkpt>
<trkpt lat="31.2259900" lon="35.2921300">
<ele>195.479996</ele>
<time>2025-12-03T13:51:53.726Z</time>
</trkpt>
<trkpt lat="31.2258100" lon="35.2925600">
<ele>192.979996</ele>
<time>2025-12-03T13:51:53.726Z</time>
</trkpt>
<trkpt lat="31.2258100" lon="35.2929900">
<ele>191.940002</ele>
<time>2025-12-03T13:51:53.726Z</time>
</trkpt>
<trkpt lat="31.2257800" lon="35.2931400">
<ele>192.600006</ele>
<time>2025-12-03T13:51:53.726Z</time>
</trkpt>
<trkpt lat="31.2257400" lon="35.2932900">
<ele>193.630005</ele>
<time>2025-12-03T13:51:53.726Z</time>
</trkpt>
<trkpt lat="31.2255500" lon="35.2935600">
<ele>192.869995</ele>
<time>2025-12-03T13:51:53.726Z</time>
</trkpt>
<trkpt lat="31.2254500" lon="35.2939800">
<ele>191.479996</ele>
<time>2025-12-03T13:51:53.726Z</time>
</trkpt>
<trkpt lat="31.2255000" lon="35.2942500">
<ele>189.059998</ele>
<time>2025-12-03T13:51:53.726Z</time>
</trkpt>
<trkpt lat="31.2254800" lon="35.2944600">
<ele>187.940002</ele>
<time>2025-12-03T13:51:53.726Z</time>
</trkpt>
<trkpt lat="31.2253700" lon="35.2946000">
<ele>188.370010</ele>
<time>2025-12-03T13:51:53.726Z</time>
</trkpt>
<trkpt lat="31.2247000" lon="35.2952500">
<ele>188.660004</ele>
<time>2025-12-03T13:51:53.726Z</time>
</trkpt>
<trkpt lat="31.2246400" lon="35.2953000">
<ele>188.459991</ele>
<time>2025-12-03T13:51:53.726Z</time>
</trkpt>
<trkpt lat="31.2244500" lon="35.2952800">
<ele>187.040009</ele>
<time>2025-12-03T13:51:53.726Z</time>
</trkpt>
<trkpt lat="31.2243300" lon="35.2953200">
<ele>185.229996</ele>
<time>2025-12-03T13:51:53.726Z</time>
</trkpt>
<trkpt lat="31.2240100" lon="35.2954500">
<ele>181.699997</ele>
<time>2025-12-03T13:51:53.726Z</time>
</trkpt>
<trkpt lat="31.2238900" lon="35.2954700">
<ele>181.159988</ele>
<time>2025-12-03T13:51:53.726Z</time>
</trkpt>
<trkpt lat="31.2237400" lon="35.2954000">
<ele>183.989990</ele>
<time>2025-12-03T13:51:53.726Z</time>
</trkpt>
<trkpt lat="31.2236400" lon="35.2953000">
<ele>187.230011</ele>
<time>2025-12-03T13:51:53.726Z</time>
</trkpt>
<trkpt lat="31.2236000" lon="35.2951600">
<ele>190.060013</ele>
<time>2025-12-03T13:51:53.726Z</time>
</trkpt>
<trkpt lat="31.2235900" lon="35.2949200">
<ele>194.290009</ele>
<time>2025-12-03T13:51:53.726Z</time>
</trkpt>
<trkpt lat="31.2235300" lon="35.2948600">
<ele>194.940002</ele>
<time>2025-12-03T13:51:53.726Z</time>
</trkpt>
<trkpt lat="31.2234500" lon="35.2949100">
<ele>193.460007</ele>
<time>2025-12-03T13:51:53.726Z</time>
</trkpt>
<trkpt lat="31.2233400" lon="35.2949300">
<ele>192.309998</ele>
<time>2025-12-03T13:51:53.726Z</time>
</trkpt>
<trkpt lat="31.2232600" lon="35.2948900">
<ele>192.770004</ele>
<time>2025-12-03T13:51:53.726Z</time>
</trkpt>
<trkpt lat="31.2231400" lon="35.2946300">
<ele>194.940002</ele>
<time>2025-12-03T13:51:53.726Z</time>
</trkpt>
<trkpt lat="31.2230800" lon="35.2945600">
<ele>194.759995</ele>
<time>2025-12-03T13:51:53.726Z</time>
</trkpt>
<trkpt lat="31.2230000" lon="35.2945600">
<ele>194.069992</ele>
<time>2025-12-03T13:51:53.726Z</time>
</trkpt>
<trkpt lat="31.2228500" lon="35.2945900">
<ele>192.639999</ele>
<time>2025-12-03T13:51:53.726Z</time>
</trkpt>
<trkpt lat="31.2226900" lon="35.2947200">
<ele>191.380005</ele>
<time>2025-12-03T13:51:53.726Z</time>
</trkpt>
<trkpt lat="31.2225500" lon="35.2948400">
<ele>189.089996</ele>
<time>2025-12-03T13:51:53.726Z</time>
</trkpt>
<trkpt lat="31.2224900" lon="35.2949900">
<ele>187.360001</ele>
<time>2025-12-03T13:51:53.726Z</time>
</trkpt>
<trkpt lat="31.2224800" lon="35.2952500">
<ele>186.669998</ele>
<time>2025-12-03T13:51:53.726Z</time>
</trkpt>
<trkpt lat="31.2223700" lon="35.2954800">
<ele>190.469986</ele>
<time>2025-12-03T13:51:53.726Z</time>
</trkpt>
<trkpt lat="31.2223700" lon="35.2954800">
<ele>190.469986</ele>
<time>2025-12-03T13:51:53.726Z</time>
</trkpt>
<trkpt lat="31.2223600" lon="35.2956000">
<ele>191.190002</ele>
<time>2025-12-03T13:51:53.726Z</time>
</trkpt>
<trkpt lat="31.2224700" lon="35.2958700">
<ele>189.770004</ele>
<time>2025-12-03T13:51:53.726Z</time>
</trkpt>
<trkpt lat="31.2225400" lon="35.2961500">
<ele>189.089996</ele>
<time>2025-12-03T13:51:53.726Z</time>
</trkpt>
<trkpt lat="31.2225000" lon="35.2964200">
<ele>190.889999</ele>
<time>2025-12-03T13:51:53.726Z</time>
</trkpt>
<trkpt lat="31.2225000" lon="35.2966600">
<ele>190.019989</ele>
<time>2025-12-03T13:51:53.726Z</time>
</trkpt>
<trkpt lat="31.2223800" lon="35.2970100">
<ele>191.020004</ele>
<time>2025-12-03T13:51:53.726Z</time>
</trkpt>
<trkpt lat="31.2223200" lon="35.2973800">
<ele>186.720001</ele>
<time>2025-12-03T13:51:53.726Z</time>
</trkpt>
<trkpt lat="31.2221800" lon="35.2977200">
<ele>184.320007</ele>
<time>2025-12-03T13:51:53.726Z</time>
</trkpt>
<trkpt lat="31.2221500" lon="35.2978800">
<ele>182.639999</ele>
<time>2025-12-03T13:51:53.726Z</time>
</trkpt>
<trkpt lat="31.2221700" lon="35.2984500">
<ele>179.110001</ele>
<time>2025-12-03T13:51:53.726Z</time>
</trkpt>
<trkpt lat="31.2221500" lon="35.2992100">
<ele>168.849991</ele>
<time>2025-12-03T13:51:53.726Z</time>
</trkpt>
<trkpt lat="31.2220800" lon="35.2995600">
<ele>170.430008</ele>
<time>2025-12-03T13:51:53.726Z</time>
</trkpt>
<trkpt lat="31.2220900" lon="35.3003800">
<ele>176.980011</ele>
<time>2025-12-03T13:51:53.726Z</time>
</trkpt>
<trkpt lat="31.2222100" lon="35.3006900">
<ele>180.830002</ele>
<time>2025-12-03T13:51:53.726Z</time>
</trkpt>
<trkpt lat="31.2223200" lon="35.3009800">
<ele>180.510010</ele>
<time>2025-12-03T13:51:53.726Z</time>
</trkpt>
<trkpt lat="31.2224000" lon="35.3014300">
<ele>183.220001</ele>
<time>2025-12-03T13:51:53.726Z</time>
</trkpt>
<trkpt lat="31.2225100" lon="35.3017000">
<ele>186.189987</ele>
<time>2025-12-03T13:51:53.726Z</time>
</trkpt>
<trkpt lat="31.2226500" lon="35.3018300">
<ele>187.349991</ele>
<time>2025-12-03T13:51:53.726Z</time>
</trkpt>
<trkpt lat="31.2229500" lon="35.3020300">
<ele>183.970001</ele>
<time>2025-12-03T13:51:53.726Z</time>
</trkpt>
<trkpt lat="31.2230400" lon="35.3021400">
<ele>181.629990</ele>
<time>2025-12-03T13:51:53.726Z</time>
</trkpt>
<trkpt lat="31.2232300" lon="35.3024300">
<ele>182.970001</ele>
<time>2025-12-03T13:51:53.726Z</time>
</trkpt>
<trkpt lat="31.2235900" lon="35.3029800">
<ele>178.580002</ele>
<time>2025-12-03T13:51:53.726Z</time>
</trkpt>
<trkpt lat="31.2238900" lon="35.3032600">
<ele>174.279999</ele>
<time>2025-12-03T13:51:53.726Z</time>
</trkpt>
<trkpt lat="31.2240300" lon="35.3035900">
<ele>174.169998</ele>
<time>2025-12-03T13:51:53.726Z</time>
</trkpt>
<trkpt lat="31.2240900" lon="35.3039600">
<ele>171.279999</ele>
<time>2025-12-03T13:51:53.726Z</time>
</trkpt>
<trkpt lat="31.2240700" lon="35.3041800">
<ele>169.949997</ele>
<time>2025-12-03T13:51:53.726Z</time>
</trkpt>
<trkpt lat="31.2239600" lon="35.3044000">
<ele>170.190002</ele>
<time>2025-12-03T13:51:53.726Z</time>
</trkpt>
<trkpt lat="31.2235300" lon="35.3054300">
<ele>170.799988</ele>
<time>2025-12-03T13:51:53.726Z</time>
</trkpt>
<trkpt lat="31.2234700" lon="35.3054200">
<ele>169.740005</ele>
<time>2025-12-03T13:51:53.726Z</time>
</trkpt>
<trkpt lat="31.2232900" lon="35.3051900">
<ele>164.419998</ele>
<time>2025-12-03T13:51:53.726Z</time>
</trkpt>
<trkpt lat="31.2234700" lon="35.3054400">
<ele>169.919998</ele>
<time>2025-12-03T13:51:53.726Z</time>
</trkpt>
<trkpt lat="31.2234800" lon="35.3055500">
<ele>171.059998</ele>
<time>2025-12-03T13:51:53.726Z</time>
</trkpt>
<trkpt lat="31.2233900" lon="35.3056600">
<ele>170.639999</ele>
<time>2025-12-03T13:51:53.726Z</time>
</trkpt>
<trkpt lat="31.2232800" lon="35.3056700">
<ele>166.709991</ele>
<time>2025-12-03T13:51:53.726Z</time>
</trkpt>
<trkpt lat="31.2230700" lon="35.3056500">
<ele>154.490005</ele>
<time>2025-12-03T13:51:53.726Z</time>
</trkpt>
<trkpt lat="31.2230000" lon="35.3055700">
<ele>154.569992</ele>
<time>2025-12-03T13:51:53.726Z</time>
</trkpt>
<trkpt lat="31.2230000" lon="35.3056200">
<ele>154.460007</ele>
<time>2025-12-03T13:51:53.726Z</time>
</trkpt>
<trkpt lat="31.2229700" lon="35.3056500">
<ele>154.790009</ele>
<time>2025-12-03T13:51:53.726Z</time>
</trkpt>
<trkpt lat="31.2224600" lon="35.3057700">
<ele>158.309998</ele>
<time>2025-12-03T13:51:53.726Z</time>
</trkpt>
<trkpt lat="31.2222800" lon="35.3058800">
<ele>160.410004</ele>
<time>2025-12-03T13:51:53.726Z</time>
</trkpt>
<trkpt lat="31.2220100" lon="35.3063200">
<ele>152.500000</ele>
<time>2025-12-03T13:51:53.726Z</time>
</trkpt>
<trkpt lat="31.2218900" lon="35.3067100">
<ele>144.190002</ele>
<time>2025-12-03T13:51:53.726Z</time>
</trkpt>
<trkpt lat="31.2216500" lon="35.3070200">
<ele>135.520004</ele>
<time>2025-12-03T13:51:53.726Z</time>
</trkpt>
<trkpt lat="31.2215000" lon="35.3073300">
<ele>128.290009</ele>
<time>2025-12-03T13:51:53.726Z</time>
</trkpt>
<trkpt lat="31.2213300" lon="35.3075600">
<ele>121.750000</ele>
<time>2025-12-03T13:51:53.726Z</time>
</trkpt>
<trkpt lat="31.2212200" lon="35.3077700">
<ele>117.399994</ele>
<time>2025-12-03T13:51:53.726Z</time>
</trkpt>
<trkpt lat="31.2210200" lon="35.3083400">
<ele>106.970001</ele>
<time>2025-12-03T13:51:53.726Z</time>
</trkpt>
<trkpt lat="31.2209700" lon="35.3083900">
<ele>105.440002</ele>
<time>2025-12-03T13:51:53.726Z</time>
</trkpt>
<trkpt lat="31.2207200" lon="35.3085200">
<ele>100.019997</ele>
<time>2025-12-03T13:51:53.726Z</time>
</trkpt>
<trkpt lat="31.2206900" lon="35.3085600">
<ele>99.300003</ele>
<time>2025-12-03T13:51:53.726Z</time>
</trkpt>
<trkpt lat="31.2206800" lon="35.3087000">
<ele>98.150002</ele>
<time>2025-12-03T13:51:53.726Z</time>
</trkpt>
<trkpt lat="31.2206500" lon="35.3087900">
<ele>97.070000</ele>
<time>2025-12-03T13:51:53.726Z</time>
</trkpt>
<trkpt lat="31.2206100" lon="35.3088600">
<ele>95.989998</ele>
<time>2025-12-03T13:51:53.726Z</time>
</trkpt>
<trkpt lat="31.2205700" lon="35.3089000">
<ele>95.279999</ele>
<time>2025-12-03T13:51:53.726Z</time>
</trkpt>
<trkpt lat="31.2205400" lon="35.3089800">
<ele>95.769997</ele>
<time>2025-12-03T13:51:53.726Z</time>
</trkpt>
<trkpt lat="31.2205000" lon="35.3098600">
<ele>99.600006</ele>
<time>2025-12-03T13:51:53.726Z</time>
</trkpt>
<trkpt lat="31.2203700" lon="35.3112500">
<ele>98.509995</ele>
<time>2025-12-03T13:51:53.726Z</time>
</trkpt>
<trkpt lat="31.2204400" lon="35.3116300">
<ele>97.059998</ele>
<time>2025-12-03T13:51:53.726Z</time>
</trkpt>
<trkpt lat="31.2204200" lon="35.3128100">
<ele>91.070007</ele>
<time>2025-12-03T13:51:53.726Z</time>
</trkpt>
<trkpt lat="31.2204700" lon="35.3136600">
<ele>95.299995</ele>
<time>2025-12-03T13:51:53.726Z</time>
</trkpt>
<trkpt lat="31.2203200" lon="35.3140100">
<ele>96.459999</ele>
<time>2025-12-03T13:51:53.726Z</time>
</trkpt>
<trkpt lat="31.2203500" lon="35.3142400">
<ele>96.599998</ele>
<time>2025-12-03T13:51:53.726Z</time>
</trkpt>
<trkpt lat="31.2207500" lon="35.3148000">
<ele>92.399994</ele>
<time>2025-12-03T13:51:53.726Z</time>
</trkpt>
<trkpt lat="31.2211600" lon="35.3160100">
<ele>84.660004</ele>
<time>2025-12-03T13:51:53.726Z</time>
</trkpt>
<trkpt lat="31.2210400" lon="35.3176000">
<ele>85.480003</ele>
<time>2025-12-03T13:51:53.726Z</time>
</trkpt>
<trkpt lat="31.2210100" lon="35.3186200">
<ele>87.689995</ele>
<time>2025-12-03T13:51:53.726Z</time>
</trkpt>
<trkpt lat="31.2211100" lon="35.3190100">
<ele>89.560005</ele>
<time>2025-12-03T13:51:53.726Z</time>
</trkpt>
<trkpt lat="31.2215700" lon="35.3192500">
<ele>87.029999</ele>
<time>2025-12-03T13:51:53.726Z</time>
</trkpt>
<trkpt lat="31.2218700" lon="35.3195700">
<ele>86.030006</ele>
<time>2025-12-03T13:51:53.726Z</time>
</trkpt>
<trkpt lat="31.2220900" lon="35.3203800">
<ele>83.460007</ele>
<time>2025-12-03T13:51:53.726Z</time>
</trkpt>
<trkpt lat="31.2220800" lon="35.3205600">
<ele>82.470001</ele>
<time>2025-12-03T13:51:53.726Z</time>
</trkpt>
<trkpt lat="31.2224800" lon="35.3219600">
<ele>78.089996</ele>
<time>2025-12-03T13:51:53.726Z</time>
</trkpt>
<trkpt lat="31.2226200" lon="35.3223300">
<ele>75.360001</ele>
<time>2025-12-03T13:51:53.726Z</time>
</trkpt>
<trkpt lat="31.2228900" lon="35.3227200">
<ele>70.840004</ele>
<time>2025-12-03T13:51:53.726Z</time>
</trkpt>
<trkpt lat="31.2229300" lon="35.3229500">
<ele>69.610001</ele>
<time>2025-12-03T13:51:53.726Z</time>
</trkpt>
<trkpt lat="31.2228500" lon="35.3232800">
<ele>68.099998</ele>
<time>2025-12-03T13:51:53.726Z</time>
</trkpt>
<trkpt lat="31.2225200" lon="35.3241300">
<ele>63.199997</ele>
<time>2025-12-03T13:51:53.726Z</time>
</trkpt>
<trkpt lat="31.2225700" lon="35.3241600">
<ele>62.799999</ele>
<time>2025-12-03T13:51:53.726Z</time>
</trkpt>
<trkpt lat="31.2225200" lon="35.3241300">
<ele>63.199997</ele>
<time>2025-12-03T13:51:53.726Z</time>
</trkpt>
<trkpt lat="31.2223500" lon="35.3245700">
<ele>63.480000</ele>
<time>2025-12-03T13:51:53.726Z</time>
</trkpt>
<trkpt lat="31.2223600" lon="35.3249100">
<ele>65.860001</ele>
<time>2025-12-03T13:51:53.726Z</time>
</trkpt>
<trkpt lat="31.2228000" lon="35.3255300">
<ele>57.919998</ele>
<time>2025-12-03T13:51:53.726Z</time>
</trkpt>
<trkpt lat="31.2230900" lon="35.3263000">
<ele>55.029999</ele>
<time>2025-12-03T13:51:53.726Z</time>
</trkpt>
<trkpt lat="31.2231500" lon="35.3267100">
<ele>53.869999</ele>
<time>2025-12-03T13:51:53.726Z</time>
</trkpt>
<trkpt lat="31.2232000" lon="35.3270400">
<ele>55.849998</ele>
<time>2025-12-03T13:51:53.726Z</time>
</trkpt>
<trkpt lat="31.2236000" lon="35.3278500">
<ele>55.869999</ele>
<time>2025-12-03T13:51:53.726Z</time>
</trkpt>
<trkpt lat="31.2238100" lon="35.3284100">
<ele>58.299999</ele>
<time>2025-12-03T13:51:53.726Z</time>
</trkpt>
<trkpt lat="31.2239500" lon="35.3285900">
<ele>60.369999</ele>
<time>2025-12-03T13:51:53.726Z</time>
</trkpt>
<trkpt lat="31.2243800" lon="35.3288400">
<ele>55.860001</ele>
<time>2025-12-03T13:51:53.726Z</time>
</trkpt>
<trkpt lat="31.2248100" lon="35.3290800">
<ele>53.630001</ele>
<time>2025-12-03T13:51:53.726Z</time>
</trkpt>
<trkpt lat="31.2251900" lon="35.3294400">
<ele>49.520000</ele>
<time>2025-12-03T13:51:53.726Z</time>
</trkpt>
<trkpt lat="31.2255700" lon="35.3298000">
<ele>49.020000</ele>
<time>2025-12-03T13:51:53.726Z</time>
</trkpt>
<trkpt lat="31.2260900" lon="35.3298500">
<ele>50.270000</ele>
<time>2025-12-03T13:51:53.726Z</time>
</trkpt>
<trkpt lat="31.2263600" lon="35.3298800">
<ele>50.220001</ele>
<time>2025-12-03T13:51:53.726Z</time>
</trkpt>
<trkpt lat="31.2268700" lon="35.3301000">
<ele>48.339996</ele>
<time>2025-12-03T13:51:53.726Z</time>
</trkpt>
<trkpt lat="31.2269400" lon="35.3302600">
<ele>50.730000</ele>
<time>2025-12-03T13:51:53.726Z</time>
</trkpt>
<trkpt lat="31.2268800" lon="35.3306300">
<ele>54.240002</ele>
<time>2025-12-03T13:51:53.726Z</time>
</trkpt>
<trkpt lat="31.2269700" lon="35.3308200">
<ele>56.000000</ele>
<time>2025-12-03T13:51:53.726Z</time>
</trkpt>
<trkpt lat="31.2273300" lon="35.3310600">
<ele>53.250000</ele>
<time>2025-12-03T13:51:53.726Z</time>
</trkpt>
<trkpt lat="31.2276400" lon="35.3311100">
<ele>48.510002</ele>
<time>2025-12-03T13:51:53.726Z</time>
</trkpt>
<trkpt lat="31.2279000" lon="35.3314200">
<ele>40.480000</ele>
<time>2025-12-03T13:51:53.726Z</time>
</trkpt>
<trkpt lat="31.2279900" lon="35.3316500">
<ele>42.950001</ele>
<time>2025-12-03T13:51:53.726Z</time>
</trkpt>
<trkpt lat="31.2281200" lon="35.3323000">
<ele>44.490002</ele>
<time>2025-12-03T13:51:53.726Z</time>
</trkpt>
<trkpt lat="31.2282500" lon="35.3325300">
<ele>43.180000</ele>
<time>2025-12-03T13:51:53.726Z</time>
</trkpt>
<trkpt lat="31.2290100" lon="35.3332500">
<ele>32.330002</ele>
<time>2025-12-03T13:51:53.726Z</time>
</trkpt>
<trkpt lat="31.2295200" lon="35.3346100">
<ele>31.510000</ele>
<time>2025-12-03T13:51:53.726Z</time>
</trkpt>
<trkpt lat="31.2295200" lon="35.3346100">
<ele>31.510000</ele>
<time>2025-12-03T13:51:53.726Z</time>
</trkpt>
<trkpt lat="31.2296000" lon="35.3348200">
<ele>30.410000</ele>
<time>2025-12-03T13:51:53.726Z</time>
</trkpt>
<trkpt lat="31.2295800" lon="35.3353600">
<ele>29.970001</ele>
<time>2025-12-03T13:51:53.726Z</time>
</trkpt>
<trkpt lat="31.2294700" lon="35.3361300">
<ele>34.180000</ele>
<time>2025-12-03T13:51:53.726Z</time>
</trkpt>
<trkpt lat="31.2294900" lon="35.3361400">
<ele>34.329998</ele>
<time>2025-12-03T13:51:53.726Z</time>
</trkpt>
<trkpt lat="31.2294600" lon="35.3362900">
<ele>34.110001</ele>
<time>2025-12-03T13:51:53.726Z</time>
</trkpt>
<trkpt lat="31.2294500" lon="35.3364100">
<ele>34.039997</ele>
<time>2025-12-03T13:51:53.726Z</time>
</trkpt>
<trkpt lat="31.2294500" lon="35.3365100">
<ele>34.029999</ele>
<time>2025-12-03T13:51:53.726Z</time>
</trkpt>
<trkpt lat="31.2294400" lon="35.3365900">
<ele>33.959999</ele>
<time>2025-12-03T13:51:53.726Z</time>
</trkpt>
<trkpt lat="31.2294400" lon="35.3367100">
<ele>33.809998</ele>
<time>2025-12-03T13:51:53.726Z</time>
</trkpt>
<trkpt lat="31.2294200" lon="35.3367500">
<ele>33.549999</ele>
<time>2025-12-03T13:51:53.726Z</time>
</trkpt>
<trkpt lat="31.2293900" lon="35.3367900">
<ele>33.250000</ele>
<time>2025-12-03T13:51:53.726Z</time>
</trkpt>
<trkpt lat="31.2293800" lon="35.3369500">
<ele>32.849998</ele>
<time>2025-12-03T13:51:53.726Z</time>
</trkpt>
<trkpt lat="31.2293700" lon="35.3370500">
<ele>34.250000</ele>
<time>2025-12-03T13:51:53.726Z</time>
</trkpt>
<trkpt lat="31.2293800" lon="35.3371300">
<ele>35.439999</ele>
<time>2025-12-03T13:51:53.726Z</time>
</trkpt>
<trkpt lat="31.2293800" lon="35.3371300">
<ele>35.439999</ele>
<time>2025-12-03T13:51:53.726Z</time>
</trkpt>
<trkpt lat="31.2293800" lon="35.3371900">
<ele>36.299999</ele>
<time>2025-12-03T13:51:53.726Z</time>
</trkpt>
<trkpt lat="31.2293800" lon="35.3373700">
<ele>38.770000</ele>
<time>2025-12-03T13:51:53.726Z</time>
</trkpt>
<trkpt lat="31.2293900" lon="35.3375000">
<ele>40.610001</ele>
<time>2025-12-03T13:51:53.726Z</time>
</trkpt>
<trkpt lat="31.2293900" lon="35.3375600">
<ele>41.430000</ele>
<time>2025-12-03T13:51:53.726Z</time>
</trkpt>
<trkpt lat="31.2293900" lon="35.3376200">
<ele>42.249996</ele>
<time>2025-12-03T13:51:53.726Z</time>
</trkpt>
<trkpt lat="31.2293800" lon="35.3376900">
<ele>43.110001</ele>
<time>2025-12-03T13:51:53.726Z</time>
</trkpt>
<trkpt lat="31.2293600" lon="35.3378000">
<ele>44.250000</ele>
<time>2025-12-03T13:51:53.726Z</time>
</trkpt>
<trkpt lat="31.2293400" lon="35.3378400">
<ele>44.320004</ele>
<time>2025-12-03T13:51:53.726Z</time>
</trkpt>
<trkpt lat="31.2293200" lon="35.3378700">
<ele>44.320004</ele>
<time>2025-12-03T13:51:53.726Z</time>
</trkpt>
<trkpt lat="31.2292600" lon="35.3379800">
<ele>44.459999</ele>
<time>2025-12-03T13:51:53.726Z</time>
</trkpt>
<trkpt lat="31.2292400" lon="35.3380400">
<ele>44.679996</ele>
<time>2025-12-03T13:51:53.726Z</time>
</trkpt>
<trkpt lat="31.2292200" lon="35.3380700">
<ele>44.579998</ele>
<time>2025-12-03T13:51:53.726Z</time>
</trkpt>
<trkpt lat="31.2292000" lon="35.3381000">
<ele>44.360001</ele>
<time>2025-12-03T13:51:53.726Z</time>
</trkpt>
<trkpt lat="31.2291100" lon="35.3383300">
<ele>43.799999</ele>
<time>2025-12-03T13:51:53.726Z</time>
</trkpt>
<trkpt lat="31.2290500" lon="35.3385200">
<ele>42.520000</ele>
<time>2025-12-03T13:51:53.726Z</time>
</trkpt>
<trkpt lat="31.2290200" lon="35.3387300">
<ele>41.369999</ele>
<time>2025-12-03T13:51:53.726Z</time>
</trkpt>
<trkpt lat="31.2290200" lon="35.3388800">
<ele>40.580002</ele>
<time>2025-12-03T13:51:53.726Z</time>
</trkpt>
<trkpt lat="31.2290200" lon="35.3389400">
<ele>40.160000</ele>
<time>2025-12-03T13:51:53.726Z</time>
</trkpt>
<trkpt lat="31.2290400" lon="35.3393900">
<ele>38.529999</ele>
<time>2025-12-03T13:51:53.726Z</time>
</trkpt>
<trkpt lat="31.2290500" lon="35.3394400">
<ele>38.580002</ele>
<time>2025-12-03T13:51:53.726Z</time>
</trkpt>
<trkpt lat="31.2290500" lon="35.3394900">
<ele>38.740002</ele>
<time>2025-12-03T13:51:53.726Z</time>
</trkpt>
<trkpt lat="31.2290600" lon="35.3395500">
<ele>39.000000</ele>
<time>2025-12-03T13:51:53.726Z</time>
</trkpt>
<trkpt lat="31.2290500" lon="35.3396400">
<ele>39.279999</ele>
<time>2025-12-03T13:51:53.726Z</time>
</trkpt>
<trkpt lat="31.2290600" lon="35.3396900">
<ele>39.500000</ele>
<time>2025-12-03T13:51:53.726Z</time>
</trkpt>
<trkpt lat="31.2290600" lon="35.3397700">
<ele>39.750000</ele>
<time>2025-12-03T13:51:53.726Z</time>
</trkpt>
<trkpt lat="31.2290600" lon="35.3399200">
<ele>40.160000</ele>
<time>2025-12-03T13:51:53.726Z</time>
</trkpt>
<trkpt lat="31.2290900" lon="35.3401400">
<ele>40.639999</ele>
<time>2025-12-03T13:51:53.726Z</time>
</trkpt>
<trkpt lat="31.2291900" lon="35.3404300">
<ele>40.619999</ele>
<time>2025-12-03T13:51:53.726Z</time>
</trkpt>
<trkpt lat="31.2292200" lon="35.3406800">
<ele>39.939999</ele>
<time>2025-12-03T13:51:53.726Z</time>
</trkpt>
<trkpt lat="31.2292400" lon="35.3410100">
<ele>38.419998</ele>
<time>2025-12-03T13:51:53.726Z</time>
</trkpt>
<trkpt lat="31.2292800" lon="35.3413400">
<ele>37.060001</ele>
<time>2025-12-03T13:51:53.726Z</time>
</trkpt>
<trkpt lat="31.2293300" lon="35.3415300">
<ele>36.880001</ele>
<time>2025-12-03T13:51:53.726Z</time>
</trkpt>
<trkpt lat="31.2293800" lon="35.3417000">
<ele>36.650002</ele>
<time>2025-12-03T13:51:53.726Z</time>
</trkpt>
<trkpt lat="31.2293900" lon="35.3417400">
<ele>36.540001</ele>
<time>2025-12-03T13:51:53.726Z</time>
</trkpt>
<trkpt lat="31.2294300" lon="35.3420300">
<ele>36.289997</ele>
<time>2025-12-03T13:51:53.726Z</time>
</trkpt>
<trkpt lat="31.2294600" lon="35.3421800">
<ele>37.220001</ele>
<time>2025-12-03T13:51:53.726Z</time>
</trkpt>
<trkpt lat="31.2294700" lon="35.3422800">
<ele>37.619999</ele>
<time>2025-12-03T13:51:53.726Z</time>
</trkpt>
<trkpt lat="31.2294900" lon="35.3423100">
<ele>38.099998</ele>
<time>2025-12-03T13:51:53.726Z</time>
</trkpt>
<trkpt lat="31.2295300" lon="35.3425200">
<ele>38.879997</ele>
<time>2025-12-03T13:51:53.726Z</time>
</trkpt>
<trkpt lat="31.2295500" lon="35.3425500">
<ele>39.300003</ele>
<time>2025-12-03T13:51:53.726Z</time>
</trkpt>
<trkpt lat="31.2296900" lon="35.3428600">
<ele>39.590004</ele>
<time>2025-12-03T13:51:53.726Z</time>
</trkpt>
<trkpt lat="31.2298300" lon="35.3431500">
<ele>38.610001</ele>
<time>2025-12-03T13:51:53.726Z</time>
</trkpt>
<trkpt lat="31.2298800" lon="35.3432400">
<ele>38.430000</ele>
<time>2025-12-03T13:51:53.726Z</time>
</trkpt>
<trkpt lat="31.2299600" lon="35.3433600">
<ele>37.950001</ele>
<time>2025-12-03T13:51:53.726Z</time>
</trkpt>
<trkpt lat="31.2301700" lon="35.3435900">
<ele>36.669998</ele>
<time>2025-12-03T13:51:53.726Z</time>
</trkpt>
<trkpt lat="31.2303100" lon="35.3438600">
<ele>35.090000</ele>
<time>2025-12-03T13:51:53.726Z</time>
</trkpt>
<trkpt lat="31.2304100" lon="35.3441400">
<ele>33.619999</ele>
<time>2025-12-03T13:51:53.726Z</time>
</trkpt>
<trkpt lat="31.2304300" lon="35.3441800">
<ele>33.410000</ele>
<time>2025-12-03T13:51:53.726Z</time>
</trkpt>
<trkpt lat="31.2305400" lon="35.3443900">
<ele>32.969997</ele>
<time>2025-12-03T13:51:53.726Z</time>
</trkpt>
<trkpt lat="31.2306300" lon="35.3445300">
<ele>32.880001</ele>
<time>2025-12-03T13:51:53.726Z</time>
</trkpt>
<trkpt lat="31.2306900" lon="35.3446000">
<ele>32.650002</ele>
<time>2025-12-03T13:51:53.726Z</time>
</trkpt>
<trkpt lat="31.2307100" lon="35.3446400">
<ele>32.459999</ele>
<time>2025-12-03T13:51:53.726Z</time>
</trkpt>
<trkpt lat="31.2308000" lon="35.3447500">
<ele>32.009998</ele>
<time>2025-12-03T13:51:53.726Z</time>
</trkpt>
<trkpt lat="31.2308300" lon="35.3447900">
<ele>32.000000</ele>
<time>2025-12-03T13:51:53.726Z</time>
</trkpt>
<trkpt lat="31.2310500" lon="35.3449900">
<ele>32.030003</ele>
<time>2025-12-03T13:51:53.726Z</time>
</trkpt>
<trkpt lat="31.2311800" lon="35.3451100">
<ele>30.410000</ele>
<time>2025-12-03T13:51:53.726Z</time>
</trkpt>
<trkpt lat="31.2313600" lon="35.3453000">
<ele>28.619999</ele>
<time>2025-12-03T13:51:53.726Z</time>
</trkpt>
<trkpt lat="31.2313900" lon="35.3453500">
<ele>29.039999</ele>
<time>2025-12-03T13:51:53.726Z</time>
</trkpt>
<trkpt lat="31.2314900" lon="35.3454400">
<ele>29.490000</ele>
<time>2025-12-03T13:51:53.726Z</time>
</trkpt>
<trkpt lat="31.2314900" lon="35.3454500">
<ele>29.580000</ele>
<time>2025-12-03T13:51:53.726Z</time>
</trkpt>
<trkpt lat="31.2315600" lon="35.3455000">
<ele>29.230000</ele>
<time>2025-12-03T13:51:53.726Z</time>
</trkpt>
<trkpt lat="31.2315800" lon="35.3456200">
<ele>29.570000</ele>
<time>2025-12-03T13:51:53.726Z</time>
</trkpt>
<trkpt lat="31.2315500" lon="35.3457200">
<ele>30.369999</ele>
<time>2025-12-03T13:51:53.726Z</time>
</trkpt>
<trkpt lat="31.2311900" lon="35.3460300">
<ele>34.450001</ele>
<time>2025-12-03T13:51:53.726Z</time>
</trkpt>
<trkpt lat="31.2311300" lon="35.3462000">
<ele>35.040001</ele>
<time>2025-12-03T13:51:53.726Z</time>
</trkpt>
<trkpt lat="31.2311300" lon="35.3465500">
<ele>28.680000</ele>
<time>2025-12-03T13:51:53.726Z</time>
</trkpt>
<trkpt lat="31.2311300" lon="35.3465300">
<ele>29.290001</ele>
<time>2025-12-03T13:51:53.726Z</time>
</trkpt>
<trkpt lat="31.2314500" lon="35.3465600">
<ele>19.789999</ele>
<time>2025-12-03T13:51:53.726Z</time>
</trkpt>
<trkpt lat="31.2315300" lon="35.3466200">
<ele>18.559999</ele>
<time>2025-12-03T13:51:53.726Z</time>
</trkpt>
<trkpt lat="31.2314600" lon="35.3465600">
<ele>19.960001</ele>
<time>2025-12-03T13:51:53.726Z</time>
</trkpt>
<trkpt lat="31.2310700" lon="35.3465600">
<ele>29.400002</ele>
<time>2025-12-03T13:51:53.726Z</time>
</trkpt>
<trkpt lat="31.2310100" lon="35.3465800">
<ele>29.360001</ele>
<time>2025-12-03T13:51:53.726Z</time>
</trkpt>
<trkpt lat="31.2309300" lon="35.3465300">
<ele>31.250000</ele>
<time>2025-12-03T13:51:53.726Z</time>
</trkpt>
<trkpt lat="31.2308700" lon="35.3464200">
<ele>34.170002</ele>
<time>2025-12-03T13:51:53.726Z</time>
</trkpt>
<trkpt lat="31.2308700" lon="35.3464200">
<ele>34.170002</ele>
<time>2025-12-03T13:51:53.726Z</time>
</trkpt>
<trkpt lat="31.2309000" lon="35.3462300">
<ele>35.470001</ele>
<time>2025-12-03T13:51:53.726Z</time>
</trkpt>
<trkpt lat="31.2309700" lon="35.3461500">
<ele>35.790001</ele>
<time>2025-12-03T13:51:53.726Z</time>
</trkpt>
<trkpt lat="31.2310800" lon="35.3460900">
<ele>35.840000</ele>
<time>2025-12-03T13:51:53.726Z</time>
</trkpt>
<trkpt lat="31.2311900" lon="35.3460300">
<ele>34.450001</ele>
<time>2025-12-03T13:51:53.726Z</time>
</trkpt>
<trkpt lat="31.2315400" lon="35.3457200">
<ele>30.470001</ele>
<time>2025-12-03T13:51:53.726Z</time>
</trkpt>
<trkpt lat="31.2315800" lon="35.3456100">
<ele>29.520000</ele>
<time>2025-12-03T13:51:53.726Z</time>
</trkpt>
<trkpt lat="31.2315600" lon="35.3455000">
<ele>29.230000</ele>
<time>2025-12-03T13:51:53.726Z</time>
</trkpt>
<trkpt lat="31.2313800" lon="35.3453500">
<ele>29.119999</ele>
<time>2025-12-03T13:51:53.726Z</time>
</trkpt>
<trkpt lat="31.2305600" lon="35.3444200">
<ele>33.020000</ele>
<time>2025-12-03T13:51:53.726Z</time>
</trkpt>
<trkpt lat="31.2301000" lon="35.3435100">
<ele>36.830002</ele>
<time>2025-12-03T13:51:53.726Z</time>
</trkpt>
<trkpt lat="31.2297300" lon="35.3429500">
<ele>39.360001</ele>
<time>2025-12-03T13:51:53.726Z</time>
</trkpt>
<trkpt lat="31.2294900" lon="35.3423700">
<ele>38.060001</ele>
<time>2025-12-03T13:51:53.726Z</time>
</trkpt>
<trkpt lat="31.2294700" lon="35.3420600">
<ele>36.950001</ele>
<time>2025-12-03T13:51:53.726Z</time>
</trkpt>
<trkpt lat="31.2292500" lon="35.3412700">
<ele>37.160000</ele>
<time>2025-12-03T13:51:53.726Z</time>
</trkpt>
<trkpt lat="31.2292000" lon="35.3404400">
<ele>40.660004</ele>
<time>2025-12-03T13:51:53.726Z</time>
</trkpt>
<trkpt lat="31.2290700" lon="35.3400000">
<ele>40.350002</ele>
<time>2025-12-03T13:51:53.726Z</time>
</trkpt>
<trkpt lat="31.2290600" lon="35.3394100">
<ele>38.590000</ele>
<time>2025-12-03T13:51:53.726Z</time>
</trkpt>
<trkpt lat="31.2289800" lon="35.3388100">
<ele>41.050003</ele>
<time>2025-12-03T13:51:53.726Z</time>
</trkpt>
<trkpt lat="31.2289800" lon="35.3386500">
<ele>41.810001</ele>
<time>2025-12-03T13:51:53.726Z</time>
</trkpt>
<trkpt lat="31.2291600" lon="35.3381800">
<ele>43.980000</ele>
<time>2025-12-03T13:51:53.726Z</time>
</trkpt>
<trkpt lat="31.2283500" lon="35.3385600">
<ele>42.950001</ele>
<time>2025-12-03T13:51:53.726Z</time>
</trkpt>
<trkpt lat="31.2281600" lon="35.3386800">
<ele>40.750000</ele>
<time>2025-12-03T13:51:53.726Z</time>
</trkpt>
<trkpt lat="31.2281500" lon="35.3386800">
<ele>40.610001</ele>
<time>2025-12-03T13:51:53.726Z</time>
</trkpt>
<trkpt lat="31.2281500" lon="35.3386800">
<ele>40.610001</ele>
<time>2025-12-03T13:51:53.726Z</time>
</trkpt>
<trkpt lat="31.2279200" lon="35.3388200">
<ele>39.750000</ele>
<time>2025-12-03T13:51:53.726Z</time>
</trkpt>
<trkpt lat="31.2274900" lon="35.3390800">
<ele>39.020000</ele>
<time>2025-12-03T13:51:53.726Z</time>
</trkpt>
<trkpt lat="31.2270100" lon="35.3392100">
<ele>39.879997</ele>
<time>2025-12-03T13:51:53.726Z</time>
</trkpt>
<trkpt lat="31.2262300" lon="35.3394600">
<ele>35.360001</ele>
<time>2025-12-03T13:51:53.726Z</time>
</trkpt>
<trkpt lat="31.2255500" lon="35.3394600">
<ele>41.740002</ele>
<time>2025-12-03T13:51:53.726Z</time>
</trkpt>
<trkpt lat="31.2248100" lon="35.3396000">
<ele>33.689999</ele>
<time>2025-12-03T13:51:53.726Z</time>
</trkpt>
<trkpt lat="31.2243800" lon="35.3396600">
<ele>31.040001</ele>
<time>2025-12-03T13:51:53.726Z</time>
</trkpt>
<trkpt lat="31.2239600" lon="35.3396000">
<ele>31.950001</ele>
<time>2025-12-03T13:51:53.726Z</time>
</trkpt>
<trkpt lat="31.2233500" lon="35.3398300">
<ele>30.139999</ele>
<time>2025-12-03T13:51:53.726Z</time>
</trkpt>
<trkpt lat="31.2229300" lon="35.3397900">
<ele>28.320000</ele>
<time>2025-12-03T13:51:53.726Z</time>
</trkpt>
<trkpt lat="31.2228000" lon="35.3398100">
<ele>26.590000</ele>
<time>2025-12-03T13:51:53.726Z</time>
</trkpt>
<trkpt lat="31.2225100" lon="35.3400500">
<ele>25.769999</ele>
<time>2025-12-03T13:51:53.726Z</time>
</trkpt>
<trkpt lat="31.2218200" lon="35.3401800">
<ele>34.590000</ele>
<time>2025-12-03T13:51:53.726Z</time>
</trkpt>
<trkpt lat="31.2211400" lon="35.3404300">
<ele>36.600002</ele>
<time>2025-12-03T13:51:53.726Z</time>
</trkpt>
<trkpt lat="31.2204500" lon="35.3408600">
<ele>35.840000</ele>
<time>2025-12-03T13:51:53.726Z</time>
</trkpt>
<trkpt lat="31.2200200" lon="35.3412000">
<ele>37.309998</ele>
<time>2025-12-03T13:51:53.726Z</time>
</trkpt>
<trkpt lat="31.2195800" lon="35.3415500">
<ele>35.070000</ele>
<time>2025-12-03T13:51:53.726Z</time>
</trkpt>
<trkpt lat="31.2191500" lon="35.3418900">
<ele>34.049999</ele>
<time>2025-12-03T13:51:53.726Z</time>
</trkpt>
<trkpt lat="31.2187700" lon="35.3420400">
<ele>35.049999</ele>
<time>2025-12-03T13:51:53.726Z</time>
</trkpt>
<trkpt lat="31.2184900" lon="35.3421900">
<ele>33.189999</ele>
<time>2025-12-03T13:51:53.726Z</time>
</trkpt>
<trkpt lat="31.2179900" lon="35.3426800">
<ele>31.000000</ele>
<time>2025-12-03T13:51:53.726Z</time>
</trkpt>
<trkpt lat="31.2174800" lon="35.3431500">
<ele>32.169998</ele>
<time>2025-12-03T13:51:53.726Z</time>
</trkpt>
<trkpt lat="31.2172300" lon="35.3433300">
<ele>33.000000</ele>
<time>2025-12-03T13:51:53.726Z</time>
</trkpt>
<trkpt lat="31.2169900" lon="35.3434100">
<ele>35.930000</ele>
<time>2025-12-03T13:51:53.726Z</time>
</trkpt>
<trkpt lat="31.2163500" lon="35.3434300">
<ele>25.990000</ele>
<time>2025-12-03T13:51:53.726Z</time>
</trkpt>
<trkpt lat="31.2161400" lon="35.3435400">
<ele>23.230001</ele>
<time>2025-12-03T13:51:53.726Z</time>
</trkpt>
<trkpt lat="31.2160100" lon="35.3435100">
<ele>24.710001</ele>
<time>2025-12-03T13:51:53.726Z</time>
</trkpt>
<trkpt lat="31.2158500" lon="35.3434200">
<ele>27.029999</ele>
<time>2025-12-03T13:51:53.726Z</time>
</trkpt>
<trkpt lat="31.2156100" lon="35.3434400">
<ele>24.129999</ele>
<time>2025-12-03T13:51:53.726Z</time>
</trkpt>
<trkpt lat="31.2153100" lon="35.3435300">
<ele>21.280001</ele>
<time>2025-12-03T13:51:53.726Z</time>
</trkpt>
<trkpt lat="31.2148800" lon="35.3435900">
<ele>20.129999</ele>
<time>2025-12-03T13:51:53.726Z</time>
</trkpt>
<trkpt lat="31.2144000" lon="35.3435100">
<ele>18.309999</ele>
<time>2025-12-03T13:51:53.726Z</time>
</trkpt>
<trkpt lat="31.2135400" lon="35.3434400">
<ele>19.080000</ele>
<time>2025-12-03T13:51:53.726Z</time>
</trkpt>
<trkpt lat="31.2131900" lon="35.3433400">
<ele>15.889999</ele>
<time>2025-12-03T13:51:53.726Z</time>
</trkpt>
<trkpt lat="31.2129800" lon="35.3434100">
<ele>13.600000</ele>
<time>2025-12-03T13:51:53.726Z</time>
</trkpt>
<trkpt lat="31.2127200" lon="35.3436500">
<ele>13.410000</ele>
<time>2025-12-03T13:51:53.726Z</time>
</trkpt>
<trkpt lat="31.2126200" lon="35.3436700">
<ele>12.530001</ele>
<time>2025-12-03T13:51:53.726Z</time>
</trkpt>
<trkpt lat="31.2122100" lon="35.3438900">
<ele>14.219999</ele>
<time>2025-12-03T13:51:53.726Z</time>
</trkpt>
<trkpt lat="31.2117900" lon="35.3441200">
<ele>19.920000</ele>
<time>2025-12-03T13:51:53.726Z</time>
</trkpt>
<trkpt lat="31.2113800" lon="35.3443400">
<ele>16.629999</ele>
<time>2025-12-03T13:51:53.726Z</time>
</trkpt>
<trkpt lat="31.2108600" lon="35.3445600">
<ele>16.020000</ele>
<time>2025-12-03T13:51:53.726Z</time>
</trkpt>
<trkpt lat="31.2103400" lon="35.3447700">
<ele>23.540001</ele>
<time>2025-12-03T13:51:53.726Z</time>
</trkpt>
<trkpt lat="31.2097400" lon="35.3449400">
<ele>27.270000</ele>
<time>2025-12-03T13:51:53.726Z</time>
</trkpt>
<trkpt lat="31.2092600" lon="35.3451400">
<ele>26.340000</ele>
<time>2025-12-03T13:51:53.726Z</time>
</trkpt>
<trkpt lat="31.2092600" lon="35.3451400">
<ele>26.340000</ele>
<time>2025-12-03T13:51:53.726Z</time>
</trkpt>
<trkpt lat="31.2092600" lon="35.3451400">
<ele>26.340000</ele>
<time>2025-12-03T13:51:53.726Z</time>
</trkpt>
<trkpt lat="31.2091700" lon="35.3451700">
<ele>26.010000</ele>
<time>2025-12-03T13:51:53.726Z</time>
</trkpt>
<trkpt lat="31.2089100" lon="35.3452300">
<ele>24.150000</ele>
<time>2025-12-03T13:51:53.726Z</time>
</trkpt>
<trkpt lat="31.2087800" lon="35.3454200">
<ele>24.710001</ele>
<time>2025-12-03T13:51:53.726Z</time>
</trkpt>
<trkpt lat="31.2085100" lon="35.3456900">
<ele>27.259998</ele>
<time>2025-12-03T13:51:53.726Z</time>
</trkpt>
<trkpt lat="31.2083300" lon="35.3458800">
<ele>28.809999</ele>
<time>2025-12-03T13:51:53.726Z</time>
</trkpt>
<trkpt lat="31.2081300" lon="35.3462000">
<ele>28.230000</ele>
<time>2025-12-03T13:51:53.726Z</time>
</trkpt>
<trkpt lat="31.2080600" lon="35.3463300">
<ele>28.779999</ele>
<time>2025-12-03T13:51:53.726Z</time>
</trkpt>
<trkpt lat="31.2080600" lon="35.3464100">
<ele>28.840000</ele>
<time>2025-12-03T13:51:53.726Z</time>
</trkpt>
<trkpt lat="31.2080800" lon="35.3465800">
<ele>27.720001</ele>
<time>2025-12-03T13:51:53.726Z</time>
</trkpt>
<trkpt lat="31.2080900" lon="35.3467800">
<ele>26.529999</ele>
<time>2025-12-03T13:51:53.726Z</time>
</trkpt>
<trkpt lat="31.2080700" lon="35.3470900">
<ele>24.110001</ele>
<time>2025-12-03T13:51:53.726Z</time>
</trkpt>
<trkpt lat="31.2080800" lon="35.3473400">
<ele>21.060001</ele>
<time>2025-12-03T13:51:53.726Z</time>
</trkpt>
<trkpt lat="31.2080800" lon="35.3481600">
<ele>11.900001</ele>
<time>2025-12-03T13:51:53.726Z</time>
</trkpt>
<trkpt lat="31.2081200" lon="35.3484400">
<ele>10.059999</ele>
<time>2025-12-03T13:51:53.726Z</time>
</trkpt>
<trkpt lat="31.2081200" lon="35.3485300">
<ele>9.020000</ele>
<time>2025-12-03T13:51:53.726Z</time>
</trkpt>
<trkpt lat="31.2080900" lon="35.3486800">
<ele>7.600000</ele>
<time>2025-12-03T13:51:53.726Z</time>
</trkpt>
<trkpt lat="31.2080300" lon="35.3488000">
<ele>6.380000</ele>
<time>2025-12-03T13:51:53.726Z</time>
</trkpt>
<trkpt lat="31.2079900" lon="35.3488700">
<ele>5.700000</ele>
<time>2025-12-03T13:51:53.726Z</time>
</trkpt>
<trkpt lat="31.2077800" lon="35.3491000">
<ele>7.730000</ele>
<time>2025-12-03T13:51:53.726Z</time>
</trkpt>
<trkpt lat="31.2077500" lon="35.3492000">
<ele>8.509999</ele>
<time>2025-12-03T13:51:53.726Z</time>
</trkpt>
<trkpt lat="31.2077700" lon="35.3493100">
<ele>8.150001</ele>
<time>2025-12-03T13:51:53.726Z</time>
</trkpt>
<trkpt lat="31.2078600" lon="35.3494800">
<ele>6.350000</ele>
<time>2025-12-03T13:51:53.726Z</time>
</trkpt>
<trkpt lat="31.2078900" lon="35.3495800">
<ele>5.290000</ele>
<time>2025-12-03T13:51:53.726Z</time>
</trkpt>
<trkpt lat="31.2079900" lon="35.3501600">
<ele>0.960000</ele>
<time>2025-12-03T13:51:53.726Z</time>
</trkpt>
<trkpt lat="31.2081100" lon="35.3503100">
<ele>-2.130000</ele>
<time>2025-12-03T13:51:53.726Z</time>
</trkpt>
<trkpt lat="31.2082000" lon="35.3505100">
<ele>-16.650000</ele>
<time>2025-12-03T13:51:53.726Z</time>
</trkpt>
<trkpt lat="31.2080300" lon="35.3504900">
<ele>-5.890000</ele>
<time>2025-12-03T13:51:53.726Z</time>
</trkpt>
<trkpt lat="31.2078600" lon="35.3504800">
<ele>-2.290000</ele>
<time>2025-12-03T13:51:53.726Z</time>
</trkpt>
<trkpt lat="31.2076600" lon="35.3505100">
<ele>1.850000</ele>
<time>2025-12-03T13:51:53.726Z</time>
</trkpt>
<trkpt lat="31.2074800" lon="35.3505100">
<ele>6.020000</ele>
<time>2025-12-03T13:51:53.726Z</time>
</trkpt>
<trkpt lat="31.2072900" lon="35.3504800">
<ele>11.040001</ele>
<time>2025-12-03T13:51:53.726Z</time>
</trkpt>
<trkpt lat="31.2072900" lon="35.3504800">
<ele>11.040001</ele>
<time>2025-12-03T13:51:53.726Z</time>
</trkpt>
<trkpt lat="31.2072900" lon="35.3504800">
<ele>11.040001</ele>
<time>2025-12-03T13:51:53.726Z</time>
</trkpt>
<trkpt lat="31.2072900" lon="35.3504800">
<ele>11.040001</ele>
<time>2025-12-03T13:51:53.726Z</time>
</trkpt>
<trkpt lat="31.2074800" lon="35.3505100">
<ele>6.020000</ele>
<time>2025-12-03T13:51:53.726Z</time>
</trkpt>
<trkpt lat="31.2076600" lon="35.3505100">
<ele>1.850000</ele>
<time>2025-12-03T13:51:53.726Z</time>
</trkpt>
<trkpt lat="31.2078600" lon="35.3504800">
<ele>-2.290000</ele>
<time>2025-12-03T13:51:53.726Z</time>
</trkpt>
<trkpt lat="31.2080300" lon="35.3504900">
<ele>-5.890000</ele>
<time>2025-12-03T13:51:53.726Z</time>
</trkpt>
<trkpt lat="31.2082000" lon="35.3505100">
<ele>-16.650000</ele>
<time>2025-12-03T13:51:53.726Z</time>
</trkpt>
<trkpt lat="31.2081100" lon="35.3503100">
<ele>-2.130000</ele>
<time>2025-12-03T13:51:53.726Z</time>
</trkpt>
<trkpt lat="31.2079900" lon="35.3501600">
<ele>0.960000</ele>
<time>2025-12-03T13:51:53.726Z</time>
</trkpt>
<trkpt lat="31.2078900" lon="35.3495800">
<ele>5.290000</ele>
<time>2025-12-03T13:51:53.726Z</time>
</trkpt>
<trkpt lat="31.2078600" lon="35.3494800">
<ele>6.350000</ele>
<time>2025-12-03T13:51:53.726Z</time>
</trkpt>
<trkpt lat="31.2077700" lon="35.3493100">
<ele>8.150001</ele>
<time>2025-12-03T13:51:53.726Z</time>
</trkpt>
<trkpt lat="31.2077500" lon="35.3492000">
<ele>8.509999</ele>
<time>2025-12-03T13:51:53.726Z</time>
</trkpt>
<trkpt lat="31.2077800" lon="35.3491000">
<ele>7.730000</ele>
<time>2025-12-03T13:51:53.726Z</time>
</trkpt>
<trkpt lat="31.2079900" lon="35.3488700">
<ele>5.700000</ele>
<time>2025-12-03T13:51:53.726Z</time>
</trkpt>
<trkpt lat="31.2080300" lon="35.3488000">
<ele>6.380000</ele>
<time>2025-12-03T13:51:53.726Z</time>
</trkpt>
<trkpt lat="31.2080900" lon="35.3486800">
<ele>7.600000</ele>
<time>2025-12-03T13:51:53.726Z</time>
</trkpt>
<trkpt lat="31.2081200" lon="35.3485300">
<ele>9.020000</ele>
<time>2025-12-03T13:51:53.726Z</time>
</trkpt>
<trkpt lat="31.2081200" lon="35.3484400">
<ele>10.059999</ele>
<time>2025-12-03T13:51:53.726Z</time>
</trkpt>
<trkpt lat="31.2080800" lon="35.3481600">
<ele>11.900001</ele>
<time>2025-12-03T13:51:53.726Z</time>
</trkpt>
<trkpt lat="31.2080800" lon="35.3473400">
<ele>21.060001</ele>
<time>2025-12-03T13:51:53.726Z</time>
</trkpt>
<trkpt lat="31.2080700" lon="35.3470900">
<ele>24.110001</ele>
<time>2025-12-03T13:51:53.726Z</time>
</trkpt>
<trkpt lat="31.2080900" lon="35.3467800">
<ele>26.529999</ele>
<time>2025-12-03T13:51:53.726Z</time>
</trkpt>
<trkpt lat="31.2080800" lon="35.3465800">
<ele>27.720001</ele>
<time>2025-12-03T13:51:53.726Z</time>
</trkpt>
<trkpt lat="31.2080600" lon="35.3464100">
<ele>28.840000</ele>
<time>2025-12-03T13:51:53.726Z</time>
</trkpt>
<trkpt lat="31.2080600" lon="35.3463300">
<ele>28.779999</ele>
<time>2025-12-03T13:51:53.726Z</time>
</trkpt>
<trkpt lat="31.2081300" lon="35.3462000">
<ele>28.230000</ele>
<time>2025-12-03T13:51:53.726Z</time>
</trkpt>
<trkpt lat="31.2083300" lon="35.3458800">
<ele>28.809999</ele>
<time>2025-12-03T13:51:53.726Z</time>
</trkpt>
<trkpt lat="31.2085100" lon="35.3456900">
<ele>27.259998</ele>
<time>2025-12-03T13:51:53.726Z</time>
</trkpt>
<trkpt lat="31.2087800" lon="35.3454200">
<ele>24.710001</ele>
<time>2025-12-03T13:51:53.726Z</time>
</trkpt>
<trkpt lat="31.2089100" lon="35.3452300">
<ele>24.150000</ele>
<time>2025-12-03T13:51:53.726Z</time>
</trkpt>
<trkpt lat="31.2078000" lon="35.3455600">
<ele>20.290001</ele>
<time>2025-12-03T13:51:53.726Z</time>
</trkpt>
<trkpt lat="31.2078000" lon="35.3455600">
<ele>20.290001</ele>
<time>2025-12-03T13:51:53.726Z</time>
</trkpt>
<trkpt lat="31.2078000" lon="35.3455600">
<ele>20.290001</ele>
<time>2025-12-03T13:51:53.726Z</time>
</trkpt>
<trkpt lat="31.2077400" lon="35.3455800">
<ele>20.640001</ele>
<time>2025-12-03T13:51:53.726Z</time>
</trkpt>
<trkpt lat="31.2075400" lon="35.3456800">
<ele>22.759998</ele>
<time>2025-12-03T13:51:53.726Z</time>
</trkpt>
<trkpt lat="31.2073400" lon="35.3457100">
<ele>23.900000</ele>
<time>2025-12-03T13:51:53.726Z</time>
</trkpt>
<trkpt lat="31.2067800" lon="35.3459100">
<ele>23.859999</ele>
<time>2025-12-03T13:51:53.726Z</time>
</trkpt>
<trkpt lat="31.2063300" lon="35.3459500">
<ele>23.540001</ele>
<time>2025-12-03T13:51:53.726Z</time>
</trkpt>
<trkpt lat="31.2056900" lon="35.3464000">
<ele>26.520000</ele>
<time>2025-12-03T13:51:53.726Z</time>
</trkpt>
<trkpt lat="31.2054900" lon="35.3466500">
<ele>27.179998</ele>
<time>2025-12-03T13:51:53.726Z</time>
</trkpt>
<trkpt lat="31.2053900" lon="35.3468900">
<ele>29.360001</ele>
<time>2025-12-03T13:51:53.726Z</time>
</trkpt>
<trkpt lat="31.2053700" lon="35.3474600">
<ele>31.240000</ele>
<time>2025-12-03T13:51:53.726Z</time>
</trkpt>
<trkpt lat="31.2052400" lon="35.3475800">
<ele>29.710001</ele>
<time>2025-12-03T13:51:53.726Z</time>
</trkpt>
<trkpt lat="31.2049000" lon="35.3476800">
<ele>26.330000</ele>
<time>2025-12-03T13:51:53.726Z</time>
</trkpt>
<trkpt lat="31.2045500" lon="35.3478700">
<ele>23.750000</ele>
<time>2025-12-03T13:51:53.726Z</time>
</trkpt>
<trkpt lat="31.2043700" lon="35.3479600">
<ele>22.759998</ele>
<time>2025-12-03T13:51:53.726Z</time>
</trkpt>
<trkpt lat="31.2041300" lon="35.3480800">
<ele>21.680000</ele>
<time>2025-12-03T13:51:53.726Z</time>
</trkpt>
<trkpt lat="31.2039400" lon="35.3481500">
<ele>20.230000</ele>
<time>2025-12-03T13:51:53.726Z</time>
</trkpt>
<trkpt lat="31.2036600" lon="35.3481700">
<ele>18.940001</ele>
<time>2025-12-03T13:51:53.726Z</time>
</trkpt>
<trkpt lat="31.2031900" lon="35.3480700">
<ele>21.440001</ele>
<time>2025-12-03T13:51:53.726Z</time>
</trkpt>
<trkpt lat="31.2030200" lon="35.3481100">
<ele>21.219999</ele>
<time>2025-12-03T13:51:53.726Z</time>
</trkpt>
<trkpt lat="31.2026800" lon="35.3483000">
<ele>17.420000</ele>
<time>2025-12-03T13:51:53.726Z</time>
</trkpt>
<trkpt lat="31.2025200" lon="35.3484300">
<ele>18.250000</ele>
<time>2025-12-03T13:51:53.726Z</time>
</trkpt>
<trkpt lat="31.2023700" lon="35.3484600">
<ele>17.010000</ele>
<time>2025-12-03T13:51:53.726Z</time>
</trkpt>
<trkpt lat="31.2023700" lon="35.3484400">
<ele>16.870001</ele>
<time>2025-12-03T13:51:53.726Z</time>
</trkpt>
<trkpt lat="31.2023700" lon="35.3484600">
<ele>17.010000</ele>
<time>2025-12-03T13:51:53.726Z</time>
</trkpt>
<trkpt lat="31.2022500" lon="35.3484700">
<ele>15.780000</ele>
<time>2025-12-03T13:51:53.726Z</time>
</trkpt>
<trkpt lat="31.2021500" lon="35.3484600">
<ele>14.370000</ele>
<time>2025-12-03T13:51:53.726Z</time>
</trkpt>
<trkpt lat="31.2020300" lon="35.3484900">
<ele>12.750000</ele>
<time>2025-12-03T13:51:53.726Z</time>
</trkpt>
<trkpt lat="31.2018900" lon="35.3485200">
<ele>10.480000</ele>
<time>2025-12-03T13:51:53.726Z</time>
</trkpt>
<trkpt lat="31.2016800" lon="35.3485500">
<ele>7.200000</ele>
<time>2025-12-03T13:51:53.726Z</time>
</trkpt>
<trkpt lat="31.2015500" lon="35.3485600">
<ele>2.660000</ele>
<time>2025-12-03T13:51:53.726Z</time>
</trkpt>
<trkpt lat="31.2014600" lon="35.3486500">
<ele>-3.670000</ele>
<time>2025-12-03T13:51:53.726Z</time>
</trkpt>
<trkpt lat="31.2013500" lon="35.3486500">
<ele>-11.220000</ele>
<time>2025-12-03T13:51:53.726Z</time>
</trkpt>
<trkpt lat="31.2012800" lon="35.3485800">
<ele>-14.610000</ele>
<time>2025-12-03T13:51:53.726Z</time>
</trkpt>
<trkpt lat="31.2012000" lon="35.3485300">
<ele>-18.720001</ele>
<time>2025-12-03T13:51:53.726Z</time>
</trkpt>
<trkpt lat="31.2010900" lon="35.3485500">
<ele>-30.630001</ele>
<time>2025-12-03T13:51:53.726Z</time>
</trkpt>
<trkpt lat="31.2010600" lon="35.3484900">
<ele>-29.080000</ele>
<time>2025-12-03T13:51:53.726Z</time>
</trkpt>
<trkpt lat="31.2010800" lon="35.3484400">
<ele>-22.250000</ele>
<time>2025-12-03T13:51:53.726Z</time>
</trkpt>
<trkpt lat="31.2011300" lon="35.3484000">
<ele>-13.150000</ele>
<time>2025-12-03T13:51:53.726Z</time>
</trkpt>
<trkpt lat="31.2012300" lon="35.3484200">
<ele>-8.710000</ele>
<time>2025-12-03T13:51:53.726Z</time>
</trkpt>
<trkpt lat="31.2014000" lon="35.3483700">
<ele>2.980000</ele>
<time>2025-12-03T13:51:53.726Z</time>
</trkpt>
<trkpt lat="31.2015200" lon="35.3483300">
<ele>5.450000</ele>
<time>2025-12-03T13:51:53.726Z</time>
</trkpt>
<trkpt lat="31.2015300" lon="35.3482900">
<ele>5.990000</ele>
<time>2025-12-03T13:51:53.726Z</time>
</trkpt>
<trkpt lat="31.2015100" lon="35.3482200">
<ele>6.580000</ele>
<time>2025-12-03T13:51:53.726Z</time>
</trkpt>
<trkpt lat="31.2014400" lon="35.3481900">
<ele>6.430000</ele>
<time>2025-12-03T13:51:53.726Z</time>
</trkpt>
<trkpt lat="31.2013700" lon="35.3481700">
<ele>5.740000</ele>
<time>2025-12-03T13:51:53.726Z</time>
</trkpt>
<trkpt lat="31.2012800" lon="35.3481600">
<ele>3.020000</ele>
<time>2025-12-03T13:51:53.726Z</time>
</trkpt>
<trkpt lat="31.2011900" lon="35.3482100">
<ele>-1.230000</ele>
<time>2025-12-03T13:51:53.726Z</time>
</trkpt>
<trkpt lat="31.2010700" lon="35.3482200">
<ele>-10.020000</ele>
<time>2025-12-03T13:51:53.726Z</time>
</trkpt>
<trkpt lat="31.2009700" lon="35.3481700">
<ele>-20.790001</ele>
<time>2025-12-03T13:51:53.726Z</time>
</trkpt>
<trkpt lat="31.2009300" lon="35.3480600">
<ele>-18.219999</ele>
<time>2025-12-03T13:51:53.726Z</time>
</trkpt>
<trkpt lat="31.2009500" lon="35.3479500">
<ele>-10.210000</ele>
<time>2025-12-03T13:51:53.726Z</time>
</trkpt>
<trkpt lat="31.2010200" lon="35.3479000">
<ele>-3.350000</ele>
<time>2025-12-03T13:51:53.726Z</time>
</trkpt>
<trkpt lat="31.2011300" lon="35.3479100">
<ele>2.380000</ele>
<time>2025-12-03T13:51:53.726Z</time>
</trkpt>
<trkpt lat="31.2012500" lon="35.3478500">
<ele>4.500000</ele>
<time>2025-12-03T13:51:53.726Z</time>
</trkpt>
<trkpt lat="31.2014000" lon="35.3477900">
<ele>6.280000</ele>
<time>2025-12-03T13:51:53.726Z</time>
</trkpt>
<trkpt lat="31.2015000" lon="35.3477600">
<ele>8.030000</ele>
<time>2025-12-03T13:51:53.726Z</time>
</trkpt>
<trkpt lat="31.2016200" lon="35.3476900">
<ele>10.420000</ele>
<time>2025-12-03T13:51:53.726Z</time>
</trkpt>
<trkpt lat="31.2016900" lon="35.3476500">
<ele>11.540000</ele>
<time>2025-12-03T13:51:53.726Z</time>
</trkpt>
<trkpt lat="31.2017500" lon="35.3476200">
<ele>11.870000</ele>
<time>2025-12-03T13:51:53.726Z</time>
</trkpt>
<trkpt lat="31.2018400" lon="35.3476200">
<ele>12.190001</ele>
<time>2025-12-03T13:51:53.726Z</time>
</trkpt>
<trkpt lat="31.2019100" lon="35.3475200">
<ele>12.800000</ele>
<time>2025-12-03T13:51:53.726Z</time>
</trkpt>
<trkpt lat="31.2019000" lon="35.3474600">
<ele>12.700001</ele>
<time>2025-12-03T13:51:53.726Z</time>
</trkpt>
<trkpt lat="31.2011300" lon="35.3467400">
<ele>5.320000</ele>
<time>2025-12-03T13:51:53.726Z</time>
</trkpt>
<trkpt lat="31.2008300" lon="35.3465000">
<ele>6.620000</ele>
<time>2025-12-03T13:51:53.726Z</time>
</trkpt>
<trkpt lat="31.2003200" lon="35.3462700">
<ele>9.010000</ele>
<time>2025-12-03T13:51:53.726Z</time>
</trkpt>
<trkpt lat="31.2001700" lon="35.3461600">
<ele>9.190001</ele>
<time>2025-12-03T13:51:53.726Z</time>
</trkpt>
<trkpt lat="31.1996500" lon="35.3456900">
<ele>11.130000</ele>
<time>2025-12-03T13:51:53.726Z</time>
</trkpt>
<trkpt lat="31.1990800" lon="35.3452700">
<ele>13.080001</ele>
<time>2025-12-03T13:51:53.726Z</time>
</trkpt>
<trkpt lat="31.1988500" lon="35.3450400">
<ele>10.800000</ele>
<time>2025-12-03T13:51:53.726Z</time>
</trkpt>
<trkpt lat="31.1986800" lon="35.3448800">
<ele>10.460000</ele>
<time>2025-12-03T13:51:53.726Z</time>
</trkpt>
<trkpt lat="31.1986500" lon="35.3446400">
<ele>9.360001</ele>
<time>2025-12-03T13:51:53.726Z</time>
</trkpt>
<trkpt lat="31.1987600" lon="35.3443400">
<ele>7.130000</ele>
<time>2025-12-03T13:51:53.726Z</time>
</trkpt>
<trkpt lat="31.1990100" lon="35.3441000">
<ele>7.160000</ele>
<time>2025-12-03T13:51:53.726Z</time>
</trkpt>
<trkpt lat="31.1992100" lon="35.3439600">
<ele>10.210000</ele>
<time>2025-12-03T13:51:53.726Z</time>
</trkpt>
<trkpt lat="31.1994700" lon="35.3439800">
<ele>14.059999</ele>
<time>2025-12-03T13:51:53.726Z</time>
</trkpt>
<trkpt lat="31.1995900" lon="35.3441000">
<ele>14.800000</ele>
<time>2025-12-03T13:51:53.726Z</time>
</trkpt>
<trkpt lat="31.1997700" lon="35.3440800">
<ele>17.410000</ele>
<time>2025-12-03T13:51:53.726Z</time>
</trkpt>
<trkpt lat="31.1999700" lon="35.3441700">
<ele>24.010000</ele>
<time>2025-12-03T13:51:53.726Z</time>
</trkpt>
<trkpt lat="31.2000200" lon="35.3441400">
<ele>26.880001</ele>
<time>2025-12-03T13:51:53.726Z</time>
</trkpt>
<trkpt lat="31.2000000" lon="35.3440800">
<ele>27.179998</ele>
<time>2025-12-03T13:51:53.726Z</time>
</trkpt>
<trkpt lat="31.1998800" lon="35.3440200">
<ele>22.759998</ele>
<time>2025-12-03T13:51:53.726Z</time>
</trkpt>
<trkpt lat="31.1998100" lon="35.3439000">
<ele>19.650002</ele>
<time>2025-12-03T13:51:53.726Z</time>
</trkpt>
<trkpt lat="31.1996700" lon="35.3438200">
<ele>16.559999</ele>
<time>2025-12-03T13:51:53.726Z</time>
</trkpt>
<trkpt lat="31.1995300" lon="35.3438500">
<ele>14.809999</ele>
<time>2025-12-03T13:51:53.726Z</time>
</trkpt>
<trkpt lat="31.1993500" lon="35.3437800">
<ele>12.809999</ele>
<time>2025-12-03T13:51:53.726Z</time>
</trkpt>
<trkpt lat="31.1990400" lon="35.3438000">
<ele>4.260000</ele>
<time>2025-12-03T13:51:53.726Z</time>
</trkpt>
<trkpt lat="31.1989100" lon="35.3438400">
<ele>0.330000</ele>
<time>2025-12-03T13:51:53.726Z</time>
</trkpt>
<trkpt lat="31.1987400" lon="35.3439500">
<ele>-0.520000</ele>
<time>2025-12-03T13:51:53.726Z</time>
</trkpt>
<trkpt lat="31.1985600" lon="35.3439000">
<ele>-3.400000</ele>
<time>2025-12-03T13:51:53.726Z</time>
</trkpt>
<trkpt lat="31.1984000" lon="35.3437700">
<ele>-5.590000</ele>
<time>2025-12-03T13:51:53.726Z</time>
</trkpt>
<trkpt lat="31.1984000" lon="35.3437700">
<ele>-5.590000</ele>
<time>2025-12-03T13:51:53.726Z</time>
</trkpt>
<trkpt lat="31.1984000" lon="35.3437700">
<ele>-5.590000</ele>
<time>2025-12-03T13:51:53.726Z</time>
</trkpt>
<trkpt lat="31.1980700" lon="35.3434800">
<ele>-7.100000</ele>
<time>2025-12-03T13:51:53.726Z</time>
</trkpt>
<trkpt lat="31.1979200" lon="35.3432500">
<ele>-4.110000</ele>
<time>2025-12-03T13:51:53.726Z</time>
</trkpt>
<trkpt lat="31.1978300" lon="35.3431800">
<ele>-3.000000</ele>
<time>2025-12-03T13:51:53.726Z</time>
</trkpt>
<trkpt lat="31.1977200" lon="35.3431300">
<ele>-2.580000</ele>
<time>2025-12-03T13:51:53.726Z</time>
</trkpt>
<trkpt lat="31.1976700" lon="35.3430500">
<ele>-2.120000</ele>
<time>2025-12-03T13:51:53.726Z</time>
</trkpt>
<trkpt lat="31.1976600" lon="35.3429000">
<ele>-1.150000</ele>
<time>2025-12-03T13:51:53.726Z</time>
</trkpt>
<trkpt lat="31.1975900" lon="35.3427700">
<ele>-1.020000</ele>
<time>2025-12-03T13:51:53.726Z</time>
</trkpt>
<trkpt lat="31.1973700" lon="35.3425200">
<ele>-4.770000</ele>
<time>2025-12-03T13:51:53.726Z</time>
</trkpt>
<trkpt lat="31.1972700" lon="35.3423400">
<ele>-6.210000</ele>
<time>2025-12-03T13:51:53.726Z</time>
</trkpt>
<trkpt lat="31.1971700" lon="35.3421800">
<ele>-6.540000</ele>
<time>2025-12-03T13:51:53.726Z</time>
</trkpt>
<trkpt lat="31.1970700" lon="35.3417500">
<ele>-4.790000</ele>
<time>2025-12-03T13:51:53.726Z</time>
</trkpt>
<trkpt lat="31.1968500" lon="35.3415400">
<ele>-1.080000</ele>
<time>2025-12-03T13:51:53.726Z</time>
</trkpt>
<trkpt lat="31.1967200" lon="35.3410700">
<ele>3.790000</ele>
<time>2025-12-03T13:51:53.726Z</time>
</trkpt>
<trkpt lat="31.1966800" lon="35.3410200">
<ele>4.250000</ele>
<time>2025-12-03T13:51:53.726Z</time>
</trkpt>
<trkpt lat="31.1966800" lon="35.3410200">
<ele>4.250000</ele>
<time>2025-12-03T13:51:53.726Z</time>
</trkpt>
<trkpt lat="31.1966800" lon="35.3410100">
<ele>4.290000</ele>
<time>2025-12-03T13:51:53.726Z</time>
</trkpt>
<trkpt lat="31.1966100" lon="35.3410000">
<ele>4.030000</ele>
<time>2025-12-03T13:51:53.726Z</time>
</trkpt>
<trkpt lat="31.1964600" lon="35.3411100">
<ele>3.250000</ele>
<time>2025-12-03T13:51:53.726Z</time>
</trkpt>
<trkpt lat="31.1962700" lon="35.3411900">
<ele>1.290000</ele>
<time>2025-12-03T13:51:53.726Z</time>
</trkpt>
<trkpt lat="31.1961200" lon="35.3413600">
<ele>-1.620000</ele>
<time>2025-12-03T13:51:53.726Z</time>
</trkpt>
<trkpt lat="31.1960000" lon="35.3414600">
<ele>-4.160000</ele>
<time>2025-12-03T13:51:53.726Z</time>
</trkpt>
<trkpt lat="31.1959300" lon="35.3416100">
<ele>-8.970000</ele>
<time>2025-12-03T13:51:53.726Z</time>
</trkpt>
<trkpt lat="31.1958700" lon="35.3416600">
<ele>-13.560000</ele>
<time>2025-12-03T13:51:53.726Z</time>
</trkpt>
<trkpt lat="31.1958100" lon="35.3416400">
<ele>-17.620001</ele>
<time>2025-12-03T13:51:53.726Z</time>
</trkpt>
<trkpt lat="31.1958100" lon="35.3416400">
<ele>-17.620001</ele>
<time>2025-12-03T13:51:53.726Z</time>
</trkpt>
<trkpt lat="31.1958700" lon="35.3416600">
<ele>-13.560000</ele>
<time>2025-12-03T13:51:53.726Z</time>
</trkpt>
<trkpt lat="31.1959300" lon="35.3416100">
<ele>-8.970000</ele>
<time>2025-12-03T13:51:53.726Z</time>
</trkpt>
<trkpt lat="31.1960000" lon="35.3414600">
<ele>-4.160000</ele>
<time>2025-12-03T13:51:53.726Z</time>
</trkpt>
<trkpt lat="31.1961200" lon="35.3413600">
<ele>-1.620000</ele>
<time>2025-12-03T13:51:53.726Z</time>
</trkpt>
<trkpt lat="31.1962700" lon="35.3411900">
<ele>1.290000</ele>
<time>2025-12-03T13:51:53.726Z</time>
</trkpt>
<trkpt lat="31.1964600" lon="35.3411100">
<ele>3.250000</ele>
<time>2025-12-03T13:51:53.726Z</time>
</trkpt>
<trkpt lat="31.1966100" lon="35.3410000">
<ele>4.030000</ele>
<time>2025-12-03T13:51:53.726Z</time>
</trkpt>
<trkpt lat="31.1966800" lon="35.3410100">
<ele>4.290000</ele>
<time>2025-12-03T13:51:53.726Z</time>
</trkpt>
<trkpt lat="31.1966800" lon="35.3410200">
<ele>4.250000</ele>
<time>2025-12-03T13:51:53.726Z</time>
</trkpt>
<trkpt lat="31.1966800" lon="35.3410200">
<ele>4.250000</ele>
<time>2025-12-03T13:51:53.726Z</time>
</trkpt>
<trkpt lat="31.1966800" lon="35.3410100">
<ele>4.290000</ele>
<time>2025-12-03T13:51:53.726Z</time>
</trkpt>
<trkpt lat="31.1966100" lon="35.3410000">
<ele>4.030000</ele>
<time>2025-12-03T13:51:53.726Z</time>
</trkpt>
<trkpt lat="31.1964600" lon="35.3411100">
<ele>3.250000</ele>
<time>2025-12-03T13:51:53.726Z</time>
</trkpt>
<trkpt lat="31.1962700" lon="35.3411900">
<ele>1.290000</ele>
<time>2025-12-03T13:51:53.726Z</time>
</trkpt>
<trkpt lat="31.1961200" lon="35.3413600">
<ele>-1.620000</ele>
<time>2025-12-03T13:51:53.726Z</time>
</trkpt>
<trkpt lat="31.1960000" lon="35.3414600">
<ele>-4.160000</ele>
<time>2025-12-03T13:51:53.726Z</time>
</trkpt>
<trkpt lat="31.1959300" lon="35.3416100">
<ele>-8.970000</ele>
<time>2025-12-03T13:51:53.726Z</time>
</trkpt>
<trkpt lat="31.1958700" lon="35.3416600">
<ele>-13.560000</ele>
<time>2025-12-03T13:51:53.726Z</time>
</trkpt>
<trkpt lat="31.1957800" lon="35.3416400">
<ele>-20.929998</ele>
<time>2025-12-03T13:51:53.726Z</time>
</trkpt>
<trkpt lat="31.1957400" lon="35.3414700">
<ele>-16.340000</ele>
<time>2025-12-03T13:51:53.726Z</time>
</trkpt>
<trkpt lat="31.1957400" lon="35.3413600">
<ele>-11.419999</ele>
<time>2025-12-03T13:51:53.726Z</time>
</trkpt>
<trkpt lat="31.1957400" lon="35.3413600">
<ele>-11.419999</ele>
<time>2025-12-03T13:51:53.726Z</time>
</trkpt>
<trkpt lat="31.1957400" lon="35.3413300">
<ele>-10.770000</ele>
<time>2025-12-03T13:51:53.726Z</time>
</trkpt>
<trkpt lat="31.1958200" lon="35.3411800">
<ele>-4.280000</ele>
<time>2025-12-03T13:51:53.726Z</time>
</trkpt>
<trkpt lat="31.1959200" lon="35.3406700">
<ele>0.430000</ele>
<time>2025-12-03T13:51:53.726Z</time>
</trkpt>
<trkpt lat="31.1958900" lon="35.3406300">
<ele>0.570000</ele>
<time>2025-12-03T13:51:53.726Z</time>
</trkpt>
<trkpt lat="31.1958400" lon="35.3406200">
<ele>0.550000</ele>
<time>2025-12-03T13:51:53.726Z</time>
</trkpt>
<trkpt lat="31.1957000" lon="35.3406400">
<ele>-1.820000</ele>
<time>2025-12-03T13:51:53.726Z</time>
</trkpt>
<trkpt lat="31.1954900" lon="35.3405000">
<ele>-2.840000</ele>
<time>2025-12-03T13:51:53.726Z</time>
</trkpt>
<trkpt lat="31.1953500" lon="35.3403500">
<ele>-2.260000</ele>
<time>2025-12-03T13:51:53.726Z</time>
</trkpt>
<trkpt lat="31.1952400" lon="35.3404000">
<ele>-2.900000</ele>
<time>2025-12-03T13:51:53.726Z</time>
</trkpt>
<trkpt lat="31.1950300" lon="35.3403300">
<ele>-2.930000</ele>
<time>2025-12-03T13:51:53.726Z</time>
</trkpt>
<trkpt lat="31.1949200" lon="35.3402700">
<ele>-5.050000</ele>
<time>2025-12-03T13:51:53.726Z</time>
</trkpt>
<trkpt lat="31.1948900" lon="35.3402100">
<ele>-5.970000</ele>
<time>2025-12-03T13:51:53.726Z</time>
</trkpt>
<trkpt lat="31.1948900" lon="35.3402100">
<ele>-5.970000</ele>
<time>2025-12-03T13:51:53.726Z</time>
</trkpt>
<trkpt lat="31.1948900" lon="35.3402100">
<ele>-5.970000</ele>
<time>2025-12-03T13:51:53.726Z</time>
</trkpt>
<trkpt lat="31.1948200" lon="35.3400900">
<ele>-7.570000</ele>
<time>2025-12-03T13:51:53.726Z</time>
</trkpt>
<trkpt lat="31.1947700" lon="35.3398900">
<ele>-8.900000</ele>
<time>2025-12-03T13:51:53.726Z</time>
</trkpt>
<trkpt lat="31.1948300" lon="35.3396000">
<ele>-9.430000</ele>
<time>2025-12-03T13:51:53.726Z</time>
</trkpt>
<trkpt lat="31.1947000" lon="35.3393500">
<ele>-14.330000</ele>
<time>2025-12-03T13:51:53.726Z</time>
</trkpt>
<trkpt lat="31.1946100" lon="35.3394400">
<ele>-12.410000</ele>
<time>2025-12-03T13:51:53.726Z</time>
</trkpt>
<trkpt lat="31.1945000" lon="35.3394700">
<ele>-10.740001</ele>
<time>2025-12-03T13:51:53.726Z</time>
</trkpt>
<trkpt lat="31.1945000" lon="35.3394700">
<ele>-10.740001</ele>
<time>2025-12-03T13:51:53.726Z</time>
</trkpt>
<trkpt lat="31.1944600" lon="35.3394800">
<ele>-10.200000</ele>
<time>2025-12-03T13:51:53.726Z</time>
</trkpt>
<trkpt lat="31.1943000" lon="35.3394200">
<ele>-8.910000</ele>
<time>2025-12-03T13:51:53.726Z</time>
</trkpt>
<trkpt lat="31.1942300" lon="35.3394300">
<ele>-8.390000</ele>
<time>2025-12-03T13:51:53.726Z</time>
</trkpt>
<trkpt lat="31.1942300" lon="35.3395100">
<ele>-8.090000</ele>
<time>2025-12-03T13:51:53.726Z</time>
</trkpt>
<trkpt lat="31.1943700" lon="35.3396300">
<ele>-9.110000</ele>
<time>2025-12-03T13:51:53.726Z</time>
</trkpt>
<trkpt lat="31.1943200" lon="35.3398000">
<ele>-7.930000</ele>
<time>2025-12-03T13:51:53.726Z</time>
</trkpt>
<trkpt lat="31.1943500" lon="35.3399800">
<ele>-7.710000</ele>
<time>2025-12-03T13:51:53.726Z</time>
</trkpt>
<trkpt lat="31.1943900" lon="35.3401400">
<ele>-8.309999</ele>
<time>2025-12-03T13:51:53.726Z</time>
</trkpt>
<trkpt lat="31.1943600" lon="35.3403300">
<ele>-8.190001</ele>
<time>2025-12-03T13:51:53.726Z</time>
</trkpt>
<trkpt lat="31.1943800" lon="35.3405200">
<ele>-8.440000</ele>
<time>2025-12-03T13:51:53.726Z</time>
</trkpt>
<trkpt lat="31.1943200" lon="35.3404200">
<ele>-8.290000</ele>
<time>2025-12-03T13:51:53.726Z</time>
</trkpt>
<trkpt lat="31.1943300" lon="35.3401600">
<ele>-7.590000</ele>
<time>2025-12-03T13:51:53.726Z</time>
</trkpt>
<trkpt lat="31.1941900" lon="35.3399400">
<ele>-5.550000</ele>
<time>2025-12-03T13:51:53.726Z</time>
</trkpt>
<trkpt lat="31.1942000" lon="35.3397900">
<ele>-6.240000</ele>
<time>2025-12-03T13:51:53.726Z</time>
</trkpt>
<trkpt lat="31.1941600" lon="35.3397400">
<ele>-5.820000</ele>
<time>2025-12-03T13:51:53.726Z</time>
</trkpt>
<trkpt lat="31.1941100" lon="35.3397800">
<ele>-4.810000</ele>
<time>2025-12-03T13:51:53.726Z</time>
</trkpt>
<trkpt lat="31.1941100" lon="35.3398800">
<ele>-4.530000</ele>
<time>2025-12-03T13:51:53.726Z</time>
</trkpt>
<trkpt lat="31.1941500" lon="35.3399800">
<ele>-4.830000</ele>
<time>2025-12-03T13:51:53.726Z</time>
</trkpt>
<trkpt lat="31.1942300" lon="35.3401200">
<ele>-6.250000</ele>
<time>2025-12-03T13:51:53.726Z</time>
</trkpt>
<trkpt lat="31.1942000" lon="35.3402100">
<ele>-6.150000</ele>
<time>2025-12-03T13:51:53.726Z</time>
</trkpt>
<trkpt lat="31.1941800" lon="35.3402400">
<ele>-6.010000</ele>
<time>2025-12-03T13:51:53.726Z</time>
</trkpt>
<trkpt lat="31.1941800" lon="35.3402400">
<ele>-6.010000</ele>
<time>2025-12-03T13:51:53.726Z</time>
</trkpt>
<trkpt lat="31.1941800" lon="35.3402400">
<ele>-6.010000</ele>
<time>2025-12-03T13:51:53.726Z</time>
</trkpt>
<trkpt lat="31.1941300" lon="35.3403100">
<ele>-5.360000</ele>
<time>2025-12-03T13:51:53.726Z</time>
</trkpt>
<trkpt lat="31.1940700" lon="35.3403400">
<ele>-3.880000</ele>
<time>2025-12-03T13:51:53.726Z</time>
</trkpt>
<trkpt lat="31.1941400" lon="35.3405200">
<ele>-8.470000</ele>
<time>2025-12-03T13:51:53.726Z</time>
</trkpt>
<trkpt lat="31.1940900" lon="35.3407400">
<ele>-8.840000</ele>
<time>2025-12-03T13:51:53.726Z</time>
</trkpt>
<trkpt lat="31.1940700" lon="35.3411500">
<ele>-13.390000</ele>
<time>2025-12-03T13:51:53.726Z</time>
</trkpt>
<trkpt lat="31.1939900" lon="35.3415400">
<ele>-14.030000</ele>
<time>2025-12-03T13:51:53.726Z</time>
</trkpt>
<trkpt lat="31.1939900" lon="35.3415400">
<ele>-14.030000</ele>
<time>2025-12-03T13:51:53.726Z</time>
</trkpt>
<trkpt lat="31.1939900" lon="35.3415500">
<ele>-14.020000</ele>
<time>2025-12-03T13:51:53.726Z</time>
</trkpt>
<trkpt lat="31.1938000" lon="35.3411800">
<ele>-4.170000</ele>
<time>2025-12-03T13:51:53.726Z</time>
</trkpt>
<trkpt lat="31.1933000" lon="35.3403700">
<ele>11.160000</ele>
<time>2025-12-03T13:51:53.726Z</time>
</trkpt>
<trkpt lat="31.1932700" lon="35.3402800">
<ele>11.010000</ele>
<time>2025-12-03T13:51:53.726Z</time>
</trkpt>
<trkpt lat="31.1932700" lon="35.3402800">
<ele>11.010000</ele>
<time>2025-12-03T13:51:53.726Z</time>
</trkpt>
<trkpt lat="31.1931700" lon="35.3400400">
<ele>8.580000</ele>
<time>2025-12-03T13:51:53.726Z</time>
</trkpt>
<trkpt lat="31.1931200" lon="35.3398400">
<ele>5.750000</ele>
<time>2025-12-03T13:51:53.726Z</time>
</trkpt>
<trkpt lat="31.1930700" lon="35.3396900">
<ele>3.030000</ele>
<time>2025-12-03T13:51:53.726Z</time>
</trkpt>
<trkpt lat="31.1929000" lon="35.3394300">
<ele>1.470000</ele>
<time>2025-12-03T13:51:53.726Z</time>
</trkpt>
<trkpt lat="31.1928400" lon="35.3393600">
<ele>1.460000</ele>
<time>2025-12-03T13:51:53.726Z</time>
</trkpt>
<trkpt lat="31.1926800" lon="35.3391000">
<ele>2.830000</ele>
<time>2025-12-03T13:51:53.726Z</time>
</trkpt>
<trkpt lat="31.1926800" lon="35.3391000">
<ele>2.830000</ele>
<time>2025-12-03T13:51:53.726Z</time>
</trkpt>
<trkpt lat="31.1926800" lon="35.3391000">
<ele>2.830000</ele>
<time>2025-12-03T13:51:53.726Z</time>
</trkpt>
<trkpt lat="31.1926400" lon="35.3390200">
<ele>3.550000</ele>
<time>2025-12-03T13:51:53.726Z</time>
</trkpt>
<trkpt lat="31.1926400" lon="35.3387900">
<ele>3.790000</ele>
<time>2025-12-03T13:51:53.726Z</time>
</trkpt>
<trkpt lat="31.1927500" lon="35.3385200">
<ele>2.570000</ele>
<time>2025-12-03T13:51:53.726Z</time>
</trkpt>
<trkpt lat="31.1928100" lon="35.3383300">
<ele>1.980000</ele>
<time>2025-12-03T13:51:53.726Z</time>
</trkpt>
<trkpt lat="31.1928000" lon="35.3380800">
<ele>0.320000</ele>
<time>2025-12-03T13:51:53.726Z</time>
</trkpt>
<trkpt lat="31.1928500" lon="35.3379600">
<ele>-0.350000</ele>
<time>2025-12-03T13:51:53.726Z</time>
</trkpt>
<trkpt lat="31.1929000" lon="35.3378500">
<ele>-1.250000</ele>
<time>2025-12-03T13:51:53.726Z</time>
</trkpt>
<trkpt lat="31.1930000" lon="35.3377500">
<ele>-2.020000</ele>
<time>2025-12-03T13:51:53.726Z</time>
</trkpt>
<trkpt lat="31.1929900" lon="35.3377200">
<ele>-2.050000</ele>
<time>2025-12-03T13:51:53.726Z</time>
</trkpt>
<trkpt lat="31.1929900" lon="35.3376600">
<ele>-2.100000</ele>
<time>2025-12-03T13:51:53.726Z</time>
</trkpt>
<trkpt lat="31.1928500" lon="35.3375400">
<ele>-2.630000</ele>
<time>2025-12-03T13:51:53.726Z</time>
</trkpt>
<trkpt lat="31.1928100" lon="35.3374100">
<ele>-2.560000</ele>
<time>2025-12-03T13:51:53.726Z</time>
</trkpt>
<trkpt lat="31.1928100" lon="35.3374100">
<ele>-2.560000</ele>
<time>2025-12-03T13:51:53.726Z</time>
</trkpt>
<trkpt lat="31.1928100" lon="35.3374100">
<ele>-2.560000</ele>
<time>2025-12-03T13:51:53.726Z</time>
</trkpt>
<trkpt lat="31.1928200" lon="35.3371300">
<ele>-1.470000</ele>
<time>2025-12-03T13:51:53.726Z</time>
</trkpt>
<trkpt lat="31.1926300" lon="35.3368900">
<ele>0.460000</ele>
<time>2025-12-03T13:51:53.726Z</time>
</trkpt>
<trkpt lat="31.1925700" lon="35.3366700">
<ele>2.470000</ele>
<time>2025-12-03T13:51:53.726Z</time>
</trkpt>
<trkpt lat="31.1922800" lon="35.3364200">
<ele>7.240000</ele>
<time>2025-12-03T13:51:53.726Z</time>
</trkpt>
<trkpt lat="31.1922200" lon="35.3362700">
<ele>8.400000</ele>
<time>2025-12-03T13:51:53.726Z</time>
</trkpt>
<trkpt lat="31.1921500" lon="35.3362100">
<ele>7.530000</ele>
<time>2025-12-03T13:51:53.726Z</time>
</trkpt>
<trkpt lat="31.1920500" lon="35.3363700">
<ele>6.120000</ele>
<time>2025-12-03T13:51:53.726Z</time>
</trkpt>
<trkpt lat="31.1918100" lon="35.3364000">
<ele>5.040000</ele>
<time>2025-12-03T13:51:53.726Z</time>
</trkpt>
<trkpt lat="31.1916800" lon="35.3365600">
<ele>5.620000</ele>
<time>2025-12-03T13:51:53.726Z</time>
</trkpt>
<trkpt lat="31.1914500" lon="35.3367000">
<ele>4.680000</ele>
<time>2025-12-03T13:51:53.726Z</time>
</trkpt>
<trkpt lat="31.1912000" lon="35.3367700">
<ele>5.170000</ele>
<time>2025-12-03T13:51:53.726Z</time>
</trkpt>
<trkpt lat="31.1910300" lon="35.3367600">
<ele>6.500000</ele>
<time>2025-12-03T13:51:53.726Z</time>
</trkpt>
<trkpt lat="31.1908700" lon="35.3368100">
<ele>8.990000</ele>
<time>2025-12-03T13:51:53.726Z</time>
</trkpt>
<trkpt lat="31.1907100" lon="35.3368600">
<ele>9.969999</ele>
<time>2025-12-03T13:51:53.726Z</time>
</trkpt>
<trkpt lat="31.1904400" lon="35.3368500">
<ele>11.310000</ele>
<time>2025-12-03T13:51:53.726Z</time>
</trkpt>
<trkpt lat="31.1904400" lon="35.3368500">
<ele>11.310000</ele>
<time>2025-12-03T13:51:53.726Z</time>
</trkpt>
<trkpt lat="31.1901900" lon="35.3369100">
<ele>12.880000</ele>
<time>2025-12-03T13:51:53.726Z</time>
</trkpt>
<trkpt lat="31.1897200" lon="35.3371100">
<ele>11.820000</ele>
<time>2025-12-03T13:51:53.726Z</time>
</trkpt>
<trkpt lat="31.1896200" lon="35.3370800">
<ele>12.389999</ele>
<time>2025-12-03T13:51:53.726Z</time>
</trkpt>
<trkpt lat="31.1893700" lon="35.3368300">
<ele>14.670000</ele>
<time>2025-12-03T13:51:53.726Z</time>
</trkpt>
<trkpt lat="31.1891900" lon="35.3367200">
<ele>15.440000</ele>
<time>2025-12-03T13:51:53.726Z</time>
</trkpt>
<trkpt lat="31.1891000" lon="35.3368000">
<ele>14.790000</ele>
<time>2025-12-03T13:51:53.726Z</time>
</trkpt>
<trkpt lat="31.1890900" lon="35.3370700">
<ele>12.730000</ele>
<time>2025-12-03T13:51:53.726Z</time>
</trkpt>
<trkpt lat="31.1890300" lon="35.3371700">
<ele>11.969999</ele>
<time>2025-12-03T13:51:53.726Z</time>
</trkpt>
<trkpt lat="31.1890400" lon="35.3371800">
<ele>11.900001</ele>
<time>2025-12-03T13:51:53.726Z</time>
</trkpt>
<trkpt lat="31.1890400" lon="35.3371800">
<ele>11.900001</ele>
<time>2025-12-03T13:51:53.726Z</time>
</trkpt>
<trkpt lat="31.1890300" lon="35.3371700">
<ele>11.969999</ele>
<time>2025-12-03T13:51:53.726Z</time>
</trkpt>
<trkpt lat="31.1890000" lon="35.3372300">
<ele>11.450000</ele>
<time>2025-12-03T13:51:53.726Z</time>
</trkpt>
<trkpt lat="31.1888100" lon="35.3372400">
<ele>11.460000</ele>
<time>2025-12-03T13:51:53.726Z</time>
</trkpt>
<trkpt lat="31.1886800" lon="35.3373000">
<ele>12.380000</ele>
<time>2025-12-03T13:51:53.726Z</time>
</trkpt>
<trkpt lat="31.1884800" lon="35.3373500">
<ele>14.160000</ele>
<time>2025-12-03T13:51:53.726Z</time>
</trkpt>
<trkpt lat="31.1881600" lon="35.3375700">
<ele>15.530000</ele>
<time>2025-12-03T13:51:53.726Z</time>
</trkpt>
<trkpt lat="31.1877500" lon="35.3374800">
<ele>18.219999</ele>
<time>2025-12-03T13:51:53.726Z</time>
</trkpt>
<trkpt lat="31.1872700" lon="35.3371600">
<ele>18.520000</ele>
<time>2025-12-03T13:51:53.726Z</time>
</trkpt>
<trkpt lat="31.1871100" lon="35.3370000">
<ele>18.400000</ele>
<time>2025-12-03T13:51:53.726Z</time>
</trkpt>
<trkpt lat="31.1866800" lon="35.3364900">
<ele>21.269999</ele>
<time>2025-12-03T13:51:53.726Z</time>
</trkpt>
<trkpt lat="31.1863500" lon="35.3361400">
<ele>22.830000</ele>
<time>2025-12-03T13:51:53.726Z</time>
</trkpt>
<trkpt lat="31.1860500" lon="35.3358100">
<ele>21.650000</ele>
<time>2025-12-03T13:51:53.726Z</time>
</trkpt>
<trkpt lat="31.1853800" lon="35.3349900">
<ele>24.260000</ele>
<time>2025-12-03T13:51:53.726Z</time>
</trkpt>
<trkpt lat="31.1851900" lon="35.3347200">
<ele>27.690001</ele>
<time>2025-12-03T13:51:53.726Z</time>
</trkpt>
<trkpt lat="31.1850100" lon="35.3345800">
<ele>27.549999</ele>
<time>2025-12-03T13:51:53.726Z</time>
</trkpt>
<trkpt lat="31.1849000" lon="35.3345100">
<ele>28.589998</ele>
<time>2025-12-03T13:51:53.726Z</time>
</trkpt>
<trkpt lat="31.1844700" lon="35.3343600">
<ele>30.670000</ele>
<time>2025-12-03T13:51:53.726Z</time>
</trkpt>
<trkpt lat="31.1844100" lon="35.3343000">
<ele>30.660000</ele>
<time>2025-12-03T13:51:53.726Z</time>
</trkpt>
<trkpt lat="31.1842400" lon="35.3340600">
<ele>29.980000</ele>
<time>2025-12-03T13:51:53.726Z</time>
</trkpt>
<trkpt lat="31.1841500" lon="35.3339800">
<ele>30.730001</ele>
<time>2025-12-03T13:51:53.726Z</time>
</trkpt>
<trkpt lat="31.1840900" lon="35.3339500">
<ele>31.240000</ele>
<time>2025-12-03T13:51:53.726Z</time>
</trkpt>
<trkpt lat="31.1839900" lon="35.3340100">
<ele>30.810001</ele>
<time>2025-12-03T13:51:53.726Z</time>
</trkpt>
<trkpt lat="31.1838600" lon="35.3340600">
<ele>30.940001</ele>
<time>2025-12-03T13:51:53.726Z</time>
</trkpt>
<trkpt lat="31.1837100" lon="35.3340000">
<ele>32.100002</ele>
<time>2025-12-03T13:51:53.726Z</time>
</trkpt>
<trkpt lat="31.1836600" lon="35.3339400">
<ele>32.610001</ele>
<time>2025-12-03T13:51:53.726Z</time>
</trkpt>
<trkpt lat="31.1836800" lon="35.3338800">
<ele>32.880001</ele>
<time>2025-12-03T13:51:53.726Z</time>
</trkpt>
<trkpt lat="31.1838800" lon="35.3338700">
<ele>32.299999</ele>
<time>2025-12-03T13:51:53.726Z</time>
</trkpt>
<trkpt lat="31.1839000" lon="35.3338200">
<ele>32.950001</ele>
<time>2025-12-03T13:51:53.726Z</time>
</trkpt>
<trkpt lat="31.1837700" lon="35.3337200">
<ele>34.860001</ele>
<time>2025-12-03T13:51:53.726Z</time>
</trkpt>
<trkpt lat="31.1837100" lon="35.3336000">
<ele>36.790001</ele>
<time>2025-12-03T13:51:53.726Z</time>
</trkpt>
<trkpt lat="31.1836400" lon="35.3335600">
<ele>37.610001</ele>
<time>2025-12-03T13:51:53.726Z</time>
</trkpt>
<trkpt lat="31.1835900" lon="35.3335000">
<ele>38.489998</ele>
<time>2025-12-03T13:51:53.726Z</time>
</trkpt>
<trkpt lat="31.1835900" lon="35.3335000">
<ele>38.489998</ele>
<time>2025-12-03T13:51:53.726Z</time>
</trkpt>
<trkpt lat="31.1835700" lon="35.3334800">
<ele>38.670002</ele>
<time>2025-12-03T13:51:53.726Z</time>
</trkpt>
<trkpt lat="31.1834600" lon="35.3334800">
<ele>38.090000</ele>
<time>2025-12-03T13:51:53.726Z</time>
</trkpt>
<trkpt lat="31.1831800" lon="35.3332900">
<ele>38.599998</ele>
<time>2025-12-03T13:51:53.726Z</time>
</trkpt>
<trkpt lat="31.1825400" lon="35.3328400">
<ele>41.179996</ele>
<time>2025-12-03T13:51:53.726Z</time>
</trkpt>
<trkpt lat="31.1824000" lon="35.3326500">
<ele>41.919998</ele>
<time>2025-12-03T13:51:53.726Z</time>
</trkpt>
<trkpt lat="31.1824100" lon="35.3325700">
<ele>42.500000</ele>
<time>2025-12-03T13:51:53.726Z</time>
</trkpt>
<trkpt lat="31.1825000" lon="35.3325600">
<ele>42.570000</ele>
<time>2025-12-03T13:51:53.726Z</time>
</trkpt>
<trkpt lat="31.1827600" lon="35.3325700">
<ele>48.099998</ele>
<time>2025-12-03T13:51:53.726Z</time>
</trkpt>
<trkpt lat="31.1829300" lon="35.3325100">
<ele>46.519997</ele>
<time>2025-12-03T13:51:53.726Z</time>
</trkpt>
<trkpt lat="31.1830400" lon="35.3323900">
<ele>47.329998</ele>
<time>2025-12-03T13:51:53.726Z</time>
</trkpt>
<trkpt lat="31.1830700" lon="35.3322800">
<ele>50.070000</ele>
<time>2025-12-03T13:51:53.726Z</time>
</trkpt>
<trkpt lat="31.1830300" lon="35.3321600">
<ele>52.509998</ele>
<time>2025-12-03T13:51:53.726Z</time>
</trkpt>
<trkpt lat="31.1827900" lon="35.3319200">
<ele>54.480000</ele>
<time>2025-12-03T13:51:53.726Z</time>
</trkpt>
<trkpt lat="31.1826400" lon="35.3319300">
<ele>52.820000</ele>
<time>2025-12-03T13:51:53.726Z</time>
</trkpt>
<trkpt lat="31.1824200" lon="35.3318000">
<ele>53.760002</ele>
<time>2025-12-03T13:51:53.726Z</time>
</trkpt>
<trkpt lat="31.1822700" lon="35.3317300">
<ele>53.470001</ele>
<time>2025-12-03T13:51:53.726Z</time>
</trkpt>
<trkpt lat="31.1819900" lon="35.3317900">
<ele>50.670002</ele>
<time>2025-12-03T13:51:53.726Z</time>
</trkpt>
<trkpt lat="31.1818900" lon="35.3317700">
<ele>51.740002</ele>
<time>2025-12-03T13:51:53.726Z</time>
</trkpt>
<trkpt lat="31.1816400" lon="35.3317700">
<ele>55.080002</ele>
<time>2025-12-03T13:51:53.726Z</time>
</trkpt>
<trkpt lat="31.1814800" lon="35.3319100">
<ele>54.489998</ele>
<time>2025-12-03T13:51:53.726Z</time>
</trkpt>
<trkpt lat="31.1813900" lon="35.3319300">
<ele>56.230000</ele>
<time>2025-12-03T13:51:53.726Z</time>
</trkpt>
<trkpt lat="31.1813900" lon="35.3319300">
<ele>56.230000</ele>
<time>2025-12-03T13:51:53.726Z</time>
</trkpt>
<trkpt lat="31.1813900" lon="35.3319300">
<ele>56.230000</ele>
<time>2025-12-03T13:51:53.726Z</time>
</trkpt>
<trkpt lat="31.1813900" lon="35.3319300">
<ele>56.230000</ele>
<time>2025-12-03T13:51:53.726Z</time>
</trkpt>
<trkpt lat="31.1812300" lon="35.3319500">
<ele>55.860001</ele>
<time>2025-12-03T13:51:53.726Z</time>
</trkpt>
<trkpt lat="31.1810800" lon="35.3319300">
<ele>55.879997</ele>
<time>2025-12-03T13:51:53.726Z</time>
</trkpt>
<trkpt lat="31.1808300" lon="35.3320400">
<ele>49.919998</ele>
<time>2025-12-03T13:51:53.726Z</time>
</trkpt>
<trkpt lat="31.1807100" lon="35.3320600">
<ele>48.840000</ele>
<time>2025-12-03T13:51:53.726Z</time>
</trkpt>
<trkpt lat="31.1805800" lon="35.3321800">
<ele>43.180000</ele>
<time>2025-12-03T13:51:53.726Z</time>
</trkpt>
<trkpt lat="31.1798700" lon="35.3325500">
<ele>51.369999</ele>
<time>2025-12-03T13:51:53.726Z</time>
</trkpt>
<trkpt lat="31.1797400" lon="35.3325500">
<ele>52.100002</ele>
<time>2025-12-03T13:51:53.726Z</time>
</trkpt>
<trkpt lat="31.1795100" lon="35.3326600">
<ele>50.439999</ele>
<time>2025-12-03T13:51:53.726Z</time>
</trkpt>
<trkpt lat="31.1794100" lon="35.3326800">
<ele>50.759998</ele>
<time>2025-12-03T13:51:53.726Z</time>
</trkpt>
<trkpt lat="31.1792900" lon="35.3327400">
<ele>49.680000</ele>
<time>2025-12-03T13:51:53.726Z</time>
</trkpt>
<trkpt lat="31.1792400" lon="35.3327500">
<ele>49.500000</ele>
<time>2025-12-03T13:51:53.726Z</time>
</trkpt>
<trkpt lat="31.1791500" lon="35.3326800">
<ele>50.820000</ele>
<time>2025-12-03T13:51:53.726Z</time>
</trkpt>
<trkpt lat="31.1790000" lon="35.3323900">
<ele>56.419998</ele>
<time>2025-12-03T13:51:53.726Z</time>
</trkpt>
<trkpt lat="31.1789300" lon="35.3323500">
<ele>57.469997</ele>
<time>2025-12-03T13:51:53.726Z</time>
</trkpt>
<trkpt lat="31.1789200" lon="35.3324300">
<ele>56.119999</ele>
<time>2025-12-03T13:51:53.726Z</time>
</trkpt>
<trkpt lat="31.1789600" lon="35.3326200">
<ele>52.579998</ele>
<time>2025-12-03T13:51:53.726Z</time>
</trkpt>
<trkpt lat="31.1789600" lon="35.3327900">
<ele>49.590000</ele>
<time>2025-12-03T13:51:53.726Z</time>
</trkpt>
<trkpt lat="31.1789100" lon="35.3328700">
<ele>48.649998</ele>
<time>2025-12-03T13:51:53.726Z</time>
</trkpt>
<trkpt lat="31.1787800" lon="35.3329700">
<ele>48.290001</ele>
<time>2025-12-03T13:51:53.726Z</time>
</trkpt>
<trkpt lat="31.1786900" lon="35.3330000">
<ele>48.799999</ele>
<time>2025-12-03T13:51:53.726Z</time>
</trkpt>
<trkpt lat="31.1786200" lon="35.3329500">
<ele>50.060001</ele>
<time>2025-12-03T13:51:53.726Z</time>
</trkpt>
<trkpt lat="31.1785700" lon="35.3328300">
<ele>51.410000</ele>
<time>2025-12-03T13:51:53.726Z</time>
</trkpt>
<trkpt lat="31.1785300" lon="35.3328100">
<ele>51.619999</ele>
<time>2025-12-03T13:51:53.726Z</time>
</trkpt>
<trkpt lat="31.1785000" lon="35.3328600">
<ele>50.989998</ele>
<time>2025-12-03T13:51:53.726Z</time>
</trkpt>
<trkpt lat="31.1785100" lon="35.3329500">
<ele>49.910000</ele>
<time>2025-12-03T13:51:53.726Z</time>
</trkpt>
<trkpt lat="31.1784700" lon="35.3330300">
<ele>48.810001</ele>
<time>2025-12-03T13:51:53.726Z</time>
</trkpt>
<trkpt lat="31.1783300" lon="35.3330900">
<ele>47.630001</ele>
<time>2025-12-03T13:51:53.726Z</time>
</trkpt>
<trkpt lat="31.1782800" lon="35.3331300">
<ele>47.180000</ele>
<time>2025-12-03T13:51:53.726Z</time>
</trkpt>
<trkpt lat="31.1782800" lon="35.3331300">
<ele>47.180000</ele>
<time>2025-12-03T13:51:53.726Z</time>
</trkpt>
<trkpt lat="31.1781400" lon="35.3332200">
<ele>45.270000</ele>
<time>2025-12-03T13:51:53.726Z</time>
</trkpt>
<trkpt lat="31.1777400" lon="35.3332300">
<ele>45.880001</ele>
<time>2025-12-03T13:51:53.726Z</time>
</trkpt>
<trkpt lat="31.1776500" lon="35.3332700">
<ele>46.419998</ele>
<time>2025-12-03T13:51:53.726Z</time>
</trkpt>
<trkpt lat="31.1775300" lon="35.3334300">
<ele>44.639999</ele>
<time>2025-12-03T13:51:53.726Z</time>
</trkpt>
<trkpt lat="31.1774300" lon="35.3334900">
<ele>44.320004</ele>
<time>2025-12-03T13:51:53.726Z</time>
</trkpt>
<trkpt lat="31.1772600" lon="35.3334900">
<ele>44.669998</ele>
<time>2025-12-03T13:51:53.726Z</time>
</trkpt>
<trkpt lat="31.1771400" lon="35.3335100">
<ele>44.669998</ele>
<time>2025-12-03T13:51:53.726Z</time>
</trkpt>
<trkpt lat="31.1769700" lon="35.3335500">
<ele>44.279999</ele>
<time>2025-12-03T13:51:53.726Z</time>
</trkpt>
<trkpt lat="31.1768400" lon="35.3334700">
<ele>46.049999</ele>
<time>2025-12-03T13:51:53.726Z</time>
</trkpt>
<trkpt lat="31.1766200" lon="35.3335500">
<ele>44.410000</ele>
<time>2025-12-03T13:51:53.726Z</time>
</trkpt>
<trkpt lat="31.1765400" lon="35.3336600">
<ele>42.220001</ele>
<time>2025-12-03T13:51:53.726Z</time>
</trkpt>
<trkpt lat="31.1764400" lon="35.3337600">
<ele>40.060001</ele>
<time>2025-12-03T13:51:53.726Z</time>
</trkpt>
<trkpt lat="31.1762100" lon="35.3338500">
<ele>38.259998</ele>
<time>2025-12-03T13:51:53.726Z</time>
</trkpt>
<trkpt lat="31.1758500" lon="35.3339100">
<ele>36.750000</ele>
<time>2025-12-03T13:51:53.726Z</time>
</trkpt>
<trkpt lat="31.1755200" lon="35.3340900">
<ele>33.980000</ele>
<time>2025-12-03T13:51:53.726Z</time>
</trkpt>
<trkpt lat="31.1754600" lon="35.3341800">
<ele>33.639999</ele>
<time>2025-12-03T13:51:53.726Z</time>
</trkpt>
<trkpt lat="31.1754100" lon="35.3343100">
<ele>33.529999</ele>
<time>2025-12-03T13:51:53.726Z</time>
</trkpt>
<trkpt lat="31.1752900" lon="35.3343400">
<ele>34.290001</ele>
<time>2025-12-03T13:51:53.726Z</time>
</trkpt>
<trkpt lat="31.1752800" lon="35.3343300">
<ele>34.400002</ele>
<time>2025-12-03T13:51:53.726Z</time>
</trkpt>
<trkpt lat="31.1752700" lon="35.3343500">
<ele>34.419998</ele>
<time>2025-12-03T13:51:53.726Z</time>
</trkpt>
<trkpt lat="31.1752700" lon="35.3343500">
<ele>34.419998</ele>
<time>2025-12-03T13:51:53.726Z</time>
</trkpt>
<trkpt lat="31.1752800" lon="35.3343300">
<ele>34.400002</ele>
<time>2025-12-03T13:51:53.726Z</time>
</trkpt>
<trkpt lat="31.1752000" lon="35.3342400">
<ele>35.709999</ele>
<time>2025-12-03T13:51:53.726Z</time>
</trkpt>
<trkpt lat="31.1751700" lon="35.3341000">
<ele>36.370003</ele>
<time>2025-12-03T13:51:53.726Z</time>
</trkpt>
<trkpt lat="31.1749000" lon="35.3338200">
<ele>38.310001</ele>
<time>2025-12-03T13:51:53.726Z</time>
</trkpt>
<trkpt lat="31.1748000" lon="35.3337300">
<ele>39.070000</ele>
<time>2025-12-03T13:51:53.726Z</time>
</trkpt>
<trkpt lat="31.1745900" lon="35.3336300">
<ele>38.560001</ele>
<time>2025-12-03T13:51:53.726Z</time>
</trkpt>
<trkpt lat="31.1743800" lon="35.3336400">
<ele>37.070000</ele>
<time>2025-12-03T13:51:53.726Z</time>
</trkpt>
<trkpt lat="31.1742000" lon="35.3334700">
<ele>34.989998</ele>
<time>2025-12-03T13:51:53.726Z</time>
</trkpt>
<trkpt lat="31.1741400" lon="35.3334300">
<ele>34.520000</ele>
<time>2025-12-03T13:51:53.726Z</time>
</trkpt>
<trkpt lat="31.1738800" lon="35.3333600">
<ele>33.840000</ele>
<time>2025-12-03T13:51:53.726Z</time>
</trkpt>
<trkpt lat="31.1737300" lon="35.3331700">
<ele>36.420002</ele>
<time>2025-12-03T13:51:53.726Z</time>
</trkpt>
<trkpt lat="31.1736600" lon="35.3330600">
<ele>38.410000</ele>
<time>2025-12-03T13:51:53.726Z</time>
</trkpt>
<trkpt lat="31.1736300" lon="35.3328200">
<ele>40.489998</ele>
<time>2025-12-03T13:51:53.726Z</time>
</trkpt>
<trkpt lat="31.1735300" lon="35.3326600">
<ele>40.440002</ele>
<time>2025-12-03T13:51:53.726Z</time>
</trkpt>
<trkpt lat="31.1734700" lon="35.3326400">
<ele>40.520000</ele>
<time>2025-12-03T13:51:53.726Z</time>
</trkpt>
<trkpt lat="31.1734000" lon="35.3328700">
<ele>40.840000</ele>
<time>2025-12-03T13:51:53.726Z</time>
</trkpt>
<trkpt lat="31.1731900" lon="35.3330500">
<ele>39.060001</ele>
<time>2025-12-03T13:51:53.726Z</time>
</trkpt>
<trkpt lat="31.1730800" lon="35.3329600">
<ele>40.029999</ele>
<time>2025-12-03T13:51:53.726Z</time>
</trkpt>
<trkpt lat="31.1727400" lon="35.3327200">
<ele>45.000004</ele>
<time>2025-12-03T13:51:53.726Z</time>
</trkpt>
<trkpt lat="31.1725700" lon="35.3325500">
<ele>48.689999</ele>
<time>2025-12-03T13:51:53.726Z</time>
</trkpt>
<trkpt lat="31.1725200" lon="35.3325200">
<ele>49.629997</ele>
<time>2025-12-03T13:51:53.726Z</time>
</trkpt>
<trkpt lat="31.1724500" lon="35.3325200">
<ele>50.570004</ele>
<time>2025-12-03T13:51:53.726Z</time>
</trkpt>
<trkpt lat="31.1724600" lon="35.3326300">
<ele>50.570004</ele>
<time>2025-12-03T13:51:53.726Z</time>
</trkpt>
<trkpt lat="31.1726400" lon="35.3332100">
<ele>43.919998</ele>
<time>2025-12-03T13:51:53.726Z</time>
</trkpt>
<trkpt lat="31.1726400" lon="35.3332100">
<ele>43.919998</ele>
<time>2025-12-03T13:51:53.726Z</time>
</trkpt>
<trkpt lat="31.1727500" lon="35.3336800">
<ele>43.500000</ele>
<time>2025-12-03T13:51:53.726Z</time>
</trkpt>
<trkpt lat="31.1725500" lon="35.3344900">
<ele>41.450001</ele>
<time>2025-12-03T13:51:53.726Z</time>
</trkpt>
<trkpt lat="31.1725100" lon="35.3346900">
<ele>40.160000</ele>
<time>2025-12-03T13:51:53.726Z</time>
</trkpt>
<trkpt lat="31.1724500" lon="35.3351000">
<ele>37.049999</ele>
<time>2025-12-03T13:51:53.726Z</time>
</trkpt>
<trkpt lat="31.1724000" lon="35.3352500">
<ele>36.529999</ele>
<time>2025-12-03T13:51:53.726Z</time>
</trkpt>
<trkpt lat="31.1723200" lon="35.3352500">
<ele>36.880001</ele>
<time>2025-12-03T13:51:53.726Z</time>
</trkpt>
<trkpt lat="31.1721600" lon="35.3350200">
<ele>41.320000</ele>
<time>2025-12-03T13:51:53.726Z</time>
</trkpt>
<trkpt lat="31.1720500" lon="35.3349800">
<ele>44.509998</ele>
<time>2025-12-03T13:51:53.726Z</time>
</trkpt>
<trkpt lat="31.1718700" lon="35.3348500">
<ele>49.540001</ele>
<time>2025-12-03T13:51:53.726Z</time>
</trkpt>
<trkpt lat="31.1717700" lon="35.3347400">
<ele>52.049999</ele>
<time>2025-12-03T13:51:53.726Z</time>
</trkpt>
<trkpt lat="31.1715800" lon="35.3343900">
<ele>54.540001</ele>
<time>2025-12-03T13:51:53.726Z</time>
</trkpt>
<trkpt lat="31.1715200" lon="35.3340500">
<ele>54.199997</ele>
<time>2025-12-03T13:51:53.726Z</time>
</trkpt>
<trkpt lat="31.1715400" lon="35.3338300">
<ele>55.340000</ele>
<time>2025-12-03T13:51:53.726Z</time>
</trkpt>
<trkpt lat="31.1712900" lon="35.3334500">
<ele>58.880001</ele>
<time>2025-12-03T13:51:53.726Z</time>
</trkpt>
<trkpt lat="31.1712900" lon="35.3334500">
<ele>58.880001</ele>
<time>2025-12-03T13:51:53.726Z</time>
</trkpt>
<trkpt lat="31.1710100" lon="35.3334600">
<ele>60.349998</ele>
<time>2025-12-03T13:51:53.726Z</time>
</trkpt>
<trkpt lat="31.1707500" lon="35.3333000">
<ele>61.240002</ele>
<time>2025-12-03T13:51:53.726Z</time>
</trkpt>
<trkpt lat="31.1705400" lon="35.3330000">
<ele>59.699997</ele>
<time>2025-12-03T13:51:53.726Z</time>
</trkpt>
<trkpt lat="31.1702400" lon="35.3327900">
<ele>59.389999</ele>
<time>2025-12-03T13:51:53.726Z</time>
</trkpt>
<trkpt lat="31.1701600" lon="35.3323700">
<ele>56.670002</ele>
<time>2025-12-03T13:51:53.726Z</time>
</trkpt>
<trkpt lat="31.1699400" lon="35.3322200">
<ele>53.990002</ele>
<time>2025-12-03T13:51:53.726Z</time>
</trkpt>
<trkpt lat="31.1691000" lon="35.3318400">
<ele>52.899998</ele>
<time>2025-12-03T13:51:53.726Z</time>
</trkpt>
<trkpt lat="31.1690200" lon="35.3318400">
<ele>52.320004</ele>
<time>2025-12-03T13:51:53.726Z</time>
</trkpt>
<trkpt lat="31.1689000" lon="35.3318700">
<ele>51.350002</ele>
<time>2025-12-03T13:51:53.726Z</time>
</trkpt>
<trkpt lat="31.1684800" lon="35.3320600">
<ele>48.689999</ele>
<time>2025-12-03T13:51:53.726Z</time>
</trkpt>
<trkpt lat="31.1682400" lon="35.3321500">
<ele>49.000000</ele>
<time>2025-12-03T13:51:53.726Z</time>
</trkpt>
<trkpt lat="31.1680600" lon="35.3322000">
<ele>49.000000</ele>
<time>2025-12-03T13:51:53.726Z</time>
</trkpt>
<trkpt lat="31.1678700" lon="35.3321900">
<ele>48.099998</ele>
<time>2025-12-03T13:51:53.726Z</time>
</trkpt>
<trkpt lat="31.1675900" lon="35.3322300">
<ele>45.990002</ele>
<time>2025-12-03T13:51:53.726Z</time>
</trkpt>
<trkpt lat="31.1674800" lon="35.3322700">
<ele>45.110001</ele>
<time>2025-12-03T13:51:53.726Z</time>
</trkpt>
<trkpt lat="31.1672800" lon="35.3323900">
<ele>45.150002</ele>
<time>2025-12-03T13:51:53.726Z</time>
</trkpt>
<trkpt lat="31.1668600" lon="35.3325200">
<ele>40.020000</ele>
<time>2025-12-03T13:51:53.726Z</time>
</trkpt>
<trkpt lat="31.1668200" lon="35.3325500">
<ele>39.480000</ele>
<time>2025-12-03T13:51:53.726Z</time>
</trkpt>
<trkpt lat="31.1668200" lon="35.3325500">
<ele>39.480000</ele>
<time>2025-12-03T13:51:53.726Z</time>
</trkpt>
<trkpt lat="31.1665000" lon="35.3327000">
<ele>36.320000</ele>
<time>2025-12-03T13:51:53.726Z</time>
</trkpt>
<trkpt lat="31.1663800" lon="35.3327800">
<ele>34.250000</ele>
<time>2025-12-03T13:51:53.726Z</time>
</trkpt>
<trkpt lat="31.1660800" lon="35.3330500">
<ele>42.770000</ele>
<time>2025-12-03T13:51:53.726Z</time>
</trkpt>
<trkpt lat="31.1660100" lon="35.3330800">
<ele>44.360001</ele>
<time>2025-12-03T13:51:53.726Z</time>
</trkpt>
<trkpt lat="31.1657600" lon="35.3330900">
<ele>48.499996</ele>
<time>2025-12-03T13:51:53.726Z</time>
</trkpt>
<trkpt lat="31.1656600" lon="35.3331300">
<ele>47.930000</ele>
<time>2025-12-03T13:51:53.726Z</time>
</trkpt>
<trkpt lat="31.1652800" lon="35.3334000">
<ele>43.529999</ele>
<time>2025-12-03T13:51:53.726Z</time>
</trkpt>
<trkpt lat="31.1651900" lon="35.3335300">
<ele>42.230000</ele>
<time>2025-12-03T13:51:53.726Z</time>
</trkpt>
<trkpt lat="31.1652000" lon="35.3336200">
<ele>41.389999</ele>
<time>2025-12-03T13:51:53.726Z</time>
</trkpt>
<trkpt lat="31.1652300" lon="35.3336600">
<ele>41.420002</ele>
<time>2025-12-03T13:51:53.726Z</time>
</trkpt>
<trkpt lat="31.1653000" lon="35.3337200">
<ele>41.689999</ele>
<time>2025-12-03T13:51:53.726Z</time>
</trkpt>
<trkpt lat="31.1652900" lon="35.3337900">
<ele>41.399998</ele>
<time>2025-12-03T13:51:53.726Z</time>
</trkpt>
<trkpt lat="31.1650900" lon="35.3339900">
<ele>36.710003</ele>
<time>2025-12-03T13:51:53.726Z</time>
</trkpt>
<trkpt lat="31.1650200" lon="35.3340200">
<ele>35.000000</ele>
<time>2025-12-03T13:51:53.726Z</time>
</trkpt>
<trkpt lat="31.1648800" lon="35.3340500">
<ele>31.049999</ele>
<time>2025-12-03T13:51:53.726Z</time>
</trkpt>
<trkpt lat="31.1648000" lon="35.3340500">
<ele>29.020000</ele>
<time>2025-12-03T13:51:53.726Z</time>
</trkpt>
<trkpt lat="31.1647400" lon="35.3340800">
<ele>26.240000</ele>
<time>2025-12-03T13:51:53.726Z</time>
</trkpt>
<trkpt lat="31.1646700" lon="35.3341500">
<ele>21.360001</ele>
<time>2025-12-03T13:51:53.726Z</time>
</trkpt>
<trkpt lat="31.1645500" lon="35.3342200">
<ele>16.550001</ele>
<time>2025-12-03T13:51:53.726Z</time>
</trkpt>
<trkpt lat="31.1645000" lon="35.3342900">
<ele>14.000000</ele>
<time>2025-12-03T13:51:53.726Z</time>
</trkpt>
<trkpt lat="31.1644600" lon="35.3343900">
<ele>11.280000</ele>
<time>2025-12-03T13:51:53.726Z</time>
</trkpt>
<trkpt lat="31.1644400" lon="35.3344900">
<ele>9.759999</ele>
<time>2025-12-03T13:51:53.726Z</time>
</trkpt>
<trkpt lat="31.1643000" lon="35.3346800">
<ele>8.680000</ele>
<time>2025-12-03T13:51:53.726Z</time>
</trkpt>
<trkpt lat="31.1642400" lon="35.3346900">
<ele>8.600000</ele>
<time>2025-12-03T13:51:53.726Z</time>
</trkpt>
<trkpt lat="31.1642000" lon="35.3346700">
<ele>8.200000</ele>
<time>2025-12-03T13:51:53.726Z</time>
</trkpt>
<trkpt lat="31.1641600" lon="35.3346300">
<ele>7.320000</ele>
<time>2025-12-03T13:51:53.726Z</time>
</trkpt>
<trkpt lat="31.1641700" lon="35.3345800">
<ele>6.480000</ele>
<time>2025-12-03T13:51:53.726Z</time>
</trkpt>
<trkpt lat="31.1642400" lon="35.3344600">
<ele>5.780000</ele>
<time>2025-12-03T13:51:53.726Z</time>
</trkpt>
<trkpt lat="31.1642700" lon="35.3343500">
<ele>7.500000</ele>
<time>2025-12-03T13:51:53.726Z</time>
</trkpt>
<trkpt lat="31.1642100" lon="35.3342400">
<ele>7.370000</ele>
<time>2025-12-03T13:51:53.726Z</time>
</trkpt>
<trkpt lat="31.1642300" lon="35.3341200">
<ele>10.170000</ele>
<time>2025-12-03T13:51:53.726Z</time>
</trkpt>
<trkpt lat="31.1642200" lon="35.3340200">
<ele>12.760000</ele>
<time>2025-12-03T13:51:53.726Z</time>
</trkpt>
<trkpt lat="31.1641400" lon="35.3340100">
<ele>11.280000</ele>
<time>2025-12-03T13:51:53.726Z</time>
</trkpt>
<trkpt lat="31.1640700" lon="35.3340400">
<ele>9.759999</ele>
<time>2025-12-03T13:51:53.726Z</time>
</trkpt>
<trkpt lat="31.1637500" lon="35.3342200">
<ele>5.100000</ele>
<time>2025-12-03T13:51:53.726Z</time>
</trkpt>
<trkpt lat="31.1636900" lon="35.3342300">
<ele>5.600000</ele>
<time>2025-12-03T13:51:53.726Z</time>
</trkpt>
<trkpt lat="31.1636400" lon="35.3342600">
<ele>6.090000</ele>
<time>2025-12-03T13:51:53.726Z</time>
</trkpt>
<trkpt lat="31.1635800" lon="35.3342900">
<ele>7.000000</ele>
<time>2025-12-03T13:51:53.726Z</time>
</trkpt>
<trkpt lat="31.1634700" lon="35.3343400">
<ele>9.160000</ele>
<time>2025-12-03T13:51:53.726Z</time>
</trkpt>
<trkpt lat="31.1632900" lon="35.3343900">
<ele>12.150001</ele>
<time>2025-12-03T13:51:53.726Z</time>
</trkpt>
<trkpt lat="31.1630200" lon="35.3343500">
<ele>14.050000</ele>
<time>2025-12-03T13:51:53.726Z</time>
</trkpt>
<trkpt lat="31.1628200" lon="35.3344100">
<ele>13.570000</ele>
<time>2025-12-03T13:51:53.726Z</time>
</trkpt>
<trkpt lat="31.1628200" lon="35.3344100">
<ele>13.570000</ele>
<time>2025-12-03T13:51:53.726Z</time>
</trkpt>
<trkpt lat="31.1628200" lon="35.3344100">
<ele>13.570000</ele>
<time>2025-12-03T13:51:53.726Z</time>
</trkpt>
<trkpt lat="31.1628200" lon="35.3344100">
<ele>13.570000</ele>
<time>2025-12-03T13:51:53.726Z</time>
</trkpt>
<trkpt lat="31.1626800" lon="35.3344600">
<ele>12.999999</ele>
<time>2025-12-03T13:51:53.726Z</time>
</trkpt>
<trkpt lat="31.1623700" lon="35.3344900">
<ele>10.720000</ele>
<time>2025-12-03T13:51:53.726Z</time>
</trkpt>
<trkpt lat="31.1621500" lon="35.3346100">
<ele>5.600000</ele>
<time>2025-12-03T13:51:53.726Z</time>
</trkpt>
<trkpt lat="31.1622100" lon="35.3348900">
<ele>6.350000</ele>
<time>2025-12-03T13:51:53.726Z</time>
</trkpt>
<trkpt lat="31.1620600" lon="35.3350900">
<ele>4.590000</ele>
<time>2025-12-03T13:51:53.726Z</time>
</trkpt>
<trkpt lat="31.1617700" lon="35.3353300">
<ele>5.030000</ele>
<time>2025-12-03T13:51:53.726Z</time>
</trkpt>
<trkpt lat="31.1616300" lon="35.3356600">
<ele>6.110000</ele>
<time>2025-12-03T13:51:53.726Z</time>
</trkpt>
<trkpt lat="31.1613700" lon="35.3358100">
<ele>4.900000</ele>
<time>2025-12-03T13:51:53.726Z</time>
</trkpt>
<trkpt lat="31.1613000" lon="35.3357800">
<ele>4.690000</ele>
<time>2025-12-03T13:51:53.726Z</time>
</trkpt>
<trkpt lat="31.1613100" lon="35.3357000">
<ele>4.250000</ele>
<time>2025-12-03T13:51:53.726Z</time>
</trkpt>
<trkpt lat="31.1613100" lon="35.3356800">
<ele>4.130000</ele>
<time>2025-12-03T13:51:53.726Z</time>
</trkpt>
<trkpt lat="31.1613400" lon="35.3356100">
<ele>3.910000</ele>
<time>2025-12-03T13:51:53.726Z</time>
</trkpt>
<trkpt lat="31.1614200" lon="35.3355400">
<ele>4.220000</ele>
<time>2025-12-03T13:51:53.726Z</time>
</trkpt>
<trkpt lat="31.1614500" lon="35.3354500">
<ele>4.360000</ele>
<time>2025-12-03T13:51:53.726Z</time>
</trkpt>
<trkpt lat="31.1614200" lon="35.3353300">
<ele>4.130000</ele>
<time>2025-12-03T13:51:53.726Z</time>
</trkpt>
<trkpt lat="31.1614200" lon="35.3351100">
<ele>2.500000</ele>
<time>2025-12-03T13:51:53.726Z</time>
</trkpt>
<trkpt lat="31.1613500" lon="35.3350000">
<ele>0.020000</ele>
<time>2025-12-03T13:51:53.726Z</time>
</trkpt>
<trkpt lat="31.1612400" lon="35.3350200">
<ele>-2.540000</ele>
<time>2025-12-03T13:51:53.726Z</time>
</trkpt>
<trkpt lat="31.1611600" lon="35.3351100">
<ele>-3.580000</ele>
<time>2025-12-03T13:51:53.726Z</time>
</trkpt>
<trkpt lat="31.1610500" lon="35.3351500">
<ele>-5.870000</ele>
<time>2025-12-03T13:51:53.726Z</time>
</trkpt>
<trkpt lat="31.1610200" lon="35.3353800">
<ele>-2.350000</ele>
<time>2025-12-03T13:51:53.726Z</time>
</trkpt>
<trkpt lat="31.1608700" lon="35.3354900">
<ele>-1.990000</ele>
<time>2025-12-03T13:51:53.726Z</time>
</trkpt>
<trkpt lat="31.1606900" lon="35.3354900">
<ele>-5.270000</ele>
<time>2025-12-03T13:51:53.726Z</time>
</trkpt>
<trkpt lat="31.1606100" lon="35.3356200">
<ele>-4.940000</ele>
<time>2025-12-03T13:51:53.726Z</time>
</trkpt>
<trkpt lat="31.1606100" lon="35.3357200">
<ele>-3.570000</ele>
<time>2025-12-03T13:51:53.726Z</time>
</trkpt>
<trkpt lat="31.1605600" lon="35.3357800">
<ele>-3.680000</ele>
<time>2025-12-03T13:51:53.726Z</time>
</trkpt>
<trkpt lat="31.1605100" lon="35.3357600">
<ele>-5.070000</ele>
<time>2025-12-03T13:51:53.726Z</time>
</trkpt>
<trkpt lat="31.1604100" lon="35.3356400">
<ele>-8.360001</ele>
<time>2025-12-03T13:51:53.726Z</time>
</trkpt>
<trkpt lat="31.1602700" lon="35.3356900">
<ele>-10.660001</ele>
<time>2025-12-03T13:51:53.726Z</time>
</trkpt>
<trkpt lat="31.1601700" lon="35.3359100">
<ele>-11.440001</ele>
<time>2025-12-03T13:51:53.726Z</time>
</trkpt>
<trkpt lat="31.1601800" lon="35.3360200">
<ele>-11.169999</ele>
<time>2025-12-03T13:51:53.726Z</time>
</trkpt>
<trkpt lat="31.1601700" lon="35.3361800">
<ele>-10.610000</ele>
<time>2025-12-03T13:51:53.726Z</time>
</trkpt>
<trkpt lat="31.1601400" lon="35.3363500">
<ele>-9.759999</ele>
<time>2025-12-03T13:51:53.726Z</time>
</trkpt>
<trkpt lat="31.1600700" lon="35.3364200">
<ele>-10.800000</ele>
<time>2025-12-03T13:51:53.726Z</time>
</trkpt>
<trkpt lat="31.1600100" lon="35.3364200">
<ele>-11.830000</ele>
<time>2025-12-03T13:51:53.726Z</time>
</trkpt>
<trkpt lat="31.1599500" lon="35.3363600">
<ele>-12.389999</ele>
<time>2025-12-03T13:51:53.726Z</time>
</trkpt>
<trkpt lat="31.1598500" lon="35.3363400">
<ele>-12.880000</ele>
<time>2025-12-03T13:51:53.726Z</time>
</trkpt>
<trkpt lat="31.1597500" lon="35.3363100">
<ele>-13.060000</ele>
<time>2025-12-03T13:51:53.726Z</time>
</trkpt>
<trkpt lat="31.1596500" lon="35.3361300">
<ele>-11.450000</ele>
<time>2025-12-03T13:51:53.726Z</time>
</trkpt>
<trkpt lat="31.1595000" lon="35.3360800">
<ele>-12.360001</ele>
<time>2025-12-03T13:51:53.726Z</time>
</trkpt>
<trkpt lat="31.1594100" lon="35.3360800">
<ele>-13.460000</ele>
<time>2025-12-03T13:51:53.726Z</time>
</trkpt>
<trkpt lat="31.1593200" lon="35.3360300">
<ele>-16.830000</ele>
<time>2025-12-03T13:51:53.726Z</time>
</trkpt>
<trkpt lat="31.1592800" lon="35.3360200">
<ele>-18.100000</ele>
<time>2025-12-03T13:51:53.726Z</time>
</trkpt>
<trkpt lat="31.1592800" lon="35.3360200">
<ele>-18.100000</ele>
<time>2025-12-03T13:51:53.726Z</time>
</trkpt>
<trkpt lat="31.1591600" lon="35.3359900">
<ele>-22.120001</ele>
<time>2025-12-03T13:51:53.726Z</time>
</trkpt>
<trkpt lat="31.1590600" lon="35.3360200">
<ele>-24.160000</ele>
<time>2025-12-03T13:51:53.726Z</time>
</trkpt>
<trkpt lat="31.1589600" lon="35.3361200">
<ele>-24.520000</ele>
<time>2025-12-03T13:51:53.726Z</time>
</trkpt>
<trkpt lat="31.1588500" lon="35.3362800">
<ele>-23.809999</ele>
<time>2025-12-03T13:51:53.726Z</time>
</trkpt>
<trkpt lat="31.1587600" lon="35.3363200">
<ele>-25.330000</ele>
<time>2025-12-03T13:51:53.726Z</time>
</trkpt>
<trkpt lat="31.1587000" lon="35.3363800">
<ele>-25.639999</ele>
<time>2025-12-03T13:51:53.726Z</time>
</trkpt>
<trkpt lat="31.1586000" lon="35.3364400">
<ele>-26.910000</ele>
<time>2025-12-03T13:51:53.726Z</time>
</trkpt>
<trkpt lat="31.1584700" lon="35.3364000">
<ele>-28.190001</ele>
<time>2025-12-03T13:51:53.726Z</time>
</trkpt>
<trkpt lat="31.1582800" lon="35.3364500">
<ele>-27.270000</ele>
<time>2025-12-03T13:51:53.726Z</time>
</trkpt>
<trkpt lat="31.1581300" lon="35.3364700">
<ele>-27.969999</ele>
<time>2025-12-03T13:51:53.726Z</time>
</trkpt>
<trkpt lat="31.1580100" lon="35.3365200">
<ele>-27.960001</ele>
<time>2025-12-03T13:51:53.726Z</time>
</trkpt>
<trkpt lat="31.1579400" lon="35.3365300">
<ele>-28.809999</ele>
<time>2025-12-03T13:51:53.726Z</time>
</trkpt>
<trkpt lat="31.1578900" lon="35.3365600">
<ele>-28.820000</ele>
<time>2025-12-03T13:51:53.726Z</time>
</trkpt>
<trkpt lat="31.1579500" lon="35.3366700">
<ele>-24.889999</ele>
<time>2025-12-03T13:51:53.726Z</time>
</trkpt>
<trkpt lat="31.1580100" lon="35.3367100">
<ele>-23.740000</ele>
<time>2025-12-03T13:51:53.726Z</time>
</trkpt>
<trkpt lat="31.1581000" lon="35.3367000">
<ele>-22.360001</ele>
<time>2025-12-03T13:51:53.726Z</time>
</trkpt>
<trkpt lat="31.1582200" lon="35.3366900">
<ele>-20.629999</ele>
<time>2025-12-03T13:51:53.726Z</time>
</trkpt>
<trkpt lat="31.1582700" lon="35.3367400">
<ele>-19.910002</ele>
<time>2025-12-03T13:51:53.726Z</time>
</trkpt>
<trkpt lat="31.1582800" lon="35.3368300">
<ele>-19.770000</ele>
<time>2025-12-03T13:51:53.726Z</time>
</trkpt>
<trkpt lat="31.1579700" lon="35.3368600">
<ele>-23.900000</ele>
<time>2025-12-03T13:51:53.726Z</time>
</trkpt>
<trkpt lat="31.1578800" lon="35.3368500">
<ele>-24.910000</ele>
<time>2025-12-03T13:51:53.726Z</time>
</trkpt>
<trkpt lat="31.1577100" lon="35.3367800">
<ele>-28.720001</ele>
<time>2025-12-03T13:51:53.726Z</time>
</trkpt>
<trkpt lat="31.1576600" lon="35.3368000">
<ele>-29.780001</ele>
<time>2025-12-03T13:51:53.726Z</time>
</trkpt>
<trkpt lat="31.1576300" lon="35.3368400">
<ele>-29.790001</ele>
<time>2025-12-03T13:51:53.726Z</time>
</trkpt>
<trkpt lat="31.1576400" lon="35.3368700">
<ele>-28.950001</ele>
<time>2025-12-03T13:51:53.726Z</time>
</trkpt>
<trkpt lat="31.1576600" lon="35.3369200">
<ele>-27.570002</ele>
<time>2025-12-03T13:51:53.726Z</time>
</trkpt>
<trkpt lat="31.1577600" lon="35.3369500">
<ele>-25.349998</ele>
<time>2025-12-03T13:51:53.726Z</time>
</trkpt>
<trkpt lat="31.1580000" lon="35.3369300">
<ele>-23.430000</ele>
<time>2025-12-03T13:51:53.726Z</time>
</trkpt>
<trkpt lat="31.1583400" lon="35.3368800">
<ele>-19.049999</ele>
<time>2025-12-03T13:51:53.726Z</time>
</trkpt>
<trkpt lat="31.1585000" lon="35.3367700">
<ele>-20.580000</ele>
<time>2025-12-03T13:51:53.726Z</time>
</trkpt>
<trkpt lat="31.1585100" lon="35.3367900">
<ele>-20.629999</ele>
<time>2025-12-03T13:51:53.726Z</time>
</trkpt>
<trkpt lat="31.1585100" lon="35.3367900">
<ele>-20.629999</ele>
<time>2025-12-03T13:51:53.726Z</time>
</trkpt>
<trkpt lat="31.1585000" lon="35.3367700">
<ele>-20.580000</ele>
<time>2025-12-03T13:51:53.726Z</time>
</trkpt>
<trkpt lat="31.1587500" lon="35.3366300">
<ele>-21.400002</ele>
<time>2025-12-03T13:51:53.726Z</time>
</trkpt>
<trkpt lat="31.1588200" lon="35.3367000">
<ele>-20.469999</ele>
<time>2025-12-03T13:51:53.726Z</time>
</trkpt>
<trkpt lat="31.1588800" lon="35.3367900">
<ele>-20.049999</ele>
<time>2025-12-03T13:51:53.726Z</time>
</trkpt>
<trkpt lat="31.1589000" lon="35.3368800">
<ele>-20.000000</ele>
<time>2025-12-03T13:51:53.726Z</time>
</trkpt>
<trkpt lat="31.1588800" lon="35.3369900">
<ele>-19.859999</ele>
<time>2025-12-03T13:51:53.726Z</time>
</trkpt>
<trkpt lat="31.1588800" lon="35.3370400">
<ele>-19.680000</ele>
<time>2025-12-03T13:51:53.726Z</time>
</trkpt>
<trkpt lat="31.1588800" lon="35.3370800">
<ele>-19.530001</ele>
<time>2025-12-03T13:51:53.726Z</time>
</trkpt>
<trkpt lat="31.1589400" lon="35.3371800">
<ele>-18.840000</ele>
<time>2025-12-03T13:51:53.726Z</time>
</trkpt>
<trkpt lat="31.1590500" lon="35.3373500">
<ele>-17.189999</ele>
<time>2025-12-03T13:51:53.726Z</time>
</trkpt>
<trkpt lat="31.1590300" lon="35.3374500">
<ele>-16.760000</ele>
<time>2025-12-03T13:51:53.726Z</time>
</trkpt>
<trkpt lat="31.1589900" lon="35.3375200">
<ele>-16.709999</ele>
<time>2025-12-03T13:51:53.726Z</time>
</trkpt>
<trkpt lat="31.1589300" lon="35.3375300">
<ele>-16.959999</ele>
<time>2025-12-03T13:51:53.726Z</time>
</trkpt>
<trkpt lat="31.1588800" lon="35.3374800">
<ele>-17.320000</ele>
<time>2025-12-03T13:51:53.726Z</time>
</trkpt>
<trkpt lat="31.1588400" lon="35.3374200">
<ele>-18.330000</ele>
<time>2025-12-03T13:51:53.726Z</time>
</trkpt>
<trkpt lat="31.1588000" lon="35.3373600">
<ele>-18.959999</ele>
<time>2025-12-03T13:51:53.726Z</time>
</trkpt>
<trkpt lat="31.1588000" lon="35.3372500">
<ele>-18.990000</ele>
<time>2025-12-03T13:51:53.726Z</time>
</trkpt>
<trkpt lat="31.1587600" lon="35.3371800">
<ele>-19.219999</ele>
<time>2025-12-03T13:51:53.726Z</time>
</trkpt>
<trkpt lat="31.1586800" lon="35.3371500">
<ele>-19.460001</ele>
<time>2025-12-03T13:51:53.726Z</time>
</trkpt>
<trkpt lat="31.1586100" lon="35.3372000">
<ele>-19.170000</ele>
<time>2025-12-03T13:51:53.726Z</time>
</trkpt>
<trkpt lat="31.1586100" lon="35.3372700">
<ele>-19.700001</ele>
<time>2025-12-03T13:51:53.726Z</time>
</trkpt>
<trkpt lat="31.1586600" lon="35.3373600">
<ele>-20.459999</ele>
<time>2025-12-03T13:51:53.726Z</time>
</trkpt>
<trkpt lat="31.1587000" lon="35.3373900">
<ele>-20.260000</ele>
<time>2025-12-03T13:51:53.726Z</time>
</trkpt>
<trkpt lat="31.1587200" lon="35.3374500">
<ele>-20.350000</ele>
<time>2025-12-03T13:51:53.726Z</time>
</trkpt>
<trkpt lat="31.1587200" lon="35.3375100">
<ele>-20.730000</ele>
<time>2025-12-03T13:51:53.726Z</time>
</trkpt>
<trkpt lat="31.1586700" lon="35.3375900">
<ele>-22.559999</ele>
<time>2025-12-03T13:51:53.726Z</time>
</trkpt>
<trkpt lat="31.1586000" lon="35.3376200">
<ele>-24.420000</ele>
<time>2025-12-03T13:51:53.726Z</time>
</trkpt>
<trkpt lat="31.1585500" lon="35.3376200">
<ele>-24.959999</ele>
<time>2025-12-03T13:51:53.726Z</time>
</trkpt>
<trkpt lat="31.1584400" lon="35.3375600">
<ele>-25.500000</ele>
<time>2025-12-03T13:51:53.726Z</time>
</trkpt>
<trkpt lat="31.1583500" lon="35.3374400">
<ele>-24.750000</ele>
<time>2025-12-03T13:51:53.726Z</time>
</trkpt>
<trkpt lat="31.1582900" lon="35.3374400">
<ele>-25.520000</ele>
<time>2025-12-03T13:51:53.726Z</time>
</trkpt>
<trkpt lat="31.1581700" lon="35.3374900">
<ele>-27.670000</ele>
<time>2025-12-03T13:51:53.726Z</time>
</trkpt>
<trkpt lat="31.1581100" lon="35.3374700">
<ele>-28.220001</ele>
<time>2025-12-03T13:51:53.726Z</time>
</trkpt>
<trkpt lat="31.1580600" lon="35.3374200">
<ele>-28.650000</ele>
<time>2025-12-03T13:51:53.726Z</time>
</trkpt>
<trkpt lat="31.1579400" lon="35.3374100">
<ele>-28.820000</ele>
<time>2025-12-03T13:51:53.726Z</time>
</trkpt>
<trkpt lat="31.1579000" lon="35.3373800">
<ele>-28.640001</ele>
<time>2025-12-03T13:51:53.726Z</time>
</trkpt>
<trkpt lat="31.1578600" lon="35.3373500">
<ele>-28.400000</ele>
<time>2025-12-03T13:51:53.726Z</time>
</trkpt>
<trkpt lat="31.1578200" lon="35.3373400">
<ele>-28.300001</ele>
<time>2025-12-03T13:51:53.726Z</time>
</trkpt>
<trkpt lat="31.1577500" lon="35.3373800">
<ele>-28.800001</ele>
<time>2025-12-03T13:51:53.726Z</time>
</trkpt>
<trkpt lat="31.1577000" lon="35.3374500">
<ele>-29.740002</ele>
<time>2025-12-03T13:51:53.726Z</time>
</trkpt>
<trkpt lat="31.1576100" lon="35.3374700">
<ele>-30.280001</ele>
<time>2025-12-03T13:51:53.726Z</time>
</trkpt>
<trkpt lat="31.1575500" lon="35.3374800">
<ele>-30.600000</ele>
<time>2025-12-03T13:51:53.726Z</time>
</trkpt>
<trkpt lat="31.1574600" lon="35.3374500">
<ele>-31.010000</ele>
<time>2025-12-03T13:51:53.726Z</time>
</trkpt>
<trkpt lat="31.1574200" lon="35.3374800">
<ele>-31.920000</ele>
<time>2025-12-03T13:51:53.726Z</time>
</trkpt>
<trkpt lat="31.1573900" lon="35.3375400">
<ele>-32.930000</ele>
<time>2025-12-03T13:51:53.726Z</time>
</trkpt>
<trkpt lat="31.1573900" lon="35.3375900">
<ele>-33.360001</ele>
<time>2025-12-03T13:51:53.726Z</time>
</trkpt>
<trkpt lat="31.1574000" lon="35.3376100">
<ele>-33.369999</ele>
<time>2025-12-03T13:51:53.726Z</time>
</trkpt>
<trkpt lat="31.1574000" lon="35.3376100">
<ele>-33.369999</ele>
<time>2025-12-03T13:51:53.726Z</time>
</trkpt>
<trkpt lat="31.1574100" lon="35.3376300">
<ele>-33.380001</ele>
<time>2025-12-03T13:51:53.726Z</time>
</trkpt>
<trkpt lat="31.1574700" lon="35.3376800">
<ele>-32.799999</ele>
<time>2025-12-03T13:51:53.726Z</time>
</trkpt>
<trkpt lat="31.1575500" lon="35.3376800">
<ele>-32.000000</ele>
<time>2025-12-03T13:51:53.726Z</time>
</trkpt>
<trkpt lat="31.1576700" lon="35.3376900">
<ele>-31.340000</ele>
<time>2025-12-03T13:51:53.726Z</time>
</trkpt>
<trkpt lat="31.1577700" lon="35.3377600">
<ele>-30.990000</ele>
<time>2025-12-03T13:51:53.726Z</time>
</trkpt>
<trkpt lat="31.1578300" lon="35.3378200">
<ele>-30.930000</ele>
<time>2025-12-03T13:51:53.726Z</time>
</trkpt>
<trkpt lat="31.1579200" lon="35.3378200">
<ele>-30.280001</ele>
<time>2025-12-03T13:51:53.726Z</time>
</trkpt>
<trkpt lat="31.1579300" lon="35.3378700">
<ele>-30.570000</ele>
<time>2025-12-03T13:51:53.726Z</time>
</trkpt>
<trkpt lat="31.1579100" lon="35.3379100">
<ele>-31.000000</ele>
<time>2025-12-03T13:51:53.726Z</time>
</trkpt>
<trkpt lat="31.1578900" lon="35.3379300">
<ele>-31.289999</ele>
<time>2025-12-03T13:51:53.726Z</time>
</trkpt>
<trkpt lat="31.1578500" lon="35.3379200">
<ele>-31.500000</ele>
<time>2025-12-03T13:51:53.726Z</time>
</trkpt>
<trkpt lat="31.1577500" lon="35.3378300">
<ele>-31.559999</ele>
<time>2025-12-03T13:51:53.726Z</time>
</trkpt>
<trkpt lat="31.1575400" lon="35.3378700">
<ele>-33.090000</ele>
<time>2025-12-03T13:51:53.726Z</time>
</trkpt>
<trkpt lat="31.1575000" lon="35.3379000">
<ele>-33.440002</ele>
<time>2025-12-03T13:51:53.726Z</time>
</trkpt>
<trkpt lat="31.1572900" lon="35.3378900">
<ele>-37.180000</ele>
<time>2025-12-03T13:51:53.726Z</time>
</trkpt>
<trkpt lat="31.1570100" lon="35.3378300">
<ele>-42.629997</ele>
<time>2025-12-03T13:51:53.726Z</time>
</trkpt>
<trkpt lat="31.1569600" lon="35.3377600">
<ele>-43.469997</ele>
<time>2025-12-03T13:51:53.726Z</time>
</trkpt>
<trkpt lat="31.1569100" lon="35.3377500">
<ele>-44.260002</ele>
<time>2025-12-03T13:51:53.726Z</time>
</trkpt>
<trkpt lat="31.1568700" lon="35.3377800">
<ele>-45.070000</ele>
<time>2025-12-03T13:51:53.726Z</time>
</trkpt>
<trkpt lat="31.1568700" lon="35.3378400">
<ele>-45.129997</ele>
<time>2025-12-03T13:51:53.726Z</time>
</trkpt>
<trkpt lat="31.1570900" lon="35.3380800">
<ele>-41.689999</ele>
<time>2025-12-03T13:51:53.726Z</time>
</trkpt>
<trkpt lat="31.1571300" lon="35.3381700">
<ele>-42.030003</ele>
<time>2025-12-03T13:51:53.726Z</time>
</trkpt>
<trkpt lat="31.1572000" lon="35.3382500">
<ele>-41.559998</ele>
<time>2025-12-03T13:51:53.726Z</time>
</trkpt>
<trkpt lat="31.1573600" lon="35.3382800">
<ele>-39.340000</ele>
<time>2025-12-03T13:51:53.726Z</time>
</trkpt>
<trkpt lat="31.1573800" lon="35.3383300">
<ele>-39.690002</ele>
<time>2025-12-03T13:51:53.726Z</time>
</trkpt>
<trkpt lat="31.1574000" lon="35.3385000">
<ele>-43.209999</ele>
<time>2025-12-03T13:51:53.726Z</time>
</trkpt>
<trkpt lat="31.1574400" lon="35.3385500">
<ele>-43.989998</ele>
<time>2025-12-03T13:51:53.726Z</time>
</trkpt>
<trkpt lat="31.1575100" lon="35.3385700">
<ele>-43.870003</ele>
<time>2025-12-03T13:51:53.726Z</time>
</trkpt>
<trkpt lat="31.1575400" lon="35.3386200">
<ele>-44.730000</ele>
<time>2025-12-03T13:51:53.726Z</time>
</trkpt>
<trkpt lat="31.1575000" lon="35.3386700">
<ele>-46.059998</ele>
<time>2025-12-03T13:51:53.726Z</time>
</trkpt>
<trkpt lat="31.1573900" lon="35.3386500">
<ele>-46.549999</ele>
<time>2025-12-03T13:51:53.726Z</time>
</trkpt>
<trkpt lat="31.1573300" lon="35.3386600">
<ele>-47.210003</ele>
<time>2025-12-03T13:51:53.726Z</time>
</trkpt>
<trkpt lat="31.1571600" lon="35.3385800">
<ele>-47.590004</ele>
<time>2025-12-03T13:51:53.726Z</time>
</trkpt>
<trkpt lat="31.1570900" lon="35.3385700">
<ele>-48.709999</ele>
<time>2025-12-03T13:51:53.726Z</time>
</trkpt>
<trkpt lat="31.1569200" lon="35.3384200">
<ele>-49.689999</ele>
<time>2025-12-03T13:51:53.726Z</time>
</trkpt>
<trkpt lat="31.1568500" lon="35.3383800">
<ele>-50.369999</ele>
<time>2025-12-03T13:51:53.726Z</time>
</trkpt>
<trkpt lat="31.1568500" lon="35.3383900">
<ele>-50.520000</ele>
<time>2025-12-03T13:51:53.726Z</time>
</trkpt>
<trkpt lat="31.1568500" lon="35.3383900">
<ele>-50.520000</ele>
<time>2025-12-03T13:51:53.726Z</time>
</trkpt>
<trkpt lat="31.1568500" lon="35.3383800">
<ele>-50.369999</ele>
<time>2025-12-03T13:51:53.726Z</time>
</trkpt>
<trkpt lat="31.1565900" lon="35.3382000">
<ele>-53.000004</ele>
<time>2025-12-03T13:51:53.726Z</time>
</trkpt>
<trkpt lat="31.1564700" lon="35.3381900">
<ele>-55.910000</ele>
<time>2025-12-03T13:51:53.726Z</time>
</trkpt>
<trkpt lat="31.1563100" lon="35.3381200">
<ele>-58.380001</ele>
<time>2025-12-03T13:51:53.726Z</time>
</trkpt>
<trkpt lat="31.1562000" lon="35.3380500">
<ele>-58.950001</ele>
<time>2025-12-03T13:51:53.726Z</time>
</trkpt>
<trkpt lat="31.1561600" lon="35.3379600">
<ele>-58.040001</ele>
<time>2025-12-03T13:51:53.726Z</time>
</trkpt>
<trkpt lat="31.1560400" lon="35.3378100">
<ele>-56.430000</ele>
<time>2025-12-03T13:51:53.726Z</time>
</trkpt>
<trkpt lat="31.1559300" lon="35.3378000">
<ele>-56.269997</ele>
<time>2025-12-03T13:51:53.726Z</time>
</trkpt>
<trkpt lat="31.1558600" lon="35.3378300">
<ele>-56.580002</ele>
<time>2025-12-03T13:51:53.726Z</time>
</trkpt>
<trkpt lat="31.1558000" lon="35.3378800">
<ele>-56.939999</ele>
<time>2025-12-03T13:51:53.726Z</time>
</trkpt>
<trkpt lat="31.1557300" lon="35.3379200">
<ele>-56.970001</ele>
<time>2025-12-03T13:51:53.726Z</time>
</trkpt>
<trkpt lat="31.1556500" lon="35.3379400">
<ele>-56.709999</ele>
<time>2025-12-03T13:51:53.726Z</time>
</trkpt>
<trkpt lat="31.1555100" lon="35.3379500">
<ele>-56.939999</ele>
<time>2025-12-03T13:51:53.726Z</time>
</trkpt>
<trkpt lat="31.1553800" lon="35.3379400">
<ele>-58.800003</ele>
<time>2025-12-03T13:51:53.726Z</time>
</trkpt>
<trkpt lat="31.1553200" lon="35.3379200">
<ele>-59.439999</ele>
<time>2025-12-03T13:51:53.726Z</time>
</trkpt>
<trkpt lat="31.1552600" lon="35.3378500">
<ele>-59.660000</ele>
<time>2025-12-03T13:51:53.726Z</time>
</trkpt>
<trkpt lat="31.1550600" lon="35.3377200">
<ele>-64.559998</ele>
<time>2025-12-03T13:51:53.726Z</time>
</trkpt>
<trkpt lat="31.1550200" lon="35.3376700">
<ele>-64.680000</ele>
<time>2025-12-03T13:51:53.726Z</time>
</trkpt>
<trkpt lat="31.1548900" lon="35.3376500">
<ele>-66.939995</ele>
<time>2025-12-03T13:51:53.726Z</time>
</trkpt>
<trkpt lat="31.1548600" lon="35.3375900">
<ele>-66.129997</ele>
<time>2025-12-03T13:51:53.726Z</time>
</trkpt>
<trkpt lat="31.1548500" lon="35.3375400">
<ele>-65.169998</ele>
<time>2025-12-03T13:51:53.726Z</time>
</trkpt>
<trkpt lat="31.1548600" lon="35.3374800">
<ele>-64.169998</ele>
<time>2025-12-03T13:51:53.726Z</time>
</trkpt>
<trkpt lat="31.1549000" lon="35.3373900">
<ele>-63.730000</ele>
<time>2025-12-03T13:51:53.726Z</time>
</trkpt>
<trkpt lat="31.1549700" lon="35.3373400">
<ele>-61.899998</ele>
<time>2025-12-03T13:51:53.726Z</time>
</trkpt>
<trkpt lat="31.1550400" lon="35.3372000">
<ele>-60.309998</ele>
<time>2025-12-03T13:51:53.726Z</time>
</trkpt>
<trkpt lat="31.1552000" lon="35.3370500">
<ele>-58.439999</ele>
<time>2025-12-03T13:51:53.726Z</time>
</trkpt>
<trkpt lat="31.1552000" lon="35.3369300">
<ele>-59.970001</ele>
<time>2025-12-03T13:51:53.726Z</time>
</trkpt>
<trkpt lat="31.1551000" lon="35.3368600">
<ele>-62.950001</ele>
<time>2025-12-03T13:51:53.726Z</time>
</trkpt>
<trkpt lat="31.1549700" lon="35.3368400">
<ele>-67.340004</ele>
<time>2025-12-03T13:51:53.726Z</time>
</trkpt>
<trkpt lat="31.1548600" lon="35.3369400">
<ele>-71.080002</ele>
<time>2025-12-03T13:51:53.726Z</time>
</trkpt>
<trkpt lat="31.1548500" lon="35.3370400">
<ele>-69.730003</ele>
<time>2025-12-03T13:51:53.726Z</time>
</trkpt>
<trkpt lat="31.1549000" lon="35.3371800">
<ele>-65.320000</ele>
<time>2025-12-03T13:51:53.726Z</time>
</trkpt>
<trkpt lat="31.1548800" lon="35.3372200">
<ele>-65.360001</ele>
<time>2025-12-03T13:51:53.726Z</time>
</trkpt>
<trkpt lat="31.1548200" lon="35.3372400">
<ele>-67.309998</ele>
<time>2025-12-03T13:51:53.726Z</time>
</trkpt>
<trkpt lat="31.1547700" lon="35.3372300">
<ele>-69.190002</ele>
<time>2025-12-03T13:51:53.726Z</time>
</trkpt>
<trkpt lat="31.1545000" lon="35.3372100">
<ele>-79.960007</ele>
<time>2025-12-03T13:51:53.726Z</time>
</trkpt>
<trkpt lat="31.1542500" lon="35.3372100">
<ele>-85.630005</ele>
<time>2025-12-03T13:51:53.726Z</time>
</trkpt>
<trkpt lat="31.1541500" lon="35.3372700">
<ele>-86.340004</ele>
<time>2025-12-03T13:51:53.726Z</time>
</trkpt>
<trkpt lat="31.1540500" lon="35.3374100">
<ele>-85.750000</ele>
<time>2025-12-03T13:51:53.726Z</time>
</trkpt>
<trkpt lat="31.1540200" lon="35.3374800">
<ele>-85.089996</ele>
<time>2025-12-03T13:51:53.726Z</time>
</trkpt>
<trkpt lat="31.1540200" lon="35.3375300">
<ele>-84.370003</ele>
<time>2025-12-03T13:51:53.726Z</time>
</trkpt>
<trkpt lat="31.1540300" lon="35.3375900">
<ele>-83.470001</ele>
<time>2025-12-03T13:51:53.726Z</time>
</trkpt>
<trkpt lat="31.1540900" lon="35.3376200">
<ele>-81.639999</ele>
<time>2025-12-03T13:51:53.726Z</time>
</trkpt>
<trkpt lat="31.1541400" lon="35.3376600">
<ele>-79.940002</ele>
<time>2025-12-03T13:51:53.726Z</time>
</trkpt>
<trkpt lat="31.1541500" lon="35.3377400">
<ele>-78.829994</ele>
<time>2025-12-03T13:51:53.726Z</time>
</trkpt>
<trkpt lat="31.1542000" lon="35.3377800">
<ele>-77.659996</ele>
<time>2025-12-03T13:51:53.726Z</time>
</trkpt>
<trkpt lat="31.1542100" lon="35.3378200">
<ele>-77.809998</ele>
<time>2025-12-03T13:51:53.726Z</time>
</trkpt>
<trkpt lat="31.1541800" lon="35.3378500">
<ele>-78.360001</ele>
<time>2025-12-03T13:51:53.726Z</time>
</trkpt>
<trkpt lat="31.1541400" lon="35.3378400">
<ele>-79.080002</ele>
<time>2025-12-03T13:51:53.726Z</time>
</trkpt>
<trkpt lat="31.1541100" lon="35.3377800">
<ele>-79.439995</ele>
<time>2025-12-03T13:51:53.726Z</time>
</trkpt>
<trkpt lat="31.1540900" lon="35.3377600">
<ele>-80.120003</ele>
<time>2025-12-03T13:51:53.726Z</time>
</trkpt>
<trkpt lat="31.1539700" lon="35.3377200">
<ele>-83.579994</ele>
<time>2025-12-03T13:51:53.726Z</time>
</trkpt>
<trkpt lat="31.1539300" lon="35.3376500">
<ele>-85.340004</ele>
<time>2025-12-03T13:51:53.726Z</time>
</trkpt>
<trkpt lat="31.1538900" lon="35.3376500">
<ele>-86.350006</ele>
<time>2025-12-03T13:51:53.726Z</time>
</trkpt>
<trkpt lat="31.1538800" lon="35.3376900">
<ele>-86.269997</ele>
<time>2025-12-03T13:51:53.726Z</time>
</trkpt>
<trkpt lat="31.1538800" lon="35.3376900">
<ele>-86.269997</ele>
<time>2025-12-03T13:51:53.726Z</time>
</trkpt>
<trkpt lat="31.1538800" lon="35.3377000">
<ele>-86.159996</ele>
<time>2025-12-03T13:51:53.726Z</time>
</trkpt>
<trkpt lat="31.1539100" lon="35.3377500">
<ele>-84.769997</ele>
<time>2025-12-03T13:51:53.726Z</time>
</trkpt>
<trkpt lat="31.1539800" lon="35.3378100">
<ele>-82.779999</ele>
<time>2025-12-03T13:51:53.726Z</time>
</trkpt>
<trkpt lat="31.1540100" lon="35.3378600">
<ele>-82.209999</ele>
<time>2025-12-03T13:51:53.726Z</time>
</trkpt>
<trkpt lat="31.1540100" lon="35.3379300">
<ele>-82.430000</ele>
<time>2025-12-03T13:51:53.726Z</time>
</trkpt>
<trkpt lat="31.1539600" lon="35.3381000">
<ele>-84.320000</ele>
<time>2025-12-03T13:51:53.726Z</time>
</trkpt>
<trkpt lat="31.1539600" lon="35.3381600">
<ele>-85.130005</ele>
<time>2025-12-03T13:51:53.726Z</time>
</trkpt>
<trkpt lat="31.1539000" lon="35.3383000">
<ele>-88.279999</ele>
<time>2025-12-03T13:51:53.726Z</time>
</trkpt>
<trkpt lat="31.1539800" lon="35.3384500">
<ele>-89.270004</ele>
<time>2025-12-03T13:51:53.726Z</time>
</trkpt>
<trkpt lat="31.1540500" lon="35.3384900">
<ele>-88.669998</ele>
<time>2025-12-03T13:51:53.726Z</time>
</trkpt>
<trkpt lat="31.1541200" lon="35.3385100">
<ele>-87.720001</ele>
<time>2025-12-03T13:51:53.726Z</time>
</trkpt>
<trkpt lat="31.1541400" lon="35.3385600">
<ele>-88.389999</ele>
<time>2025-12-03T13:51:53.726Z</time>
</trkpt>
<trkpt lat="31.1541300" lon="35.3386200">
<ele>-89.880005</ele>
<time>2025-12-03T13:51:53.726Z</time>
</trkpt>
<trkpt lat="31.1539800" lon="35.3387000">
<ele>-94.379997</ele>
<time>2025-12-03T13:51:53.726Z</time>
</trkpt>
<trkpt lat="31.1539100" lon="35.3386800">
<ele>-95.129997</ele>
<time>2025-12-03T13:51:53.726Z</time>
</trkpt>
<trkpt lat="31.1538000" lon="35.3385600">
<ele>-94.650002</ele>
<time>2025-12-03T13:51:53.726Z</time>
</trkpt>
<trkpt lat="31.1537800" lon="35.3385100">
<ele>-94.459999</ele>
<time>2025-12-03T13:51:53.726Z</time>
</trkpt>
<trkpt lat="31.1537800" lon="35.3384700">
<ele>-94.020004</ele>
<time>2025-12-03T13:51:53.726Z</time>
</trkpt>
<trkpt lat="31.1537900" lon="35.3383800">
<ele>-92.740005</ele>
<time>2025-12-03T13:51:53.726Z</time>
</trkpt>
<trkpt lat="31.1536400" lon="35.3382600">
<ele>-96.239998</ele>
<time>2025-12-03T13:51:53.726Z</time>
</trkpt>
<trkpt lat="31.1536200" lon="35.3381700">
<ele>-95.929993</ele>
<time>2025-12-03T13:51:53.726Z</time>
</trkpt>
<trkpt lat="31.1536300" lon="35.3380800">
<ele>-94.590004</ele>
<time>2025-12-03T13:51:53.726Z</time>
</trkpt>
<trkpt lat="31.1535900" lon="35.3380000">
<ele>-95.619995</ele>
<time>2025-12-03T13:51:53.726Z</time>
</trkpt>
<trkpt lat="31.1534700" lon="35.3378900">
<ele>-99.370003</ele>
<time>2025-12-03T13:51:53.726Z</time>
</trkpt>
<trkpt lat="31.1534100" lon="35.3378900">
<ele>-101.220001</ele>
<time>2025-12-03T13:51:53.726Z</time>
</trkpt>
<trkpt lat="31.1533500" lon="35.3379500">
<ele>-102.879997</ele>
<time>2025-12-03T13:51:53.726Z</time>
</trkpt>
<trkpt lat="31.1533500" lon="35.3380000">
<ele>-102.709999</ele>
<time>2025-12-03T13:51:53.726Z</time>
</trkpt>
<trkpt lat="31.1534600" lon="35.3381500">
<ele>-100.000000</ele>
<time>2025-12-03T13:51:53.726Z</time>
</trkpt>
<trkpt lat="31.1534400" lon="35.3382600">
<ele>-101.229996</ele>
<time>2025-12-03T13:51:53.726Z</time>
</trkpt>
<trkpt lat="31.1533400" lon="35.3383600">
<ele>-103.949997</ele>
<time>2025-12-03T13:51:53.726Z</time>
</trkpt>
<trkpt lat="31.1532300" lon="35.3385200">
<ele>-108.029999</ele>
<time>2025-12-03T13:51:53.726Z</time>
</trkpt>
<trkpt lat="31.1530600" lon="35.3386400">
<ele>-114.949997</ele>
<time>2025-12-03T13:51:53.726Z</time>
</trkpt>
<trkpt lat="31.1530300" lon="35.3387000">
<ele>-115.839996</ele>
<time>2025-12-03T13:51:53.726Z</time>
</trkpt>
<trkpt lat="31.1530300" lon="35.3387500">
<ele>-116.099998</ele>
<time>2025-12-03T13:51:53.726Z</time>
</trkpt>
<trkpt lat="31.1530700" lon="35.3388200">
<ele>-115.310005</ele>
<time>2025-12-03T13:51:53.726Z</time>
</trkpt>
<trkpt lat="31.1532200" lon="35.3389400">
<ele>-111.769997</ele>
<time>2025-12-03T13:51:53.726Z</time>
</trkpt>
<trkpt lat="31.1533200" lon="35.3389700">
<ele>-109.510002</ele>
<time>2025-12-03T13:51:53.726Z</time>
</trkpt>
<trkpt lat="31.1533400" lon="35.3390100">
<ele>-109.580002</ele>
<time>2025-12-03T13:51:53.726Z</time>
</trkpt>
<trkpt lat="31.1533100" lon="35.3390500">
<ele>-110.849998</ele>
<time>2025-12-03T13:51:53.726Z</time>
</trkpt>
<trkpt lat="31.1532800" lon="35.3390700">
<ele>-111.769997</ele>
<time>2025-12-03T13:51:53.726Z</time>
</trkpt>
<trkpt lat="31.1532500" lon="35.3390400">
<ele>-112.089996</ele>
<time>2025-12-03T13:51:53.726Z</time>
</trkpt>
<trkpt lat="31.1532300" lon="35.3390100">
<ele>-112.229996</ele>
<time>2025-12-03T13:51:53.726Z</time>
</trkpt>
<trkpt lat="31.1531900" lon="35.3389800">
<ele>-112.930000</ele>
<time>2025-12-03T13:51:53.726Z</time>
</trkpt>
<trkpt lat="31.1531400" lon="35.3389800">
<ele>-114.199997</ele>
<time>2025-12-03T13:51:53.726Z</time>
</trkpt>
<trkpt lat="31.1531100" lon="35.3390200">
<ele>-115.180000</ele>
<time>2025-12-03T13:51:53.726Z</time>
</trkpt>
<trkpt lat="31.1531200" lon="35.3390800">
<ele>-115.310005</ele>
<time>2025-12-03T13:51:53.726Z</time>
</trkpt>
<trkpt lat="31.1531700" lon="35.3391800">
<ele>-115.170006</ele>
<time>2025-12-03T13:51:53.726Z</time>
</trkpt>
<trkpt lat="31.1531800" lon="35.3392600">
<ele>-116.410004</ele>
<time>2025-12-03T13:51:53.726Z</time>
</trkpt>
<trkpt lat="31.1531700" lon="35.3393200">
<ele>-117.600006</ele>
<time>2025-12-03T13:51:53.726Z</time>
</trkpt>
<trkpt lat="31.1531300" lon="35.3393800">
<ele>-119.139999</ele>
<time>2025-12-03T13:51:53.726Z</time>
</trkpt>
<trkpt lat="31.1530800" lon="35.3394700">
<ele>-121.290001</ele>
<time>2025-12-03T13:51:53.726Z</time>
</trkpt>
<trkpt lat="31.1530900" lon="35.3395900">
<ele>-123.769997</ele>
<time>2025-12-03T13:51:53.726Z</time>
</trkpt>
<trkpt lat="31.1531400" lon="35.3396100">
<ele>-123.659996</ele>
<time>2025-12-03T13:51:53.726Z</time>
</trkpt>
<trkpt lat="31.1531900" lon="35.3396300">
<ele>-123.560005</ele>
<time>2025-12-03T13:51:53.726Z</time>
</trkpt>
<trkpt lat="31.1532800" lon="35.3396000">
<ele>-121.940002</ele>
<time>2025-12-03T13:51:53.726Z</time>
</trkpt>
<trkpt lat="31.1533500" lon="35.3394800">
<ele>-118.290001</ele>
<time>2025-12-03T13:51:53.726Z</time>
</trkpt>
<trkpt lat="31.1534300" lon="35.3394200">
<ele>-114.690002</ele>
<time>2025-12-03T13:51:53.726Z</time>
</trkpt>
<trkpt lat="31.1535100" lon="35.3394500">
<ele>-113.030006</ele>
<time>2025-12-03T13:51:53.726Z</time>
</trkpt>
<trkpt lat="31.1536300" lon="35.3395800">
<ele>-112.659996</ele>
<time>2025-12-03T13:51:53.726Z</time>
</trkpt>
<trkpt lat="31.1537100" lon="35.3396600">
<ele>-113.040001</ele>
<time>2025-12-03T13:51:53.726Z</time>
</trkpt>
<trkpt lat="31.1538600" lon="35.3397000">
<ele>-111.180008</ele>
<time>2025-12-03T13:51:53.726Z</time>
</trkpt>
<trkpt lat="31.1539200" lon="35.3397600">
<ele>-112.279999</ele>
<time>2025-12-03T13:51:53.726Z</time>
</trkpt>
<trkpt lat="31.1540300" lon="35.3398100">
<ele>-113.709999</ele>
<time>2025-12-03T13:51:53.726Z</time>
</trkpt>
<trkpt lat="31.1540400" lon="35.3398500">
<ele>-114.679993</ele>
<time>2025-12-03T13:51:53.726Z</time>
</trkpt>
<trkpt lat="31.1540000" lon="35.3398900">
<ele>-115.869995</ele>
<time>2025-12-03T13:51:53.726Z</time>
</trkpt>
<trkpt lat="31.1539500" lon="35.3399000">
<ele>-116.419998</ele>
<time>2025-12-03T13:51:53.726Z</time>
</trkpt>
<trkpt lat="31.1539000" lon="35.3398100">
<ele>-113.830002</ele>
<time>2025-12-03T13:51:53.726Z</time>
</trkpt>
<trkpt lat="31.1538200" lon="35.3397600">
<ele>-113.459999</ele>
<time>2025-12-03T13:51:53.726Z</time>
</trkpt>
<trkpt lat="31.1537400" lon="35.3397400">
<ele>-114.260002</ele>
<time>2025-12-03T13:51:53.726Z</time>
</trkpt>
<trkpt lat="31.1536700" lon="35.3397500">
<ele>-115.839996</ele>
<time>2025-12-03T13:51:53.726Z</time>
</trkpt>
<trkpt lat="31.1535500" lon="35.3396700">
<ele>-116.629997</ele>
<time>2025-12-03T13:51:53.726Z</time>
</trkpt>
<trkpt lat="31.1535200" lon="35.3396800">
<ele>-117.709999</ele>
<time>2025-12-03T13:51:53.726Z</time>
</trkpt>
<trkpt lat="31.1535000" lon="35.3397100">
<ele>-118.939995</ele>
<time>2025-12-03T13:51:53.726Z</time>
</trkpt>
<trkpt lat="31.1535300" lon="35.3397700">
<ele>-119.829994</ele>
<time>2025-12-03T13:51:53.726Z</time>
</trkpt>
<trkpt lat="31.1536100" lon="35.3397800">
<ele>-117.900002</ele>
<time>2025-12-03T13:51:53.726Z</time>
</trkpt>
<trkpt lat="31.1536800" lon="35.3398100">
<ele>-117.600006</ele>
<time>2025-12-03T13:51:53.726Z</time>
</trkpt>
<trkpt lat="31.1537200" lon="35.3398600">
<ele>-118.500008</ele>
<time>2025-12-03T13:51:53.726Z</time>
</trkpt>
<trkpt lat="31.1537500" lon="35.3399400">
<ele>-120.559998</ele>
<time>2025-12-03T13:51:53.726Z</time>
</trkpt>
<trkpt lat="31.1537700" lon="35.3399900">
<ele>-121.820000</ele>
<time>2025-12-03T13:51:53.726Z</time>
</trkpt>
<trkpt lat="31.1537600" lon="35.3400700">
<ele>-124.070000</ele>
<time>2025-12-03T13:51:53.726Z</time>
</trkpt>
<trkpt lat="31.1538300" lon="35.3401900">
<ele>-125.449997</ele>
<time>2025-12-03T13:51:53.726Z</time>
</trkpt>
<trkpt lat="31.1538500" lon="35.3403000">
<ele>-127.389999</ele>
<time>2025-12-03T13:51:53.726Z</time>
</trkpt>
<trkpt lat="31.1539000" lon="35.3403500">
<ele>-127.070000</ele>
<time>2025-12-03T13:51:53.726Z</time>
</trkpt>
<trkpt lat="31.1539500" lon="35.3403900">
<ele>-126.790001</ele>
<time>2025-12-03T13:51:53.726Z</time>
</trkpt>
<trkpt lat="31.1539700" lon="35.3404300">
<ele>-127.149994</ele>
<time>2025-12-03T13:51:53.726Z</time>
</trkpt>
<trkpt lat="31.1539500" lon="35.3404700">
<ele>-128.290009</ele>
<time>2025-12-03T13:51:53.726Z</time>
</trkpt>
<trkpt lat="31.1539100" lon="35.3404700">
<ele>-129.059998</ele>
<time>2025-12-03T13:51:53.726Z</time>
</trkpt>
<trkpt lat="31.1538600" lon="35.3404300">
<ele>-129.520004</ele>
<time>2025-12-03T13:51:53.726Z</time>
</trkpt>
<trkpt lat="31.1538200" lon="35.3404200">
<ele>-130.419998</ele>
<time>2025-12-03T13:51:53.726Z</time>
</trkpt>
<trkpt lat="31.1537900" lon="35.3403800">
<ele>-130.460007</ele>
<time>2025-12-03T13:51:53.726Z</time>
</trkpt>
<trkpt lat="31.1537700" lon="35.3402600">
<ele>-128.559998</ele>
<time>2025-12-03T13:51:53.726Z</time>
</trkpt>
<trkpt lat="31.1536500" lon="35.3401200">
<ele>-127.640007</ele>
<time>2025-12-03T13:51:53.726Z</time>
</trkpt>
<trkpt lat="31.1536200" lon="35.3400900">
<ele>-127.409996</ele>
<time>2025-12-03T13:51:53.726Z</time>
</trkpt>
<trkpt lat="31.1535900" lon="35.3400800">
<ele>-127.840004</ele>
<time>2025-12-03T13:51:53.726Z</time>
</trkpt>
<trkpt lat="31.1534900" lon="35.3402000">
<ele>-133.809998</ele>
<time>2025-12-03T13:51:53.726Z</time>
</trkpt>
<trkpt lat="31.1532600" lon="35.3403700">
<ele>-142.960007</ele>
<time>2025-12-03T13:51:53.726Z</time>
</trkpt>
<trkpt lat="31.1531700" lon="35.3404500">
<ele>-145.199997</ele>
<time>2025-12-03T13:51:53.726Z</time>
</trkpt>
<trkpt lat="31.1530500" lon="35.3404900">
<ele>-146.550003</ele>
<time>2025-12-03T13:51:53.726Z</time>
</trkpt>
<trkpt lat="31.1528400" lon="35.3405200">
<ele>-148.000000</ele>
<time>2025-12-03T13:51:53.726Z</time>
</trkpt>
<trkpt lat="31.1527300" lon="35.3405300">
<ele>-148.589996</ele>
<time>2025-12-03T13:51:53.726Z</time>
</trkpt>
<trkpt lat="31.1526600" lon="35.3404800">
<ele>-147.990005</ele>
<time>2025-12-03T13:51:53.726Z</time>
</trkpt>
<trkpt lat="31.1526000" lon="35.3403400">
<ele>-146.610001</ele>
<time>2025-12-03T13:51:53.726Z</time>
</trkpt>
<trkpt lat="31.1525900" lon="35.3401700">
<ele>-143.960007</ele>
<time>2025-12-03T13:51:53.726Z</time>
</trkpt>
<trkpt lat="31.1524800" lon="35.3401100">
<ele>-144.509995</ele>
<time>2025-12-03T13:51:53.726Z</time>
</trkpt>
<trkpt lat="31.1523700" lon="35.3401200">
<ele>-147.559998</ele>
<time>2025-12-03T13:51:53.726Z</time>
</trkpt>
<trkpt lat="31.1522600" lon="35.3402300">
<ele>-151.050003</ele>
<time>2025-12-03T13:51:53.726Z</time>
</trkpt>
<trkpt lat="31.1522400" lon="35.3402900">
<ele>-151.690002</ele>
<time>2025-12-03T13:51:53.726Z</time>
</trkpt>
<trkpt lat="31.1522000" lon="35.3403400">
<ele>-152.539993</ele>
<time>2025-12-03T13:51:53.726Z</time>
</trkpt>
<trkpt lat="31.1521000" lon="35.3404000">
<ele>-154.889999</ele>
<time>2025-12-03T13:51:53.726Z</time>
</trkpt>
<trkpt lat="31.1520100" lon="35.3404300">
<ele>-156.929993</ele>
<time>2025-12-03T13:51:53.726Z</time>
</trkpt>
<trkpt lat="31.1519600" lon="35.3404300">
<ele>-158.089996</ele>
<time>2025-12-03T13:51:53.726Z</time>
</trkpt>
<trkpt lat="31.1519000" lon="35.3404100">
<ele>-159.239990</ele>
<time>2025-12-03T13:51:53.726Z</time>
</trkpt>
<trkpt lat="31.1518600" lon="35.3404200">
<ele>-159.859985</ele>
<time>2025-12-03T13:51:53.726Z</time>
</trkpt>
<trkpt lat="31.1518400" lon="35.3404900">
<ele>-160.030014</ele>
<time>2025-12-03T13:51:53.726Z</time>
</trkpt>
<trkpt lat="31.1518900" lon="35.3405400">
<ele>-159.029999</ele>
<time>2025-12-03T13:51:53.726Z</time>
</trkpt>
<trkpt lat="31.1519500" lon="35.3405400">
<ele>-157.930008</ele>
<time>2025-12-03T13:51:53.726Z</time>
</trkpt>
<trkpt lat="31.1520200" lon="35.3405600">
<ele>-156.410004</ele>
<time>2025-12-03T13:51:53.726Z</time>
</trkpt>
<trkpt lat="31.1520800" lon="35.3406100">
<ele>-155.750000</ele>
<time>2025-12-03T13:51:53.726Z</time>
</trkpt>
<trkpt lat="31.1520700" lon="35.3406500">
<ele>-156.399994</ele>
<time>2025-12-03T13:51:53.726Z</time>
</trkpt>
<trkpt lat="31.1520300" lon="35.3406800">
<ele>-157.290009</ele>
<time>2025-12-03T13:51:53.726Z</time>
</trkpt>
<trkpt lat="31.1519700" lon="35.3406500">
<ele>-157.940002</ele>
<time>2025-12-03T13:51:53.726Z</time>
</trkpt>
<trkpt lat="31.1519000" lon="35.3406700">
<ele>-159.080002</ele>
<time>2025-12-03T13:51:53.726Z</time>
</trkpt>
<trkpt lat="31.1518700" lon="35.3407200">
<ele>-159.610001</ele>
<time>2025-12-03T13:51:53.726Z</time>
</trkpt>
<trkpt lat="31.1518800" lon="35.3407800">
<ele>-159.589996</ele>
<time>2025-12-03T13:51:53.726Z</time>
</trkpt>
<trkpt lat="31.1519100" lon="35.3408500">
<ele>-159.699997</ele>
<time>2025-12-03T13:51:53.726Z</time>
</trkpt>
<trkpt lat="31.1519700" lon="35.3408700">
<ele>-159.689987</ele>
<time>2025-12-03T13:51:53.726Z</time>
</trkpt>
<trkpt lat="31.1520300" lon="35.3408700">
<ele>-159.440002</ele>
<time>2025-12-03T13:51:53.726Z</time>
</trkpt>
<trkpt lat="31.1521100" lon="35.3408500">
<ele>-158.729996</ele>
<time>2025-12-03T13:51:53.726Z</time>
</trkpt>
<trkpt lat="31.1524000" lon="35.3405800">
<ele>-150.550003</ele>
<time>2025-12-03T13:51:53.726Z</time>
</trkpt>
<trkpt lat="31.1524300" lon="35.3405900">
<ele>-150.410004</ele>
<time>2025-12-03T13:51:53.726Z</time>
</trkpt>
<trkpt lat="31.1524400" lon="35.3406200">
<ele>-150.860001</ele>
<time>2025-12-03T13:51:53.726Z</time>
</trkpt>
<trkpt lat="31.1524100" lon="35.3406600">
<ele>-151.970001</ele>
<time>2025-12-03T13:51:53.726Z</time>
</trkpt>
<trkpt lat="31.1523500" lon="35.3406900">
<ele>-153.300003</ele>
<time>2025-12-03T13:51:53.726Z</time>
</trkpt>
<trkpt lat="31.1522600" lon="35.3408000">
<ele>-156.750000</ele>
<time>2025-12-03T13:51:53.726Z</time>
</trkpt>
<trkpt lat="31.1522100" lon="35.3409500">
<ele>-160.159988</ele>
<time>2025-12-03T13:51:53.726Z</time>
</trkpt>
<trkpt lat="31.1521800" lon="35.3410000">
<ele>-161.240005</ele>
<time>2025-12-03T13:51:53.726Z</time>
</trkpt>
<trkpt lat="31.1521500" lon="35.3410700">
<ele>-162.740005</ele>
<time>2025-12-03T13:51:53.726Z</time>
</trkpt>
<trkpt lat="31.1521000" lon="35.3411500">
<ele>-164.719986</ele>
<time>2025-12-03T13:51:53.726Z</time>
</trkpt>
<trkpt lat="31.1520500" lon="35.3411900">
<ele>-165.939987</ele>
<time>2025-12-03T13:51:53.726Z</time>
</trkpt>
<trkpt lat="31.1519800" lon="35.3412100">
<ele>-166.880005</ele>
<time>2025-12-03T13:51:53.726Z</time>
</trkpt>
<trkpt lat="31.1519400" lon="35.3412000">
<ele>-166.889999</ele>
<time>2025-12-03T13:51:53.726Z</time>
</trkpt>
<trkpt lat="31.1518700" lon="35.3411500">
<ele>-165.460007</ele>
<time>2025-12-03T13:51:53.726Z</time>
</trkpt>
<trkpt lat="31.1518000" lon="35.3411800">
<ele>-165.580002</ele>
<time>2025-12-03T13:51:53.726Z</time>
</trkpt>
<trkpt lat="31.1517900" lon="35.3412400">
<ele>-166.450012</ele>
<time>2025-12-03T13:51:53.726Z</time>
</trkpt>
<trkpt lat="31.1518400" lon="35.3412700">
<ele>-167.410004</ele>
<time>2025-12-03T13:51:53.726Z</time>
</trkpt>
<trkpt lat="31.1519100" lon="35.3412900">
<ele>-168.500000</ele>
<time>2025-12-03T13:51:53.726Z</time>
</trkpt>
<trkpt lat="31.1519600" lon="35.3413200">
<ele>-169.400009</ele>
<time>2025-12-03T13:51:53.726Z</time>
</trkpt>
<trkpt lat="31.1520300" lon="35.3413200">
<ele>-168.899994</ele>
<time>2025-12-03T13:51:53.726Z</time>
</trkpt>
<trkpt lat="31.1521800" lon="35.3412500">
<ele>-166.300003</ele>
<time>2025-12-03T13:51:53.726Z</time>
</trkpt>
<trkpt lat="31.1522300" lon="35.3411400">
<ele>-163.540009</ele>
<time>2025-12-03T13:51:53.726Z</time>
</trkpt>
<trkpt lat="31.1522800" lon="35.3411500">
<ele>-163.250000</ele>
<time>2025-12-03T13:51:53.726Z</time>
</trkpt>
<trkpt lat="31.1522900" lon="35.3412000">
<ele>-164.269989</ele>
<time>2025-12-03T13:51:53.726Z</time>
</trkpt>
<trkpt lat="31.1522800" lon="35.3412300">
<ele>-165.029999</ele>
<time>2025-12-03T13:51:53.726Z</time>
</trkpt>
<trkpt lat="31.1522600" lon="35.3412700">
<ele>-166.100006</ele>
<time>2025-12-03T13:51:53.726Z</time>
</trkpt>
<trkpt lat="31.1521500" lon="35.3413300">
<ele>-168.250015</ele>
<time>2025-12-03T13:51:53.726Z</time>
</trkpt>
<trkpt lat="31.1521400" lon="35.3413600">
<ele>-168.970001</ele>
<time>2025-12-03T13:51:53.726Z</time>
</trkpt>
<trkpt lat="31.1521700" lon="35.3413900">
<ele>-169.400009</ele>
<time>2025-12-03T13:51:53.726Z</time>
</trkpt>
<trkpt lat="31.1522500" lon="35.3413800">
<ele>-168.599991</ele>
<time>2025-12-03T13:51:53.726Z</time>
</trkpt>
<trkpt lat="31.1523200" lon="35.3413800">
<ele>-168.089996</ele>
<time>2025-12-03T13:51:53.726Z</time>
</trkpt>
<trkpt lat="31.1524600" lon="35.3414500">
<ele>-168.979996</ele>
<time>2025-12-03T13:51:53.726Z</time>
</trkpt>
<trkpt lat="31.1525100" lon="35.3414800">
<ele>-169.619995</ele>
<time>2025-12-03T13:51:53.726Z</time>
</trkpt>
<trkpt lat="31.1525200" lon="35.3415300">
<ele>-171.059998</ele>
<time>2025-12-03T13:51:53.726Z</time>
</trkpt>
<trkpt lat="31.1525200" lon="35.3415800">
<ele>-172.500000</ele>
<time>2025-12-03T13:51:53.726Z</time>
</trkpt>
<trkpt lat="31.1524300" lon="35.3416600">
<ele>-174.820007</ele>
<time>2025-12-03T13:51:53.726Z</time>
</trkpt>
<trkpt lat="31.1524000" lon="35.3416600">
<ele>-174.830002</ele>
<time>2025-12-03T13:51:53.726Z</time>
</trkpt>
<trkpt lat="31.1523500" lon="35.3416200">
<ele>-173.839996</ele>
<time>2025-12-03T13:51:53.726Z</time>
</trkpt>
<trkpt lat="31.1522800" lon="35.3416200">
<ele>-173.920013</ele>
<time>2025-12-03T13:51:53.726Z</time>
</trkpt>
<trkpt lat="31.1522100" lon="35.3416500">
<ele>-174.690002</ele>
<time>2025-12-03T13:51:53.726Z</time>
</trkpt>
<trkpt lat="31.1518700" lon="35.3416600">
<ele>-175.330002</ele>
<time>2025-12-03T13:51:53.726Z</time>
</trkpt>
<trkpt lat="31.1517600" lon="35.3416400">
<ele>-174.059998</ele>
<time>2025-12-03T13:51:53.726Z</time>
</trkpt>
<trkpt lat="31.1516700" lon="35.3416100">
<ele>-172.599991</ele>
<time>2025-12-03T13:51:53.726Z</time>
</trkpt>
<trkpt lat="31.1513700" lon="35.3415600">
<ele>-174.540009</ele>
<time>2025-12-03T13:51:53.726Z</time>
</trkpt>
<trkpt lat="31.1511900" lon="35.3415600">
<ele>-178.930008</ele>
<time>2025-12-03T13:51:53.726Z</time>
</trkpt>
<trkpt lat="31.1510600" lon="35.3416000">
<ele>-182.290009</ele>
<time>2025-12-03T13:51:53.726Z</time>
</trkpt>
<trkpt lat="31.1509800" lon="35.3416000">
<ele>-183.870010</ele>
<time>2025-12-03T13:51:53.726Z</time>
</trkpt>
<trkpt lat="31.1509600" lon="35.3416300">
<ele>-184.470001</ele>
<time>2025-12-03T13:51:53.726Z</time>
</trkpt>
<trkpt lat="31.1509800" lon="35.3416600">
<ele>-184.309998</ele>
<time>2025-12-03T13:51:53.726Z</time>
</trkpt>
<trkpt lat="31.1510900" lon="35.3416500">
<ele>-182.209991</ele>
<time>2025-12-03T13:51:53.726Z</time>
</trkpt>
<trkpt lat="31.1511600" lon="35.3416600">
<ele>-180.860001</ele>
<time>2025-12-03T13:51:53.726Z</time>
</trkpt>
<trkpt lat="31.1512300" lon="35.3417100">
<ele>-180.349991</ele>
<time>2025-12-03T13:51:53.726Z</time>
</trkpt>
<trkpt lat="31.1514100" lon="35.3417500">
<ele>-177.989990</ele>
<time>2025-12-03T13:51:53.726Z</time>
</trkpt>
<trkpt lat="31.1514300" lon="35.3417700">
<ele>-178.419998</ele>
<time>2025-12-03T13:51:53.726Z</time>
</trkpt>
<trkpt lat="31.1514200" lon="35.3418100">
<ele>-179.500000</ele>
<time>2025-12-03T13:51:53.726Z</time>
</trkpt>
<trkpt lat="31.1514000" lon="35.3418200">
<ele>-179.829987</ele>
<time>2025-12-03T13:51:53.726Z</time>
</trkpt>
<trkpt lat="31.1513400" lon="35.3417900">
<ele>-180.009995</ele>
<time>2025-12-03T13:51:53.726Z</time>
</trkpt>
<trkpt lat="31.1513300" lon="35.3417900">
<ele>-180.190002</ele>
<time>2025-12-03T13:51:53.726Z</time>
</trkpt>
<trkpt lat="31.1513100" lon="35.3418100">
<ele>-181.020004</ele>
<time>2025-12-03T13:51:53.726Z</time>
</trkpt>
<trkpt lat="31.1513300" lon="35.3418500">
<ele>-181.610001</ele>
<time>2025-12-03T13:51:53.726Z</time>
</trkpt>
<trkpt lat="31.1513600" lon="35.3418800">
<ele>-181.840012</ele>
<time>2025-12-03T13:51:53.726Z</time>
</trkpt>
<trkpt lat="31.1513500" lon="35.3419100">
<ele>-182.729996</ele>
<time>2025-12-03T13:51:53.726Z</time>
</trkpt>
<trkpt lat="31.1513100" lon="35.3419100">
<ele>-183.340012</ele>
<time>2025-12-03T13:51:53.726Z</time>
</trkpt>
<trkpt lat="31.1512800" lon="35.3419000">
<ele>-183.570007</ele>
<time>2025-12-03T13:51:53.726Z</time>
</trkpt>
<trkpt lat="31.1512100" lon="35.3418900">
<ele>-184.459991</ele>
<time>2025-12-03T13:51:53.726Z</time>
</trkpt>
<trkpt lat="31.1511000" lon="35.3418500">
<ele>-185.549988</ele>
<time>2025-12-03T13:51:53.726Z</time>
</trkpt>
<trkpt lat="31.1510700" lon="35.3418800">
<ele>-186.809998</ele>
<time>2025-12-03T13:51:53.726Z</time>
</trkpt>
<trkpt lat="31.1510600" lon="35.3419200">
<ele>-187.819992</ele>
<time>2025-12-03T13:51:53.726Z</time>
</trkpt>
<trkpt lat="31.1510600" lon="35.3419400">
<ele>-188.199997</ele>
<time>2025-12-03T13:51:53.726Z</time>
</trkpt>
<trkpt lat="31.1511200" lon="35.3419900">
<ele>-188.179993</ele>
<time>2025-12-03T13:51:53.726Z</time>
</trkpt>
<trkpt lat="31.1511900" lon="35.3419900">
<ele>-187.179993</ele>
<time>2025-12-03T13:51:53.726Z</time>
</trkpt>
<trkpt lat="31.1512800" lon="35.3420300">
<ele>-187.029999</ele>
<time>2025-12-03T13:51:53.726Z</time>
</trkpt>
<trkpt lat="31.1515100" lon="35.3421900">
<ele>-190.069992</ele>
<time>2025-12-03T13:51:53.726Z</time>
</trkpt>
<trkpt lat="31.1520600" lon="35.3423000">
<ele>-189.290009</ele>
<time>2025-12-03T13:51:53.726Z</time>
</trkpt>
<trkpt lat="31.1521900" lon="35.3423500">
<ele>-189.070007</ele>
<time>2025-12-03T13:51:53.726Z</time>
</trkpt>
<trkpt lat="31.1522800" lon="35.3424400">
<ele>-190.510010</ele>
<time>2025-12-03T13:51:53.726Z</time>
</trkpt>
<trkpt lat="31.1523100" lon="35.3426100">
<ele>-194.009995</ele>
<time>2025-12-03T13:51:53.726Z</time>
</trkpt>
<trkpt lat="31.1524400" lon="35.3426900">
<ele>-196.669998</ele>
<time>2025-12-03T13:51:53.726Z</time>
</trkpt>
<trkpt lat="31.1526000" lon="35.3427300">
<ele>-200.070007</ele>
<time>2025-12-03T13:51:53.726Z</time>
</trkpt>
<trkpt lat="31.1527700" lon="35.3427100">
<ele>-203.130005</ele>
<time>2025-12-03T13:51:53.726Z</time>
</trkpt>
<trkpt lat="31.1529300" lon="35.3427400">
<ele>-205.539993</ele>
<time>2025-12-03T13:51:53.726Z</time>
</trkpt>
<trkpt lat="31.1532900" lon="35.3428000">
<ele>-209.589996</ele>
<time>2025-12-03T13:51:53.726Z</time>
</trkpt>
<trkpt lat="31.1533600" lon="35.3428300">
<ele>-211.019989</ele>
<time>2025-12-03T13:51:53.726Z</time>
</trkpt>
<trkpt lat="31.1533000" lon="35.3428800">
<ele>-212.380005</ele>
<time>2025-12-03T13:51:53.726Z</time>
</trkpt>
<trkpt lat="31.1529300" lon="35.3429600">
<ele>-210.880005</ele>
<time>2025-12-03T13:51:53.726Z</time>
</trkpt>
<trkpt lat="31.1527600" lon="35.3430600">
<ele>-211.910004</ele>
<time>2025-12-03T13:51:53.726Z</time>
</trkpt>
<trkpt lat="31.1526700" lon="35.3431300">
<ele>-212.649994</ele>
<time>2025-12-03T13:51:53.726Z</time>
</trkpt>
<trkpt lat="31.1525600" lon="35.3431300">
<ele>-211.679993</ele>
<time>2025-12-03T13:51:53.726Z</time>
</trkpt>
<trkpt lat="31.1525500" lon="35.3431900">
<ele>-213.240005</ele>
<time>2025-12-03T13:51:53.726Z</time>
</trkpt>
<trkpt lat="31.1525700" lon="35.3433200">
<ele>-216.889999</ele>
<time>2025-12-03T13:51:53.726Z</time>
</trkpt>
<trkpt lat="31.1524800" lon="35.3433600">
<ele>-217.490005</ele>
<time>2025-12-03T13:51:53.726Z</time>
</trkpt>
<trkpt lat="31.1523700" lon="35.3432700">
<ele>-214.959991</ele>
<time>2025-12-03T13:51:53.726Z</time>
</trkpt>
<trkpt lat="31.1522600" lon="35.3432400">
<ele>-213.730011</ele>
<time>2025-12-03T13:51:53.726Z</time>
</trkpt>
<trkpt lat="31.1521400" lon="35.3430900">
<ele>-208.279999</ele>
<time>2025-12-03T13:51:53.726Z</time>
</trkpt>
<trkpt lat="31.1519800" lon="35.3429600">
<ele>-204.160004</ele>
<time>2025-12-03T13:51:53.726Z</time>
</trkpt>
<trkpt lat="31.1519000" lon="35.3429500">
<ele>-203.919998</ele>
<time>2025-12-03T13:51:53.726Z</time>
</trkpt>
<trkpt lat="31.1518300" lon="35.3429800">
<ele>-204.639999</ele>
<time>2025-12-03T13:51:53.726Z</time>
</trkpt>
<trkpt lat="31.1517800" lon="35.3430200">
<ele>-205.539993</ele>
<time>2025-12-03T13:51:53.726Z</time>
</trkpt>
<trkpt lat="31.1516600" lon="35.3430500">
<ele>-205.949997</ele>
<time>2025-12-03T13:51:53.726Z</time>
</trkpt>
<trkpt lat="31.1514900" lon="35.3431600">
<ele>-211.160004</ele>
<time>2025-12-03T13:51:53.726Z</time>
</trkpt>
<trkpt lat="31.1514200" lon="35.3431900">
<ele>-212.970001</ele>
<time>2025-12-03T13:51:53.726Z</time>
</trkpt>
<trkpt lat="31.1513000" lon="35.3432100">
<ele>-215.110001</ele>
<time>2025-12-03T13:51:53.726Z</time>
</trkpt>
<trkpt lat="31.1512800" lon="35.3432500">
<ele>-216.589996</ele>
<time>2025-12-03T13:51:53.726Z</time>
</trkpt>
<trkpt lat="31.1514200" lon="35.3433200">
<ele>-217.130005</ele>
<time>2025-12-03T13:51:53.726Z</time>
</trkpt>
<trkpt lat="31.1514500" lon="35.3433600">
<ele>-218.010010</ele>
<time>2025-12-03T13:51:53.726Z</time>
</trkpt>
<trkpt lat="31.1513800" lon="35.3434600">
<ele>-222.199997</ele>
<time>2025-12-03T13:51:53.726Z</time>
</trkpt>
<trkpt lat="31.1513800" lon="35.3435100">
<ele>-223.819992</ele>
<time>2025-12-03T13:51:53.726Z</time>
</trkpt>
<trkpt lat="31.1515000" lon="35.3434800">
<ele>-221.360001</ele>
<time>2025-12-03T13:51:53.726Z</time>
</trkpt>
<trkpt lat="31.1515800" lon="35.3434900">
<ele>-220.710007</ele>
<time>2025-12-03T13:51:53.726Z</time>
</trkpt>
<trkpt lat="31.1516400" lon="35.3435300">
<ele>-221.399994</ele>
<time>2025-12-03T13:51:53.726Z</time>
</trkpt>
<trkpt lat="31.1515500" lon="35.3435800">
<ele>-224.190002</ele>
<time>2025-12-03T13:51:53.726Z</time>
</trkpt>
<trkpt lat="31.1515800" lon="35.3436000">
<ele>-224.550003</ele>
<time>2025-12-03T13:51:53.726Z</time>
</trkpt>
<trkpt lat="31.1517200" lon="35.3435700">
<ele>-222.630005</ele>
<time>2025-12-03T13:51:53.726Z</time>
</trkpt>
<trkpt lat="31.1517700" lon="35.3435300">
<ele>-221.509995</ele>
<time>2025-12-03T13:51:53.726Z</time>
</trkpt>
<trkpt lat="31.1518800" lon="35.3435500">
<ele>-222.479996</ele>
<time>2025-12-03T13:51:53.726Z</time>
</trkpt>
<trkpt lat="31.1520700" lon="35.3436700">
<ele>-225.570007</ele>
<time>2025-12-03T13:51:53.726Z</time>
</trkpt>
<trkpt lat="31.1521700" lon="35.3437500">
<ele>-227.779999</ele>
<time>2025-12-03T13:51:53.726Z</time>
</trkpt>
<trkpt lat="31.1522100" lon="35.3438800">
<ele>-231.799988</ele>
<time>2025-12-03T13:51:53.726Z</time>
</trkpt>
<trkpt lat="31.1521700" lon="35.3440000">
<ele>-237.100006</ele>
<time>2025-12-03T13:51:53.726Z</time>
</trkpt>
<trkpt lat="31.1521100" lon="35.3438800">
<ele>-232.509995</ele>
<time>2025-12-03T13:51:53.726Z</time>
</trkpt>
<trkpt lat="31.1519700" lon="35.3438100">
<ele>-231.000000</ele>
<time>2025-12-03T13:51:53.726Z</time>
</trkpt>
<trkpt lat="31.1519000" lon="35.3438200">
<ele>-231.759995</ele>
<time>2025-12-03T13:51:53.726Z</time>
</trkpt>
<trkpt lat="31.1518600" lon="35.3438500">
<ele>-233.120010</ele>
<time>2025-12-03T13:51:53.726Z</time>
</trkpt>
<trkpt lat="31.1518300" lon="35.3439000">
<ele>-235.229996</ele>
<time>2025-12-03T13:51:53.726Z</time>
</trkpt>
<trkpt lat="31.1518400" lon="35.3439800">
<ele>-238.110001</ele>
<time>2025-12-03T13:51:53.726Z</time>
</trkpt>
<trkpt lat="31.1518200" lon="35.3440200">
<ele>-239.669998</ele>
<time>2025-12-03T13:51:53.726Z</time>
</trkpt>
<trkpt lat="31.1517600" lon="35.3440600">
<ele>-241.289993</ele>
<time>2025-12-03T13:51:53.726Z</time>
</trkpt>
<trkpt lat="31.1517900" lon="35.3440700">
<ele>-241.560013</ele>
<time>2025-12-03T13:51:53.726Z</time>
</trkpt>
<trkpt lat="31.1518400" lon="35.3440600">
<ele>-241.059998</ele>
<time>2025-12-03T13:51:53.726Z</time>
</trkpt>
<trkpt lat="31.1518600" lon="35.3441000">
<ele>-242.509995</ele>
<time>2025-12-03T13:51:53.726Z</time>
</trkpt>
<trkpt lat="31.1517700" lon="35.3441000">
<ele>-242.660004</ele>
<time>2025-12-03T13:51:53.726Z</time>
</trkpt>
<trkpt lat="31.1517500" lon="35.3441300">
<ele>-243.729996</ele>
<time>2025-12-03T13:51:53.726Z</time>
</trkpt>
<trkpt lat="31.1518200" lon="35.3441800">
<ele>-245.639999</ele>
<time>2025-12-03T13:51:53.726Z</time>
</trkpt>
<trkpt lat="31.1518600" lon="35.3442300">
<ele>-248.229996</ele>
<time>2025-12-03T13:51:53.726Z</time>
</trkpt>
<trkpt lat="31.1518100" lon="35.3442600">
<ele>-249.399994</ele>
<time>2025-12-03T13:51:53.726Z</time>
</trkpt>
<trkpt lat="31.1517700" lon="35.3442700">
<ele>-249.550003</ele>
<time>2025-12-03T13:51:53.726Z</time>
</trkpt>
<trkpt lat="31.1517300" lon="35.3443500">
<ele>-252.499985</ele>
<time>2025-12-03T13:51:53.726Z</time>
</trkpt>
<trkpt lat="31.1518100" lon="35.3443800">
<ele>-255.059998</ele>
<time>2025-12-03T13:51:53.726Z</time>
</trkpt>
<trkpt lat="31.1519700" lon="35.3445500">
<ele>-263.949982</ele>
<time>2025-12-03T13:51:53.726Z</time>
</trkpt>
<trkpt lat="31.1520000" lon="35.3446400">
<ele>-266.429993</ele>
<time>2025-12-03T13:51:53.726Z</time>
</trkpt>
<trkpt lat="31.1521600" lon="35.3447200">
<ele>-268.160004</ele>
<time>2025-12-03T13:51:53.726Z</time>
</trkpt>
<trkpt lat="31.1522700" lon="35.3448100">
<ele>-268.459991</ele>
<time>2025-12-03T13:51:53.726Z</time>
</trkpt>
<trkpt lat="31.1523600" lon="35.3448100">
<ele>-266.940002</ele>
<time>2025-12-03T13:51:53.726Z</time>
</trkpt>
<trkpt lat="31.1523700" lon="35.3448400">
<ele>-267.260010</ele>
<time>2025-12-03T13:51:53.726Z</time>
</trkpt>
<trkpt lat="31.1523900" lon="35.3449000">
<ele>-267.930023</ele>
<time>2025-12-03T13:51:53.726Z</time>
</trkpt>
<trkpt lat="31.1523400" lon="35.3449900">
<ele>-270.139984</ele>
<time>2025-12-03T13:51:53.726Z</time>
</trkpt>
<trkpt lat="31.1523700" lon="35.3451600">
<ele>-270.720001</ele>
<time>2025-12-03T13:51:53.726Z</time>
</trkpt>
<trkpt lat="31.1523400" lon="35.3452300">
<ele>-271.610016</ele>
<time>2025-12-03T13:51:53.726Z</time>
</trkpt>
<trkpt lat="31.1522300" lon="35.3451900">
<ele>-273.239990</ele>
<time>2025-12-03T13:51:53.726Z</time>
</trkpt>
<trkpt lat="31.1521700" lon="35.3451500">
<ele>-273.459991</ele>
<time>2025-12-03T13:51:53.726Z</time>
</trkpt>
<trkpt lat="31.1520700" lon="35.3451400">
<ele>-274.100006</ele>
<time>2025-12-03T13:51:53.726Z</time>
</trkpt>
<trkpt lat="31.1519900" lon="35.3450800">
<ele>-274.250000</ele>
<time>2025-12-03T13:51:53.726Z</time>
</trkpt>
<trkpt lat="31.1519500" lon="35.3451000">
<ele>-274.679993</ele>
<time>2025-12-03T13:51:53.726Z</time>
</trkpt>
<trkpt lat="31.1519000" lon="35.3451300">
<ele>-275.320007</ele>
<time>2025-12-03T13:51:53.726Z</time>
</trkpt>
<trkpt lat="31.1518900" lon="35.3451900">
<ele>-275.970001</ele>
<time>2025-12-03T13:51:53.726Z</time>
</trkpt>
<trkpt lat="31.1519300" lon="35.3452400">
<ele>-275.910004</ele>
<time>2025-12-03T13:51:53.726Z</time>
</trkpt>
<trkpt lat="31.1519400" lon="35.3453000">
<ele>-276.230011</ele>
<time>2025-12-03T13:51:53.726Z</time>
</trkpt>
<trkpt lat="31.1519200" lon="35.3453600">
<ele>-277.000000</ele>
<time>2025-12-03T13:51:53.726Z</time>
</trkpt>
<trkpt lat="31.1515900" lon="35.3457300">
<ele>-286.610016</ele>
<time>2025-12-03T13:51:53.726Z</time>
</trkpt>
<trkpt lat="31.1515400" lon="35.3458400">
<ele>-288.070007</ele>
<time>2025-12-03T13:51:53.726Z</time>
</trkpt>
<trkpt lat="31.1515400" lon="35.3458900">
<ele>-288.580017</ele>
<time>2025-12-03T13:51:53.726Z</time>
</trkpt>
<trkpt lat="31.1514900" lon="35.3459500">
<ele>-289.489990</ele>
<time>2025-12-03T13:51:53.726Z</time>
</trkpt>
<trkpt lat="31.1513500" lon="35.3460100">
<ele>-291.470001</ele>
<time>2025-12-03T13:51:53.726Z</time>
</trkpt>
<trkpt lat="31.1512000" lon="35.3459900">
<ele>-292.390015</ele>
<time>2025-12-03T13:51:53.726Z</time>
</trkpt>
<trkpt lat="31.1511400" lon="35.3460100">
<ele>-293.049988</ele>
<time>2025-12-03T13:51:53.726Z</time>
</trkpt>
<trkpt lat="31.1511100" lon="35.3460600">
<ele>-293.639984</ele>
<time>2025-12-03T13:51:53.726Z</time>
</trkpt>
<trkpt lat="31.1510800" lon="35.3462100">
<ele>-294.109985</ele>
<time>2025-12-03T13:51:53.726Z</time>
</trkpt>
<trkpt lat="31.1510200" lon="35.3461400">
<ele>-294.329987</ele>
<time>2025-12-03T13:51:53.726Z</time>
</trkpt>
<trkpt lat="31.1509300" lon="35.3461000">
<ele>-294.570007</ele>
<time>2025-12-03T13:51:53.726Z</time>
</trkpt>
<trkpt lat="31.1508100" lon="35.3461200">
<ele>-294.830017</ele>
<time>2025-12-03T13:51:53.726Z</time>
</trkpt>
<trkpt lat="31.1507100" lon="35.3462100">
<ele>-294.269989</ele>
<time>2025-12-03T13:51:53.726Z</time>
</trkpt>
<trkpt lat="31.1506700" lon="35.3462900">
<ele>-294.199982</ele>
<time>2025-12-03T13:51:53.726Z</time>
</trkpt>
<trkpt lat="31.1506500" lon="35.3463700">
<ele>-294.300018</ele>
<time>2025-12-03T13:51:53.726Z</time>
</trkpt>
<trkpt lat="31.1506600" lon="35.3464800">
<ele>-294.949982</ele>
<time>2025-12-03T13:51:53.726Z</time>
</trkpt>
<trkpt lat="31.1506800" lon="35.3466300">
<ele>-296.089996</ele>
<time>2025-12-03T13:51:53.726Z</time>
</trkpt>
<trkpt lat="31.1508800" lon="35.3470300">
<ele>-300.320007</ele>
<time>2025-12-03T13:51:53.726Z</time>
</trkpt>
<trkpt lat="31.1509100" lon="35.3471000">
<ele>-300.080017</ele>
<time>2025-12-03T13:51:53.726Z</time>
</trkpt>
<trkpt lat="31.1509200" lon="35.3471800">
<ele>-300.230011</ele>
<time>2025-12-03T13:51:53.726Z</time>
</trkpt>
<trkpt lat="31.1509000" lon="35.3472800">
<ele>-300.149994</ele>
<time>2025-12-03T13:51:53.726Z</time>
</trkpt>
<trkpt lat="31.1507600" lon="35.3476300">
<ele>-300.649994</ele>
<time>2025-12-03T13:51:53.726Z</time>
</trkpt>
<trkpt lat="31.1506900" lon="35.3478600">
<ele>-303.460022</ele>
<time>2025-12-03T13:51:53.726Z</time>
</trkpt>
<trkpt lat="31.1506600" lon="35.3479800">
<ele>-304.070007</ele>
<time>2025-12-03T13:51:53.726Z</time>
</trkpt>
<trkpt lat="31.1507000" lon="35.3482100">
<ele>-304.519989</ele>
<time>2025-12-03T13:51:53.726Z</time>
</trkpt>
<trkpt lat="31.1507400" lon="35.3483600">
<ele>-304.500000</ele>
<time>2025-12-03T13:51:53.726Z</time>
</trkpt>
<trkpt lat="31.1508200" lon="35.3486400">
<ele>-303.200012</ele>
<time>2025-12-03T13:51:53.726Z</time>
</trkpt>
<trkpt lat="31.1509200" lon="35.3493700">
<ele>-310.460022</ele>
<time>2025-12-03T13:51:53.726Z</time>
</trkpt>
<trkpt lat="31.1510400" lon="35.3494700">
<ele>-313.160004</ele>
<time>2025-12-03T13:51:53.726Z</time>
</trkpt>
<trkpt lat="31.1512700" lon="35.3497800">
<ele>-315.090027</ele>
<time>2025-12-03T13:51:53.726Z</time>
</trkpt>
<trkpt lat="31.1512700" lon="35.3500100">
<ele>-315.940002</ele>
<time>2025-12-03T13:51:53.726Z</time>
</trkpt>
<trkpt lat="31.1511500" lon="35.3504300">
<ele>-315.350006</ele>
<time>2025-12-03T13:51:53.726Z</time>
</trkpt>
<trkpt lat="31.1511500" lon="35.3510100">
<ele>-316.110016</ele>
<time>2025-12-03T13:51:53.726Z</time>
</trkpt>
<trkpt lat="31.1511000" lon="35.3512400">
<ele>-316.959991</ele>
<time>2025-12-03T13:51:53.726Z</time>
</trkpt>
<trkpt lat="31.1510900" lon="35.3513400">
<ele>-316.869995</ele>
<time>2025-12-03T13:51:53.726Z</time>
</trkpt>
<trkpt lat="31.1505500" lon="35.3524100">
<ele>-323.839996</ele>
<time>2025-12-03T13:51:53.726Z</time>
</trkpt>
<trkpt lat="31.1505000" lon="35.3530100">
<ele>-320.589996</ele>
<time>2025-12-03T13:51:53.726Z</time>
</trkpt>
<trkpt lat="31.1504900" lon="35.3532500">
<ele>-317.940002</ele>
<time>2025-12-03T13:51:53.726Z</time>
</trkpt>
<trkpt lat="31.1504500" lon="35.3535400">
<ele>-312.630005</ele>
<time>2025-12-03T13:51:53.726Z</time>
</trkpt>
<trkpt lat="31.1504400" lon="35.3538200">
<ele>-312.709991</ele>
<time>2025-12-03T13:51:53.726Z</time>
</trkpt>
<trkpt lat="31.1503900" lon="35.3540900">
<ele>-313.380005</ele>
<time>2025-12-03T13:51:53.726Z</time>
</trkpt>
<trkpt lat="31.1502600" lon="35.3542600">
<ele>-313.619995</ele>
<time>2025-12-03T13:51:53.726Z</time>
</trkpt>
<trkpt lat="31.1500200" lon="35.3544900">
<ele>-316.339996</ele>
<time>2025-12-03T13:51:53.726Z</time>
</trkpt>
<trkpt lat="31.1499000" lon="35.3546300">
<ele>-316.750000</ele>
<time>2025-12-03T13:51:53.726Z</time>
</trkpt>
<trkpt lat="31.1498500" lon="35.3547400">
<ele>-317.299988</ele>
<time>2025-12-03T13:51:53.726Z</time>
</trkpt>
<trkpt lat="31.1496000" lon="35.3548000">
<ele>-321.290009</ele>
<time>2025-12-03T13:51:53.726Z</time>
</trkpt>
<trkpt lat="31.1493300" lon="35.3549600">
<ele>-325.410004</ele>
<time>2025-12-03T13:51:53.726Z</time>
</trkpt>
<trkpt lat="31.1492600" lon="35.3550400">
<ele>-325.790009</ele>
<time>2025-12-03T13:51:53.726Z</time>
</trkpt>
<trkpt lat="31.1492000" lon="35.3551500">
<ele>-324.630005</ele>
<time>2025-12-03T13:51:53.726Z</time>
</trkpt>
<trkpt lat="31.1491700" lon="35.3552600">
<ele>-323.239990</ele>
<time>2025-12-03T13:51:53.726Z</time>
</trkpt>
<trkpt lat="31.1491500" lon="35.3554500">
<ele>-321.720001</ele>
<time>2025-12-03T13:51:53.726Z</time>
</trkpt>
<trkpt lat="31.1491500" lon="35.3556600">
<ele>-320.809998</ele>
<time>2025-12-03T13:51:53.726Z</time>
</trkpt>
<trkpt lat="31.1490900" lon="35.3559900">
<ele>-323.789978</ele>
<time>2025-12-03T13:51:53.726Z</time>
</trkpt>
<trkpt lat="31.1489900" lon="35.3562500">
<ele>-326.630005</ele>
<time>2025-12-03T13:51:53.726Z</time>
</trkpt>
<trkpt lat="31.1486700" lon="35.3569700">
<ele>-329.540009</ele>
<time>2025-12-03T13:51:53.726Z</time>
</trkpt>
<trkpt lat="31.1485800" lon="35.3572400">
<ele>-329.439972</ele>
<time>2025-12-03T13:51:53.726Z</time>
</trkpt>
<trkpt lat="31.1485600" lon="35.3573900">
<ele>-329.619995</ele>
<time>2025-12-03T13:51:53.726Z</time>
</trkpt>
<trkpt lat="31.1485700" lon="35.3578400">
<ele>-328.889984</ele>
<time>2025-12-03T13:51:53.726Z</time>
</trkpt>
<trkpt lat="31.1486300" lon="35.3581600">
<ele>-326.799988</ele>
<time>2025-12-03T13:51:53.726Z</time>
</trkpt>
<trkpt lat="31.1486700" lon="35.3584300">
<ele>-324.309998</ele>
<time>2025-12-03T13:51:53.726Z</time>
</trkpt>
<trkpt lat="31.1486800" lon="35.3586500">
<ele>-323.260010</ele>
<time>2025-12-03T13:51:53.726Z</time>
</trkpt>
<trkpt lat="31.1487400" lon="35.3590200">
<ele>-322.700012</ele>
<time>2025-12-03T13:51:53.726Z</time>
</trkpt>
<trkpt lat="31.1488200" lon="35.3592800">
<ele>-322.350006</ele>
<time>2025-12-03T13:51:53.726Z</time>
</trkpt>
<trkpt lat="31.1490800" lon="35.3598100">
<ele>-326.730011</ele>
<time>2025-12-03T13:51:53.726Z</time>
</trkpt>
<trkpt lat="31.1493100" lon="35.3604100">
<ele>-328.490021</ele>
<time>2025-12-03T13:51:53.726Z</time>
</trkpt>
<trkpt lat="31.1494900" lon="35.3608400">
<ele>-332.720001</ele>
<time>2025-12-03T13:51:53.726Z</time>
</trkpt>
<trkpt lat="31.1495800" lon="35.3610000">
<ele>-335.170013</ele>
<time>2025-12-03T13:51:53.726Z</time>
</trkpt>
<trkpt lat="31.1496700" lon="35.3611000">
<ele>-336.570007</ele>
<time>2025-12-03T13:51:53.726Z</time>
</trkpt>
<trkpt lat="31.1497400" lon="35.3611500">
<ele>-336.970032</ele>
<time>2025-12-03T13:51:53.726Z</time>
</trkpt>
<trkpt lat="31.1499200" lon="35.3611900">
<ele>-339.979980</ele>
<time>2025-12-03T13:51:53.726Z</time>
</trkpt>
<trkpt lat="31.1500600" lon="35.3612500">
<ele>-342.279968</ele>
<time>2025-12-03T13:51:53.726Z</time>
</trkpt>
<trkpt lat="31.1502000" lon="35.3613600">
<ele>-343.760010</ele>
<time>2025-12-03T13:51:53.726Z</time>
</trkpt>
<trkpt lat="31.1502600" lon="35.3614600">
<ele>-344.290009</ele>
<time>2025-12-03T13:51:53.726Z</time>
</trkpt>
<trkpt lat="31.1504000" lon="35.3618300">
<ele>-346.689972</ele>
<time>2025-12-03T13:51:53.726Z</time>
</trkpt>
<trkpt lat="31.1504300" lon="35.3622300">
<ele>-352.210022</ele>
<time>2025-12-03T13:51:53.726Z</time>
</trkpt>
<trkpt lat="31.1505600" lon="35.3629100">
<ele>-361.979980</ele>
<time>2025-12-03T13:51:53.726Z</time>
</trkpt>
<trkpt lat="31.1502500" lon="35.3641900">
<ele>-378.270020</ele>
<time>2025-12-03T13:51:53.726Z</time>
</trkpt>
<trkpt lat="31.1499600" lon="35.3648600">
<ele>-384.919983</ele>
<time>2025-12-03T13:51:53.726Z</time>
</trkpt>
<trkpt lat="31.1499600" lon="35.3651400">
<ele>-386.289978</ele>
<time>2025-12-03T13:51:53.726Z</time>
</trkpt>
<trkpt lat="31.1501000" lon="35.3653000">
<ele>-386.719971</ele>
<time>2025-12-03T13:51:53.726Z</time>
</trkpt>
<trkpt lat="31.1500600" lon="35.3653000">
<ele>-386.859985</ele>
<time>2025-12-03T13:51:53.726Z</time>
</trkpt>
<trkpt lat="31.1499800" lon="35.3653600">
<ele>-387.149994</ele>
<time>2025-12-03T13:51:53.726Z</time>
</trkpt>
<trkpt lat="31.1498900" lon="35.3654500">
<ele>-386.830017</ele>
<time>2025-12-03T13:51:53.726Z</time>
</trkpt>
<trkpt lat="31.1497800" lon="35.3656200">
<ele>-386.779999</ele>
<time>2025-12-03T13:51:53.726Z</time>
</trkpt>
<trkpt lat="31.1496900" lon="35.3656700">
<ele>-386.759979</ele>
<time>2025-12-03T13:51:53.726Z</time>
</trkpt>
<trkpt lat="31.1494800" lon="35.3660800">
<ele>-390.439972</ele>
<time>2025-12-03T13:51:53.726Z</time>
</trkpt>
<trkpt lat="31.1493400" lon="35.3666200">
<ele>-391.059998</ele>
<time>2025-12-03T13:51:53.726Z</time>
</trkpt>
<trkpt lat="31.1491600" lon="35.3670800">
<ele>-390.959991</ele>
<time>2025-12-03T13:51:53.726Z</time>
</trkpt>
<trkpt lat="31.1491400" lon="35.3676400">
<ele>-391.000000</ele>
<time>2025-12-03T13:51:53.726Z</time>
</trkpt>
<trkpt lat="31.1488800" lon="35.3679600">
<ele>-390.959991</ele>
<time>2025-12-03T13:51:53.726Z</time>
</trkpt>
<trkpt lat="31.1487300" lon="35.3680900">
<ele>-390.619995</ele>
<time>2025-12-03T13:51:53.726Z</time>
</trkpt>
<trkpt lat="31.1483700" lon="35.3683100">
<ele>-392.629974</ele>
<time>2025-12-03T13:51:53.726Z</time>
</trkpt>
<trkpt lat="31.1481500" lon="35.3684900">
<ele>-391.389984</ele>
<time>2025-12-03T13:51:53.726Z</time>
</trkpt>
<trkpt lat="31.1480200" lon="35.3686300">
<ele>-390.679993</ele>
<time>2025-12-03T13:51:53.726Z</time>
</trkpt>
<trkpt lat="31.1479200" lon="35.3687800">
<ele>-389.710022</ele>
<time>2025-12-03T13:51:53.726Z</time>
</trkpt>
<trkpt lat="31.1478000" lon="35.3690600">
<ele>-390.260010</ele>
<time>2025-12-03T13:51:53.726Z</time>
</trkpt>
<trkpt lat="31.1477800" lon="35.3692300">
<ele>-391.220001</ele>
<time>2025-12-03T13:51:53.726Z</time>
</trkpt>
<trkpt lat="31.1477400" lon="35.3693900">
<ele>-392.190002</ele>
<time>2025-12-03T13:51:53.726Z</time>
</trkpt>
<trkpt lat="31.1476900" lon="35.3696000">
<ele>-393.329987</ele>
<time>2025-12-03T13:51:53.726Z</time>
</trkpt>
<trkpt lat="31.1476500" lon="35.3699200">
<ele>-394.580017</ele>
<time>2025-12-03T13:51:53.726Z</time>
</trkpt>
<trkpt lat="31.1476900" lon="35.3698500">
<ele>-393.919983</ele>
<time>2025-12-03T13:51:53.726Z</time>
</trkpt>
<trkpt lat="31.1478000" lon="35.3697900">
<ele>-392.899994</ele>
<time>2025-12-03T13:51:53.726Z</time>
</trkpt>
<trkpt lat="31.1479700" lon="35.3697500">
<ele>-391.819977</ele>
<time>2025-12-03T13:51:53.726Z</time>
</trkpt>
<trkpt lat="31.1480400" lon="35.3697500">
<ele>-391.399994</ele>
<time>2025-12-03T13:51:53.726Z</time>
</trkpt>
<trkpt lat="31.1481400" lon="35.3698000">
<ele>-391.369995</ele>
<time>2025-12-03T13:51:53.726Z</time>
</trkpt>
<trkpt lat="31.1482100" lon="35.3698600">
<ele>-391.380005</ele>
<time>2025-12-03T13:51:53.726Z</time>
</trkpt>
<trkpt lat="31.1482400" lon="35.3699500">
<ele>-391.710022</ele>
<time>2025-12-03T13:51:53.726Z</time>
</trkpt>
<trkpt lat="31.1482400" lon="35.3700100">
<ele>-392.089996</ele>
<time>2025-12-03T13:51:53.726Z</time>
</trkpt>
</trkseg>
</trk>
</gpx>
